[[{"header":{"parameterUnit":"m.s-1","parameterCategory":1,"la1":31.0,"la2":29.5877,"lo1":-88.7671,"lo2":-86.6584,"dy":0.0162,"dx":0.0185,"nx":115,"ny":88,"refTime":"2023-05-12T12:00:00:Z","depth":0,"parameterNumber":2,"parameterNumberName":"U-component_of_WINDS"},"data":[0.0,0.0,0.0,0.0,0.0,0.0,0.0,0.0,0.0,0.0,0.0,0.0,0.0,0.0,0.0,0.0,0.0,0.0,0.0,0.0,0.0,0.0,0.0,0.0,0.0,0.0,0.0,0.0,0.0,0.0,0.0,0.0,0.0,0.0,0.0,0.0,0.0,0.0,0.0,0.0,0.0,0.0,0.0,0.0,0.0,0.0,0.0,0.0,0.0,0.0,0.0,0.0,0.0,0.0,0.0,0.0,0.0,0.0,0.0,0.0,0.0,0.0,0.0,0.0,0.0,0.0,0.0,0.0,0.0,0.0,0.0,0.0,0.0,0.0,0.0,0.0,0.0,0.0,0.0,0.0,0.0,0.0,0.0,0.0,0.0,0.0,0.0,0.0,0.0,0.0,0.0,0.0,0.0,0.0,0.0,0.0,0.0,0.0,0.0,0.0,0.0,0.0,0.0,0.0,0.0,0.0,0.0,0.0,0.0,0.0,0.0,0.0,0.0,0.0,0.0,0.0,0.0,0.0,0.0,0.0,0.0,0.0,0.0,0.0,0.0,0.0,0.0,0.0,0.0,0.0,0.0,0.0,0.0,0.0,0.0,0.0,0.0,0.0,0.0,0.0,0.0,0.0,0.0,0.0,0.0,0.0,0.0,0.0,0.0,0.0,0.0,0.0,0.0,0.0,0.0,0.0,0.0,0.0,0.0,0.0,0.0,0.0,0.0,0.0,0.0,0.0,0.0,0.0,0.0,0.0,0.0,0.0,0.0,0.0,0.0,0.0,0.0,0.0,0.0,0.0,0.0,0.0,0.0,0.0,0.0,0.0,0.0,0.0,0.0,0.0,0.0,0.0,0.0,0.0,0.0,0.0,0.0,0.0,0.0,0.0,0.0,0.0,0.0,0.0,0.0,0.0,0.0,0.0,0.0,0.0,0.0,0.0,0.0,0.0,0.0,0.0,0.0,0.0,0.0,0.0,0.0,0.0,0.0,0.0,0.0,0.0,0.0,0.0,0.0,0.0,0.0,0.0,0.0,0.0,0.0,0.0,0.0,0.0,0.0,0.0,0.0,0.0,0.0,0.0,0.0,0.0,0.0,0.0,0.0,0.0,0.0,0.0,0.0,0.0,0.0,0.0,0.0,0.0,0.0,0.0,0.0,0.0,0.0,0.0,0.0,0.0,0.0,0.0,0.0,0.0,0.0,0.0,0.0,0.0,0.0,0.0,0.0,0.0,0.0,0.0,0.0,0.0,0.0,0.0,0.0,0.0,0.0,0.0,0.0,0.0,0.0,0.0,0.0,0.0,0.0,0.0,0.0,0.0,0.0,0.0,0.0,0.0,0.0,0.0,0.0,0.0,0.0,0.0,0.0,0.0,0.0,0.0,0.0,0.0,0.0,0.0,0.0,0.0,0.0,0.0,0.0,0.0,0.0,0.0,0.0,0.0,0.0,0.0,0.0,0.0,0.0,0.0,0.0,0.0,0.0,0.0,0.0,0.0,0.0,0.0,0.0,0.0,0.0,0.0,0.0,0.0,0.0,0.0,0.0,0.0,0.0,0.0,0.0,0.0,0.0,0.0,0.0,0.0,0.0,0.0,0.0,0.0,0.0,0.0,0.0,0.0,0.0,0.0,0.0,0.0,0.0,0.0,0.0,0.0,0.0,0.0,0.0,0.0,0.0,0.0,0.0,0.0,0.0,0.0,0.0,0.0,0.0,0.0,0.0,0.0,0.0,0.0,0.0,0.0,0.0,0.0,0.0,0.0,0.0,0.0,0.0,0.0,0.0,0.0,0.0,0.0,0.0,0.0,0.0,0.0,0.0,0.0,0.0,0.0,0.0,0.0,0.0,0.0,0.0,0.0,0.0,0.0,0.0,0.0,0.0,0.0,0.0,0.0,0.0,0.0,0.0,0.0,0.0,0.0,0.0,0.0,0.0,0.0,0.0,0.0,0.0,0.0,0.0,0.0,0.0,0.0,0.0,0.0,0.0,0.0,0.0,0.0,0.0,0.0,0.0,0.0,0.0,0.0,0.0,0.0,0.0,0.0,0.0,0.0,0.0,0.0,0.0,0.0,0.0,0.0,0.0,0.0,0.0,0.0,0.0,0.0,0.0,0.0,0.0,0.0,0.0,0.0,0.0,0.0,0.0,0.0,0.0,0.0,0.0,0.0,0.0,0.0,0.0,0.0,0.0,0.0,0.0,0.0,0.0,0.0,0.0,0.0,0.0,0.0,0.0,0.0,0.0,0.0,0.0,0.0,0.0,0.0,0.0,0.0,0.0,0.0,0.0,0.0,0.0,0.0,0.0,0.0,0.0,0.0,0.0,0.0,0.0,0.0,0.0,0.0,0.0,0.0,0.0,0.0,0.0,0.0,0.0,0.0,0.0,0.0,0.0,0.0,0.0,0.0,0.0,0.0,0.0,0.0,0.0,0.0,0.0,0.0,0.0,0.0,0.0,0.0,0.0,0.0,0.0,0.0,0.0,0.0,0.0,0.0,0.0,0.0,0.0,0.0,0.0,0.0,0.0,0.0,0.0,0.0,0.0,0.0,0.0,0.0,0.0,0.0,0.0,0.0,0.0,0.0,0.0,0.0,0.0,0.0,0.0,0.0,0.0,0.0,0.0,0.0,0.0,0.0,0.0,0.0,0.0,0.0,0.0,0.0,0.0,0.0,0.0,0.0,0.0,0.0,0.0,0.0,0.0,0.0,0.0,0.0,0.0,0.0,0.0,0.0,0.0,0.0,0.0,0.0,0.0,0.0,0.0,0.0,0.0,0.0,0.0,0.0,0.0,0.0,0.0,0.0,0.0,0.0,0.0,0.0,0.0,0.0,0.0,0.0,0.0,0.0,0.0,0.0,0.0,0.0,0.0,0.0,0.0,0.0,0.0,0.0,0.0,0.0,0.0,0.0,0.0,0.0,0.0,0.0,0.0,0.0,0.0,0.0,0.0,0.0,0.0,0.0,0.0,0.0,0.0,0.0,0.0,0.0,0.0,0.0,0.0,0.0,0.0,0.0,0.0,0.0,0.0,0.0,0.0,0.0,0.0,0.0,0.0,0.0,0.0,0.0,0.0,0.0,0.0,0.0,0.0,0.0,0.0,0.0,0.0,0.0,0.0,0.0,0.0,0.0,0.0,0.0,0.0,0.0,0.0,0.0,0.0,0.0,0.0,0.0,0.0,0.0,0.0,0.0,0.0,0.0,0.0,0.0,0.0,0.0,0.0,0.0,0.0,0.0,0.0,0.0,0.0,0.0,0.0,0.0,0.0,0.0,0.0,0.0,0.0,0.0,0.0,0.0,0.0,0.0,0.0,0.0,0.0,0.0,0.0,0.0,0.0,0.0,0.0,0.0,0.0,0.0,0.0,0.0,0.0,0.0,0.0,0.0,0.0,0.0,0.0,0.0,0.0,0.0,0.0,0.0,0.0,0.0,0.0,0.0,0.0,0.0,0.0,0.0,0.0,0.0,0.0,0.0,0.0,0.0,0.0,0.0,0.0,0.0,0.0,0.0,0.0,0.0,0.0,0.0,0.0,0.0,0.0,0.0,0.0,0.0,0.0,0.0,0.0,0.0,0.0,0.0,0.0,0.0,0.0,0.0,0.0,0.0,0.0,0.0,0.0,0.0,0.0,0.0,0.0,0.0,0.0,0.0,0.0,0.0,0.0,0.0,0.0,0.0,0.0,0.0,0.0,0.0,0.0,0.0,0.0,0.0,0.0,0.0,0.0,0.0,0.0,0.0,0.0,0.0,0.0,0.0,0.0,0.0,0.0,0.0,0.0,0.0,0.0,0.0,0.0,0.0,0.0,0.0,0.0,0.0,0.0,0.0,0.0,0.0,0.0,0.0,0.0,0.0,0.0,0.0,0.0,0.0,0.0,0.0,0.0,0.0,0.0,0.0,0.0,0.0,0.0,0.0,0.0,0.0,0.0,0.0,0.0,0.0,0.0,0.0,0.0,0.0,0.0,0.0,0.0,0.0,0.0,0.0,0.0,0.0,0.0,0.0,0.0,0.0,0.0,0.0,0.0,0.0,0.0,0.0,0.0,0.0,0.0,0.0,0.0,0.0,0.0,0.0,0.0,0.0,0.0,0.0,0.0,0.0,0.0,0.0,0.0,0.0,0.0,0.0,0.0,0.0,0.0,0.0,0.0,0.0,0.0,0.0,0.0,0.0,0.0,0.0,0.0,0.0,0.0,0.0,0.0,0.0,0.0,0.0,0.0,0.0,0.0,0.0,0.0,0.0,0.0,0.0,0.0,0.0,0.0,0.0,-1.341,0.0,0.0,0.0,0.0,0.0,0.0,0.0,0.0,0.0,0.0,0.0,0.0,0.0,0.0,0.0,0.0,0.0,0.0,0.0,0.0,0.0,0.0,0.0,0.0,0.0,0.0,0.0,0.0,0.0,0.0,0.0,0.0,0.0,0.0,0.0,0.0,0.0,0.0,0.0,0.0,0.0,0.0,0.0,0.0,0.0,0.0,0.0,0.0,0.0,0.0,0.0,0.0,0.0,0.0,0.0,0.0,0.0,0.0,0.0,0.0,0.0,0.0,0.0,0.0,0.0,0.0,0.0,0.0,0.0,0.0,0.0,0.0,0.0,0.0,0.0,0.0,0.0,0.0,0.0,0.0,0.0,0.0,0.0,0.0,0.0,0.0,0.0,0.0,0.0,0.0,0.0,0.0,0.0,0.0,0.0,0.0,0.0,0.0,0.0,0.0,0.0,0.0,0.0,0.0,0.0,0.0,0.0,0.0,0.0,0.0,-1.4272,-1.4492,-1.472,-1.4394,-1.3493,0.0,0.0,0.0,0.0,0.0,0.0,0.0,0.0,0.0,0.0,0.0,0.0,0.0,0.0,0.0,0.0,0.0,0.0,0.0,0.0,0.0,0.0,0.0,0.0,0.0,0.0,0.0,0.0,0.0,0.0,0.0,0.0,0.0,0.0,0.0,0.0,0.0,0.0,0.0,0.0,0.0,0.0,0.0,0.0,0.0,0.0,0.0,0.0,0.0,0.0,0.0,0.0,0.0,0.0,0.0,0.0,0.0,0.0,0.0,0.0,0.0,0.0,0.0,0.0,0.0,0.0,0.0,0.0,0.0,0.0,0.0,0.0,0.0,0.0,0.0,0.0,0.0,0.0,0.0,0.0,0.0,0.0,0.0,0.0,0.0,0.0,0.0,0.0,0.0,0.0,0.0,0.0,0.0,0.0,0.0,0.0,0.0,0.0,0.0,0.0,0.0,0.0,0.0,0.0,0.0,0.0,0.0,0.0,0.0,0.0,0.0,0.0,-1.5683,-1.5325,-1.4304,0.0,0.0,0.0,0.0,0.0,0.0,0.0,0.0,0.0,0.0,0.0,0.0,0.0,0.0,0.0,0.0,0.0,0.0,0.0,0.0,0.0,0.0,0.0,0.0,0.0,0.0,0.0,0.0,0.0,0.0,0.0,0.0,0.0,0.0,0.0,0.0,0.0,0.0,0.0,0.0,0.0,0.0,0.0,0.0,0.0,0.0,0.0,0.0,0.0,0.0,0.0,0.0,0.0,0.0,0.0,0.0,0.0,0.0,0.0,0.0,0.0,0.0,0.0,0.0,0.0,0.0,0.0,0.0,0.0,0.0,0.0,0.0,0.0,0.0,0.0,0.0,0.0,0.0,0.0,0.0,0.0,0.0,0.0,0.0,0.0,0.0,0.0,0.0,0.0,0.0,0.0,0.0,0.0,0.0,0.0,0.0,0.0,0.0,0.0,0.0,0.0,0.0,0.0,0.0,0.0,0.0,0.0,0.0,0.0,0.0,-1.6232,-1.986,-1.8734,0.0,-1.6836,0.0,0.0,0.0,0.0,0.0,0.0,0.0,0.0,0.0,0.0,0.0,0.0,0.0,0.0,0.0,0.0,0.0,0.0,0.0,0.0,0.0,0.0,0.0,0.0,0.0,0.0,0.0,0.0,0.0,0.0,0.0,0.0,0.0,0.0,0.0,0.0,0.0,0.0,0.0,0.0,0.0,0.0,0.0,0.0,0.0,0.0,0.0,0.0,0.0,0.0,0.0,0.0,0.0,0.0,0.0,0.0,0.0,0.0,0.0,0.0,0.0,0.0,0.0,0.0,0.0,0.0,0.0,0.0,0.0,0.0,0.0,0.0,0.0,0.0,0.0,0.0,0.0,0.0,0.0,0.0,0.0,0.0,0.0,0.0,0.0,0.0,0.0,0.0,0.0,0.0,0.0,0.0,0.0,0.0,0.0,0.0,0.0,0.0,0.0,0.0,0.0,0.0,0.0,0.0,0.0,0.0,0.0,0.0,0.0,0.0,-1.7312,-2.0294,-1.9349,-1.8324,0.0,0.0,0.0,0.0,0.0,0.0,0.0,0.0,0.0,0.0,0.0,0.0,0.0,0.0,0.0,0.0,0.0,0.0,0.0,0.0,0.0,0.0,0.0,0.0,0.0,0.0,0.0,0.0,0.0,0.0,0.0,0.0,0.0,0.0,0.0,0.0,0.0,0.0,0.0,0.0,0.0,0.0,0.0,0.0,0.0,0.0,0.0,0.0,0.0,0.0,0.0,0.0,0.0,0.0,0.0,0.0,0.0,0.0,0.0,0.0,0.0,0.0,0.0,0.0,0.0,0.0,0.0,0.0,0.0,0.0,0.0,0.0,0.0,0.0,0.0,0.0,0.0,0.0,0.0,0.0,0.0,0.0,0.0,0.0,0.0,0.0,0.0,0.0,0.0,0.0,0.0,0.0,0.0,0.0,0.0,0.0,0.0,0.0,0.0,0.0,0.0,0.0,0.0,0.0,0.0,0.0,0.0,0.0,0.0,0.0,-1.735,-1.876,-2.1284,-2.0415,-1.9229,-1.808,0.0,0.0,0.0,0.0,0.0,0.0,0.0,0.0,0.0,0.0,0.0,0.0,0.0,0.0,0.0,0.0,0.0,0.0,0.0,0.0,0.0,0.0,0.0,0.0,0.0,0.0,0.0,0.0,0.0,0.0,0.0,0.0,0.0,0.0,0.0,0.0,0.0,0.0,0.0,0.0,0.0,0.0,0.0,0.0,0.0,0.0,0.0,0.0,0.0,0.0,0.0,0.0,0.0,0.0,0.0,0.0,0.0,0.0,0.0,0.0,0.0,0.0,0.0,0.0,0.0,0.0,0.0,0.0,0.0,0.0,0.0,0.0,0.0,0.0,0.0,0.0,0.0,0.0,0.0,0.0,0.0,0.0,0.0,0.0,0.0,0.0,0.0,0.0,0.0,0.0,0.0,0.0,0.0,0.0,0.0,0.0,0.0,0.0,0.0,0.0,0.0,0.0,0.0,0.0,0.0,0.0,0.0,0.0,-2.0928,-1.9976,-2.1019,-2.4441,-2.2658,-2.1114,0.0,0.0,0.0,0.0,0.0,0.0,0.0,0.0,0.0,0.0,0.0,0.0,0.0,0.0,0.0,0.0,0.0,0.0,0.0,0.0,0.0,0.0,0.0,0.0,0.0,0.0,0.0,0.0,0.0,0.0,0.0,0.0,0.0,0.0,0.0,0.0,0.0,0.0,0.0,0.0,0.0,0.0,0.0,0.0,0.0,0.0,0.0,0.0,0.0,0.0,0.0,0.0,0.0,0.0,0.0,0.0,0.0,0.0,0.0,0.0,0.0,0.0,0.0,0.0,0.0,0.0,0.0,0.0,0.0,0.0,0.0,0.0,0.0,0.0,0.0,0.0,0.0,0.0,0.0,0.0,0.0,0.0,0.0,0.0,0.0,0.0,0.0,0.0,0.0,0.0,0.0,0.0,0.0,0.0,0.0,0.0,0.0,0.0,0.0,0.0,0.0,0.0,0.0,0.0,0.0,0.0,0.0,0.0,0.0,-1.9035,-2.1162,-2.3155,-2.4979,-2.2989,-2.1599,0.0,0.0,0.0,0.0,0.0,0.0,0.0,0.0,0.0,0.0,0.0,0.0,0.0,0.0,0.0,0.0,0.0,0.0,0.0,0.0,0.0,0.0,0.0,0.0,0.0,0.0,0.0,0.0,0.0,0.0,0.0,0.0,0.0,0.0,0.0,0.0,0.0,0.0,0.0,0.0,0.0,0.0,0.0,0.0,0.0,0.0,0.0,0.0,0.0,0.0,0.0,0.0,0.0,0.0,0.0,0.0,0.0,0.0,0.0,0.0,0.0,0.0,0.0,0.0,0.0,0.0,0.0,0.0,0.0,0.0,0.0,0.0,0.0,0.0,0.0,0.0,0.0,0.0,0.0,0.0,0.0,0.0,0.0,0.0,0.0,0.0,0.0,0.0,0.0,0.0,0.0,0.0,0.0,0.0,0.0,0.0,0.0,0.0,0.0,0.0,0.0,0.0,0.0,0.0,0.0,0.0,0.0,0.0,0.0,-2.0019,0.0,-2.5905,-2.5918,-2.388,-2.201,0.0,0.0,0.0,0.0,0.0,0.0,0.0,0.0,0.0,0.0,0.0,0.0,0.0,0.0,0.0,0.0,0.0,0.0,0.0,0.0,0.0,0.0,0.0,0.0,0.0,0.0,0.0,0.0,0.0,0.0,0.0,0.0,0.0,0.0,0.0,0.0,0.0,0.0,0.0,0.0,0.0,0.0,0.0,0.0,0.0,0.0,0.0,0.0,0.0,0.0,0.0,0.0,0.0,0.0,0.0,0.0,0.0,0.0,0.0,0.0,0.0,0.0,0.0,0.0,0.0,0.0,0.0,0.0,0.0,0.0,0.0,0.0,0.0,0.0,0.0,0.0,0.0,0.0,0.0,0.0,0.0,0.0,0.0,0.0,0.0,0.0,0.0,0.0,0.0,0.0,0.0,0.0,0.0,0.0,0.0,0.0,0.0,0.0,0.0,0.0,0.0,0.0,0.0,0.0,0.0,0.0,0.0,0.0,-1.82,-2.4415,-2.7997,-2.8958,-2.7581,-2.5517,-2.2461,0.0,0.0,0.0,0.0,0.0,0.0,0.0,0.0,0.0,0.0,0.0,0.0,0.0,0.0,0.0,0.0,0.0,0.0,0.0,0.0,0.0,0.0,0.0,0.0,0.0,0.0,0.0,0.0,0.0,0.0,0.0,0.0,0.0,0.0,0.0,0.0,0.0,0.0,0.0,0.0,0.0,0.0,0.0,0.0,0.0,0.0,0.0,0.0,0.0,0.0,0.0,0.0,0.0,0.0,0.0,0.0,0.0,0.0,0.0,0.0,0.0,0.0,0.0,0.0,0.0,0.0,0.0,0.0,0.0,0.0,0.0,0.0,0.0,0.0,0.0,0.0,0.0,0.0,0.0,0.0,0.0,0.0,0.0,0.0,0.0,0.0,0.0,0.0,0.0,0.0,0.0,0.0,0.0,0.0,0.0,0.0,0.0,0.0,0.0,0.0,0.0,0.0,0.0,0.0,0.0,0.0,0.0,0.0,0.0,-2.3282,-2.5808,-2.8186,-3.013,-2.5921,-2.3452,0.0,0.0,0.0,0.0,0.0,0.0,0.0,0.0,0.0,0.0,0.0,0.0,0.0,0.0,0.0,0.0,0.0,0.0,0.0,0.0,0.0,0.0,0.0,0.0,0.0,0.0,0.0,0.0,0.0,0.0,0.0,0.0,0.0,0.0,0.0,0.0,0.0,0.0,0.0,0.0,0.0,0.0,0.0,0.0,0.0,0.0,0.0,0.0,0.0,0.0,0.0,0.0,0.0,0.0,0.0,0.0,0.0,0.0,0.0,0.0,0.0,0.0,0.0,0.0,0.0,0.0,0.0,0.0,0.0,0.0,0.0,0.0,0.0,0.0,0.0,0.0,0.0,0.0,0.0,0.0,0.0,0.0,0.0,0.0,0.0,0.0,0.0,0.0,0.0,0.0,0.0,0.0,0.0,0.0,0.0,0.0,0.0,0.0,0.0,0.0,0.0,0.0,0.0,0.0,0.0,0.0,0.0,0.0,0.0,-2.5179,-2.8072,-3.022,-3.148,-2.758,-2.4869,-2.3531,0.0,0.0,0.0,0.0,0.0,0.0,0.0,0.0,0.0,0.0,0.0,0.0,0.0,0.0,0.0,0.0,0.0,0.0,0.0,0.0,0.0,0.0,0.0,0.0,0.0,0.0,0.0,0.0,0.0,0.0,0.0,0.0,0.0,0.0,0.0,0.0,0.0,0.0,0.0,0.0,0.0,0.0,0.0,0.0,0.0,0.0,0.0,0.0,0.0,0.0,0.0,0.0,0.0,0.0,0.0,0.0,0.0,0.0,0.0,0.0,0.0,0.0,0.0,0.0,0.0,0.0,0.0,0.0,0.0,0.0,0.0,0.0,0.0,0.0,0.0,0.0,0.0,0.0,0.0,0.0,0.0,0.0,0.0,0.0,0.0,0.0,0.0,0.0,0.0,0.0,0.0,0.0,0.0,0.0,0.0,0.0,0.0,0.0,0.0,0.0,0.0,0.0,0.0,0.0,0.0,0.0,0.0,0.0,-2.9305,-3.3872,-3.4655,-3.1577,-3.0128,-2.6629,0.0,0.0,0.0,0.0,0.0,0.0,0.0,0.0,0.0,0.0,0.0,0.0,0.0,0.0,0.0,0.0,0.0,0.0,0.0,0.0,0.0,0.0,0.0,0.0,0.0,0.0,0.0,0.0,0.0,0.0,0.0,0.0,0.0,0.0,0.0,0.0,0.0,0.0,0.0,0.0,0.0,0.0,0.0,0.0,0.0,0.0,0.0,0.0,0.0,0.0,0.0,0.0,0.0,0.0,0.0,0.0,0.0,0.0,0.0,0.0,0.0,0.0,0.0,0.0,0.0,0.0,0.0,0.0,0.0,0.0,0.0,0.0,0.0,0.0,0.0,0.0,0.0,0.0,0.0,0.0,0.0,0.0,0.0,0.0,0.0,0.0,0.0,0.0,0.0,0.0,0.0,0.0,0.0,0.0,0.0,0.0,0.0,0.0,0.0,0.0,0.0,0.0,0.0,0.0,0.0,0.0,0.0,0.0,0.0,-3.1299,-3.6336,-3.7568,-3.4507,-3.0936,-2.766,0.0,0.0,0.0,0.0,0.0,0.0,0.0,0.0,0.0,0.0,0.0,0.0,0.0,0.0,0.0,0.0,0.0,0.0,0.0,0.0,0.0,0.0,0.0,0.0,0.0,0.0,0.0,0.0,0.0,0.0,0.0,0.0,0.0,0.0,0.0,0.0,0.0,0.0,0.0,0.0,0.0,0.0,0.0,0.0,0.0,0.0,0.0,0.0,0.0,0.0,0.0,0.0,0.0,0.0,0.0,0.0,0.0,0.0,0.0,0.0,0.0,0.0,0.0,0.0,0.0,0.0,0.0,0.0,0.0,0.0,0.0,0.0,0.0,0.0,0.0,0.0,0.0,0.0,0.0,0.0,0.0,0.0,0.0,0.0,0.0,0.0,0.0,0.0,0.0,0.0,0.0,0.0,0.0,0.0,0.0,0.0,0.0,0.0,0.0,0.0,0.0,0.0,0.0,0.0,0.0,0.0,0.0,0.0,-2.9505,-3.2514,-3.7327,-3.886,-3.6816,-3.4149,-3.0258,0.0,0.0,0.0,0.0,0.0,0.0,0.0,0.0,0.0,0.0,0.0,0.0,0.0,0.0,0.0,0.0,0.0,0.0,0.0,0.0,0.0,0.0,0.0,0.0,0.0,0.0,0.0,0.0,0.0,0.0,0.0,0.0,0.0,0.0,0.0,0.0,0.0,0.0,0.0,0.0,0.0,0.0,0.0,0.0,0.0,0.0,0.0,0.0,0.0,0.0,0.0,0.0,0.0,0.0,0.0,0.0,0.0,0.0,0.0,0.0,0.0,0.0,0.0,0.0,0.0,0.0,0.0,0.0,0.0,0.0,0.0,0.0,0.0,0.0,0.0,0.0,0.0,0.0,0.0,0.0,0.0,0.0,0.0,0.0,0.0,0.0,0.0,0.0,0.0,0.0,0.0,0.0,0.0,0.0,0.0,0.0,0.0,0.0,0.0,0.0,0.0,0.0,0.0,0.0,0.0,0.0,0.0,0.0,-3.0114,-3.3287,-3.7408,-3.9154,-3.8318,-3.7679,-3.308,0.0,0.0,0.0,0.0,0.0,0.0,0.0,0.0,0.0,0.0,0.0,0.0,0.0,0.0,0.0,0.0,0.0,0.0,0.0,0.0,0.0,0.0,0.0,0.0,0.0,0.0,0.0,0.0,0.0,0.0,0.0,0.0,0.0,0.0,0.0,0.0,0.0,0.0,0.0,0.0,0.0,0.0,0.0,0.0,0.0,0.0,0.0,0.0,0.0,0.0,0.0,0.0,0.0,0.0,0.0,0.0,0.0,0.0,0.0,0.0,0.0,0.0,0.0,0.0,0.0,0.0,0.0,0.0,0.0,0.0,0.0,0.0,0.0,0.0,0.0,0.0,0.0,0.0,0.0,0.0,0.0,0.0,0.0,0.0,0.0,0.0,0.0,0.0,0.0,0.0,0.0,0.0,0.0,0.0,0.0,0.0,0.0,0.0,0.0,0.0,0.0,0.0,0.0,0.0,0.0,0.0,0.0,0.0,-3.1507,-3.3319,-3.7815,-3.9418,-3.7654,-3.4924,-3.1272,0.0,0.0,0.0,0.0,0.0,0.0,0.0,0.0,0.0,0.0,0.0,0.0,0.0,0.0,0.0,0.0,0.0,0.0,0.0,0.0,0.0,0.0,0.0,0.0,0.0,0.0,0.0,0.0,0.0,0.0,0.0,0.0,0.0,0.0,0.0,0.0,0.0,0.0,0.0,0.0,0.0,0.0,0.0,0.0,0.0,0.0,0.0,0.0,-1.9269,0.0,0.0,0.0,0.0,0.0,0.0,0.0,0.0,0.0,0.0,0.0,0.0,0.0,0.0,0.0,0.0,0.0,0.0,0.0,0.0,0.0,0.0,0.0,0.0,0.0,0.0,0.0,0.0,0.0,0.0,0.0,0.0,0.0,0.0,0.0,0.0,0.0,0.0,0.0,0.0,0.0,0.0,0.0,0.0,0.0,0.0,0.0,0.0,0.0,0.0,0.0,0.0,0.0,0.0,0.0,0.0,0.0,0.0,0.0,-3.2316,-3.4326,-3.7692,-3.9157,-3.8294,-3.5107,-3.1197,0.0,0.0,0.0,0.0,0.0,0.0,0.0,0.0,0.0,0.0,0.0,0.0,0.0,0.0,0.0,0.0,0.0,0.0,0.0,0.0,0.0,0.0,0.0,0.0,0.0,0.0,0.0,0.0,0.0,0.0,0.0,0.0,0.0,0.0,0.0,0.0,0.0,0.0,0.0,0.0,0.0,0.0,0.0,0.0,0.0,0.0,0.0,0.0,0.0,0.0,0.0,0.0,0.0,0.0,0.0,0.0,0.0,0.0,0.0,0.0,0.0,0.0,0.0,0.0,0.0,0.0,0.0,0.0,0.0,0.0,0.0,0.0,0.0,0.0,0.0,0.0,0.0,0.0,0.0,0.0,0.0,0.0,0.0,0.0,0.0,0.0,0.0,0.0,0.0,0.0,0.0,0.0,0.0,0.0,0.0,0.0,0.0,0.0,0.0,0.0,0.0,0.0,0.0,0.0,0.0,0.0,0.0,-2.9504,-3.2613,-3.5414,-3.7461,-3.8785,-3.9293,-3.6292,-3.2173,-2.6962,0.0,0.0,0.0,0.0,0.0,0.0,0.0,0.0,0.0,0.0,0.0,0.0,0.0,0.0,0.0,0.0,0.0,0.0,0.0,0.0,0.0,0.0,0.0,0.0,0.0,0.0,0.0,0.0,0.0,0.0,0.0,0.0,0.0,0.0,0.0,0.0,0.0,0.0,-1.569,-1.5972,0.0,0.0,0.0,0.0,0.0,0.0,0.0,0.0,-2.0565,0.0,0.0,0.0,0.0,0.0,0.0,0.0,0.0,0.0,0.0,0.0,0.0,0.0,0.0,0.0,0.0,0.0,0.0,0.0,0.0,0.0,0.0,0.0,0.0,0.0,0.0,0.0,0.0,0.0,0.0,0.0,0.0,0.0,0.0,0.0,0.0,0.0,0.0,0.0,0.0,0.0,0.0,0.0,0.0,0.0,0.0,0.0,0.0,0.0,0.0,0.0,0.0,0.0,0.0,0.0,0.0,-2.9504,-3.0243,-3.2167,-3.5414,-3.7461,-3.8554,-3.8616,-3.6492,-3.3567,-2.9705,0.0,0.0,0.0,0.0,0.0,0.0,0.0,0.0,0.0,0.0,0.0,0.0,0.0,0.0,0.0,0.0,0.0,0.0,0.0,0.0,0.0,0.0,0.0,0.0,0.0,0.0,0.0,0.0,0.0,0.0,0.0,0.0,0.0,0.0,0.0,0.0,0.0,0.0,0.0,-1.6591,-1.7088,0.0,0.0,0.0,0.0,0.0,0.0,0.0,0.0,-2.0774,0.0,0.0,0.0,0.0,0.0,0.0,0.0,0.0,0.0,0.0,0.0,0.0,0.0,0.0,0.0,0.0,0.0,0.0,0.0,0.0,0.0,0.0,0.0,0.0,0.0,0.0,0.0,0.0,0.0,0.0,0.0,0.0,0.0,0.0,0.0,0.0,0.0,0.0,0.0,0.0,0.0,0.0,0.0,0.0,0.0,0.0,0.0,0.0,0.0,0.0,0.0,0.0,0.0,0.0,0.0,-2.9607,-3.092,-3.2921,-3.5907,-3.7307,-3.7815,-3.743,-3.5476,-3.2829,0.0,0.0,0.0,0.0,0.0,0.0,0.0,0.0,0.0,0.0,0.0,0.0,0.0,0.0,0.0,0.0,0.0,0.0,0.0,0.0,0.0,0.0,0.0,0.0,0.0,0.0,0.0,0.0,0.0,0.0,0.0,0.0,0.0,0.0,0.0,0.0,0.0,0.0,0.0,0.0,-1.7662,-1.8453,-1.8473,0.0,0.0,0.0,0.0,0.0,0.0,-2.0536,-2.0401,0.0,0.0,0.0,0.0,0.0,0.0,0.0,0.0,0.0,0.0,0.0,0.0,0.0,0.0,0.0,0.0,0.0,0.0,0.0,0.0,0.0,0.0,0.0,0.0,0.0,0.0,0.0,0.0,0.0,0.0,0.0,0.0,0.0,0.0,0.0,0.0,0.0,0.0,0.0,0.0,0.0,0.0,0.0,0.0,0.0,0.0,0.0,0.0,0.0,0.0,0.0,0.0,0.0,0.0,0.0,-2.9154,-3.119,-3.3521,-3.6168,-3.6953,-3.7092,-3.6661,-3.4429,-3.1805,0.0,0.0,0.0,0.0,0.0,0.0,0.0,0.0,0.0,0.0,0.0,0.0,0.0,0.0,0.0,0.0,0.0,0.0,0.0,0.0,0.0,0.0,0.0,0.0,0.0,0.0,0.0,0.0,0.0,0.0,0.0,0.0,0.0,0.0,0.0,0.0,0.0,0.0,0.0,0.0,0.0,-1.9692,-1.8973,-1.996,0.0,0.0,0.0,0.0,-2.0614,-2.0464,0.0,0.0,0.0,0.0,0.0,0.0,0.0,0.0,0.0,0.0,0.0,0.0,0.0,0.0,0.0,0.0,0.0,0.0,0.0,0.0,0.0,0.0,0.0,0.0,0.0,0.0,0.0,0.0,0.0,0.0,0.0,0.0,0.0,0.0,0.0,0.0,0.0,0.0,0.0,0.0,0.0,0.0,0.0,0.0,0.0,0.0,0.0,0.0,0.0,0.0,0.0,0.0,0.0,0.0,0.0,0.0,-2.8634,-3.0571,-3.2829,-3.546,-3.6245,-3.6861,-3.7323,-3.4214,-3.1879,0.0,0.0,0.0,0.0,0.0,0.0,0.0,0.0,0.0,0.0,0.0,0.0,0.0,0.0,0.0,0.0,0.0,0.0,0.0,0.0,0.0,0.0,0.0,0.0,0.0,0.0,0.0,0.0,0.0,0.0,0.0,0.0,0.0,0.0,0.0,0.0,0.0,0.0,0.0,0.0,0.0,-2.0121,-1.9108,-2.0379,-2.1024,0.0,0.0,-2.1129,-2.0781,-2.143,0.0,0.0,0.0,0.0,0.0,0.0,0.0,0.0,0.0,0.0,0.0,0.0,0.0,0.0,0.0,0.0,0.0,0.0,0.0,0.0,0.0,0.0,0.0,0.0,0.0,0.0,0.0,0.0,0.0,0.0,0.0,0.0,0.0,0.0,0.0,0.0,0.0,0.0,0.0,0.0,0.0,0.0,0.0,0.0,0.0,0.0,0.0,0.0,0.0,0.0,0.0,0.0,0.0,0.0,0.0,-2.4195,-2.8056,-2.9609,-3.167,-3.4228,-3.4668,-3.4574,-3.408,-3.163,-2.9704,0.0,0.0,0.0,0.0,0.0,0.0,0.0,0.0,0.0,0.0,0.0,0.0,0.0,0.0,0.0,0.0,0.0,0.0,0.0,0.0,0.0,0.0,0.0,0.0,0.0,0.0,0.0,0.0,0.0,0.0,0.0,0.0,0.0,0.0,0.0,0.0,0.0,0.0,0.0,0.0,0.0,0.0,-1.9233,-2.0711,0.0,0.0,0.0,-2.0828,-2.0263,0.0,0.0,0.0,0.0,0.0,0.0,0.0,0.0,0.0,0.0,0.0,0.0,0.0,0.0,0.0,0.0,0.0,0.0,0.0,0.0,0.0,0.0,0.0,0.0,0.0,0.0,0.0,0.0,0.0,0.0,0.0,0.0,0.0,0.0,0.0,0.0,0.0,0.0,0.0,0.0,0.0,0.0,0.0,0.0,0.0,0.0,0.0,0.0,0.0,0.0,0.0,0.0,0.0,0.0,0.0,0.0,0.0,-2.7045,-2.8609,-3.0529,-3.2852,-3.3002,-3.2608,-3.1733,-2.9448,0.0,0.0,0.0,0.0,0.0,0.0,0.0,0.0,0.0,0.0,0.0,0.0,0.0,0.0,0.0,0.0,0.0,0.0,0.0,0.0,0.0,0.0,0.0,0.0,0.0,0.0,0.0,-1.3755,0.0,0.0,0.0,0.0,0.0,0.0,0.0,0.0,0.0,0.0,0.0,0.0,0.0,0.0,-2.1309,-1.9653,-2.1051,-2.182,0.0,0.0,-2.0514,-2.0087,-2.0501,-2.0627,0.0,0.0,0.0,0.0,0.0,0.0,0.0,0.0,0.0,0.0,0.0,0.0,0.0,0.0,0.0,0.0,0.0,0.0,0.0,0.0,0.0,0.0,0.0,0.0,0.0,0.0,0.0,0.0,0.0,0.0,0.0,0.0,0.0,0.0,0.0,0.0,0.0,0.0,0.0,0.0,0.0,0.0,0.0,0.0,0.0,0.0,0.0,0.0,0.0,0.0,0.0,0.0,0.0,0.0,0.0,-2.5251,-2.757,-2.9697,-3.1562,-3.1649,-3.1864,-3.2329,-2.8766,-2.6837,0.0,0.0,0.0,0.0,0.0,0.0,0.0,0.0,0.0,0.0,0.0,0.0,0.0,0.0,0.0,0.0,0.0,0.0,0.0,0.0,0.0,0.0,0.0,0.0,0.0,0.0,0.0,0.0,0.0,0.0,0.0,0.0,0.0,0.0,0.0,0.0,0.0,0.0,0.0,0.0,0.0,-2.0906,-2.0644,-2.1581,-2.2083,0.0,0.0,-2.0706,-2.0614,-2.1066,-2.1054,-1.9987,0.0,0.0,0.0,0.0,0.0,0.0,0.0,0.0,0.0,0.0,0.0,0.0,0.0,0.0,0.0,0.0,0.0,0.0,0.0,0.0,0.0,0.0,0.0,0.0,0.0,0.0,0.0,0.0,0.0,0.0,0.0,0.0,0.0,0.0,0.0,0.0,0.0,0.0,0.0,0.0,0.0,0.0,0.0,0.0,0.0,0.0,0.0,0.0,0.0,0.0,0.0,0.0,0.0,-2.1899,-2.3985,-2.5937,-2.7891,-2.9693,-3.0107,-3.0185,-3.0135,-2.7612,-2.6059,0.0,0.0,0.0,0.0,0.0,0.0,0.0,0.0,0.0,0.0,0.0,0.0,0.0,0.0,0.0,0.0,0.0,0.0,0.0,0.0,0.0,0.0,0.0,0.0,0.0,0.0,0.0,0.0,-1.4624,-1.4614,-1.4345,0.0,0.0,0.0,0.0,0.0,0.0,0.0,0.0,0.0,0.0,-1.9936,-1.9574,-2.0507,0.0,0.0,-2.0531,-2.0592,-2.0188,-2.0614,-2.0619,-1.9466,-1.9763,0.0,0.0,0.0,0.0,0.0,0.0,0.0,0.0,0.0,0.0,0.0,0.0,0.0,0.0,0.0,0.0,0.0,0.0,0.0,0.0,0.0,0.0,0.0,0.0,0.0,0.0,0.0,0.0,0.0,0.0,0.0,0.0,0.0,0.0,0.0,0.0,0.0,0.0,0.0,0.0,0.0,0.0,0.0,0.0,0.0,0.0,0.0,0.0,0.0,0.0,0.0,0.0,-2.1184,-2.2986,-2.471,-2.653,-2.8391,-2.8747,-2.8864,-2.8583,-2.671,-2.5481,0.0,0.0,0.0,0.0,0.0,0.0,0.0,0.0,0.0,0.0,0.0,0.0,0.0,0.0,0.0,0.0,0.0,0.0,0.0,0.0,0.0,0.0,0.0,0.0,0.0,0.0,0.0,0.0,-1.4997,-1.4873,-1.4542,0.0,0.0,0.0,0.0,0.0,0.0,0.0,0.0,0.0,0.0,-1.9193,-1.8862,-1.9516,-2.0022,-1.9989,-2.0074,-2.0113,-1.9825,-2.0039,-1.9838,-1.8875,0.0,0.0,0.0,0.0,0.0,0.0,0.0,0.0,0.0,0.0,0.0,0.0,0.0,0.0,0.0,0.0,0.0,0.0,0.0,0.0,0.0,0.0,0.0,0.0,0.0,0.0,0.0,0.0,0.0,0.0,-1.6522,0.0,0.0,0.0,0.0,0.0,0.0,0.0,0.0,0.0,0.0,0.0,0.0,0.0,0.0,0.0,0.0,0.0,0.0,0.0,0.0,0.0,0.0,-2.0582,-2.2355,-2.4096,-2.5887,-2.7672,-2.7705,-2.799,-2.8478,-2.6267,-2.4935,-2.4711,0.0,0.0,0.0,0.0,0.0,0.0,0.0,0.0,0.0,0.0,0.0,0.0,0.0,0.0,0.0,0.0,0.0,0.0,0.0,0.0,0.0,0.0,0.0,0.0,0.0,0.0,-1.4976,-1.4987,-1.4987,0.0,0.0,0.0,0.0,0.0,0.0,0.0,0.0,0.0,0.0,-1.8408,-1.8656,-1.8817,-1.8918,-1.933,-2.0337,-1.9703,-1.9233,-1.9703,-1.939,-1.8827,0.0,0.0,0.0,0.0,0.0,0.0,0.0,0.0,0.0,0.0,0.0,0.0,0.0,0.0,0.0,0.0,0.0,0.0,0.0,0.0,0.0,0.0,0.0,0.0,0.0,0.0,0.0,-1.7953,-1.7124,0.0,0.0,0.0,0.0,0.0,0.0,0.0,0.0,0.0,0.0,0.0,-2.0912,-2.1464,0.0,0.0,0.0,0.0,0.0,0.0,0.0,0.0,0.0,0.0,0.0,0.0,-2.0555,-2.2264,-2.3702,-2.51,-2.6457,-2.6904,-2.7216,-2.7393,-2.586,-2.4149,-2.2414,0.0,0.0,0.0,0.0,0.0,0.0,0.0,0.0,0.0,0.0,0.0,0.0,0.0,0.0,0.0,0.0,0.0,0.0,0.0,0.0,0.0,0.0,0.0,0.0,0.0,-1.5091,0.0,0.0,0.0,0.0,0.0,0.0,0.0,0.0,0.0,0.0,0.0,-1.629,-1.6888,-1.7291,-1.7541,-1.7616,-1.7991,-1.8382,0.0,0.0,0.0,0.0,0.0,0.0,0.0,0.0,0.0,0.0,0.0,0.0,0.0,0.0,-1.6864,-1.6637,-1.6522,-1.6304,-1.5899,0.0,0.0,0.0,0.0,0.0,0.0,0.0,0.0,0.0,0.0,0.0,0.0,0.0,0.0,-1.8631,0.0,-1.7752,0.0,0.0,0.0,0.0,0.0,0.0,0.0,0.0,-2.129,-2.1782,-2.1625,-2.2164,-2.2338,0.0,-2.1675,-2.1101,0.0,0.0,0.0,0.0,0.0,0.0,0.0,0.0,-2.065,-2.1993,-2.339,-2.4693,-2.5846,-2.628,-2.6497,-2.647,-2.5331,-2.3703,-2.1605,-2.0751,-1.9693,0.0,0.0,0.0,0.0,0.0,0.0,0.0,0.0,0.0,0.0,0.0,0.0,0.0,0.0,0.0,0.0,0.0,0.0,0.0,0.0,0.0,0.0,0.0,-1.5258,0.0,0.0,0.0,0.0,0.0,0.0,0.0,0.0,0.0,-1.6374,-1.6374,-1.6436,-1.6581,-1.6726,-1.687,-1.6966,0.0,0.0,0.0,0.0,0.0,0.0,0.0,-1.7801,-1.7032,-1.7234,-1.7234,-1.6545,-1.6374,-1.6436,-1.6591,0.0,0.0,-1.6415,-1.6325,-1.6184,-1.6056,-1.5979,-1.579,-1.5438,-1.5568,-1.5568,0.0,0.0,0.0,0.0,0.0,0.0,0.0,0.0,-1.9158,-1.9071,0.0,-1.8505,0.0,0.0,0.0,0.0,0.0,-1.998,0.0,0.0,-2.2277,-2.2656,-2.2178,-2.2321,-2.2437,-2.2637,-2.2428,-2.2128,-2.1704,-1.9833,0.0,0.0,0.0,0.0,0.0,0.0,-2.0793,-2.1545,-2.3189,-2.4679,-2.5792,-2.5833,-2.5833,-2.5805,-2.4679,-2.3432,-2.2332,-2.0925,-1.9607,-1.8435,-1.7652,0.0,0.0,0.0,0.0,0.0,0.0,0.0,0.0,0.0,0.0,0.0,0.0,0.0,0.0,0.0,0.0,0.0,0.0,0.0,0.0,-1.5437,0.0,0.0,0.0,0.0,0.0,0.0,0.0,0.0,0.0,0.0,-1.6405,-1.6405,-1.657,-1.6946,0.0,0.0,0.0,0.0,-1.6749,-1.772,-1.7843,-1.7832,-1.7832,-1.7843,-1.7517,-1.655,0.0,0.0,-1.6374,-1.6374,-1.6519,-1.6873,-1.6915,-1.6822,-1.6446,-1.6148,-1.5943,-1.5953,-1.5717,-1.5661,-1.6027,-1.5606,-1.5359,-2.5154,0.0,0.0,0.0,0.0,-2.1004,-2.1142,-2.1343,-2.0953,-2.0577,-2.0162,-1.9585,0.0,0.0,0.0,0.0,0.0,0.0,-2.1212,-2.1931,-2.3382,-2.4249,-2.4704,-2.4568,-2.4418,-2.4253,-2.3164,-2.2487,-2.2092,-2.0737,-2.0324,-2.0894,0.0,0.0,0.0,0.0,-2.1199,-2.2685,-2.3595,-2.4489,-2.5249,-2.4842,-2.4625,-2.4611,-2.3192,-2.2324,-2.2194,-2.0682,-1.939,-1.8389,-1.8077,0.0,0.0,0.0,0.0,0.0,0.0,0.0,0.0,0.0,0.0,0.0,0.0,0.0,0.0,0.0,0.0,0.0,0.0,0.0,-1.5488,-1.6116,-1.6189,0.0,0.0,0.0,0.0,0.0,0.0,0.0,0.0,0.0,-1.6739,-1.685,-1.6966,0.0,0.0,-1.6901,-1.6966,-1.6663,-1.654,-1.677,-1.6848,0.0,-1.6838,-1.6838,-1.6749,-1.6462,-1.6374,-1.6374,-1.6374,-1.6374,-1.6415,-1.656,-1.657,-1.6519,-1.6399,-1.6377,-1.6393,-1.636,-1.5735,-1.516,-1.5065,-1.5069,-1.5016,-2.8201,-2.6004,-2.3309,-2.2133,-2.2121,-2.1907,-2.1995,-2.2272,-2.1719,-2.1418,-2.128,-2.0715,-1.9987,-1.9158,-1.8731,0.0,0.0,0.0,-2.1229,-2.1975,-2.2965,-2.383,-2.4547,-2.4511,-2.445,-2.4337,-2.3151,-2.2592,-2.2579,-2.1109,-2.0842,-2.1722,0.0,0.0,-2.1382,-2.1094,-2.1586,-2.2871,-2.3541,-2.4117,-2.4681,-2.4081,-2.3784,-2.3795,-2.2485,-2.1719,-2.1758,-2.0383,-1.923,-1.8216,-1.7945,-1.737,0.0,0.0,0.0,0.0,0.0,0.0,0.0,0.0,0.0,0.0,0.0,-1.4591,-1.4395,0.0,0.0,0.0,-1.5269,-1.5567,-1.5763,-1.6256,0.0,0.0,0.0,0.0,0.0,0.0,0.0,-1.5768,-1.5836,-1.6113,-1.6866,-1.6987,-1.7162,-1.7606,-1.7181,-1.6839,-1.6966,0.0,-1.6446,-1.6622,-1.6643,-1.6643,-1.6643,-1.6643,-1.6591,-1.6405,-1.6374,-1.6374,-1.6374,-1.6202,-1.608,-1.6173,-1.6038,-1.597,-1.6148,-1.6038,-1.5907,-1.5892,-1.5178,-1.4513,-1.4459,-1.4453,-1.4311,-3.104,-2.9238,-2.5161,-2.3351,-2.3165,-2.2723,-2.2485,-2.241,-2.1907,-2.1945,-2.2334,-2.1845,-2.1267,-2.0655,-1.956,0.0,-1.9852,-2.0424,-2.097,-2.1485,-2.1815,-2.2242,-2.2796,-2.2979,-2.3159,-2.3434,-2.2539,-2.2436,-2.2829,-2.1198,-2.0936,-2.2082,-2.1048,-2.0826,-2.1326,-2.1531,-2.1904,-2.2469,-2.3129,-2.3725,-2.4178,-2.3474,-2.3152,-2.336,-2.2168,-2.1394,-2.1093,-2.0089,-1.902,-1.8037,-1.7464,-1.6569,-1.5278,0.0,0.0,0.0,0.0,0.0,0.0,0.0,0.0,0.0,0.0,0.0,0.0,0.0,0.0,0.0,-1.4974,0.0,-1.5913,-1.6074,0.0,0.0,0.0,-1.5561,-1.5673,-1.5472,-1.5536,-1.6192,0.0,0.0,-1.6806,-1.6827,-1.697,-1.7492,-1.6904,-1.6581,-1.6915,-1.6663,-1.6519,-1.6881,-1.6915,-1.6915,-1.6891,-1.6912,-1.6788,-1.6503,-1.6374,-1.6374,-1.6374,-1.5826,-1.5645,-1.5939,-1.5501,-1.5155,-1.5614,-1.5113,-1.4637,-1.4835,-1.4187,-1.3735,-1.4156,-1.3793,-1.3513,-3.171,-3.0186,-2.7617,-2.5743,-2.4355,-2.428,-2.3991,-2.3602,-2.3452,-2.3226,-2.2865,-2.2799,-2.197,-2.068,-1.9936,-1.9661,-1.9864,-2.0766,-2.1515,-2.2133,-2.3003,-2.3501,-2.3708,-2.2984,-2.2678,-2.2764,-2.214,-2.172,-2.151,-2.1368,-2.1132,-2.0706,-2.0784,-2.091,-2.0961,-2.1471,-2.1879,-2.2021,-2.3398,-2.3894,-2.3434,-2.255,-2.2087,-2.2102,-2.0784,-2.0422,-2.1027,-1.948,-1.84,-1.8012,-1.7245,-1.6457,-1.5703,-1.5412,0.0,0.0,0.0,0.0,0.0,0.0,0.0,0.0,0.0,-1.4897,-1.4452,0.0,-1.5687,0.0,-1.6262,-1.6809,-1.6918,-1.6751,0.0,0.0,-1.6285,-1.5979,-1.5514,-1.5002,-1.4765,-1.4951,-1.4529,-1.4556,-1.544,-1.5283,-1.5425,-1.6335,-1.6717,-1.6863,-1.6966,-1.6674,-1.6415,-1.6519,-1.655,-1.6529,-1.655,-1.6539,-1.6508,-1.6405,-1.6374,-1.6374,-1.6384,-1.5836,-1.5439,-1.5488,-1.5093,-1.4713,-1.4763,-1.4267,-1.3829,-1.3813,-1.3517,-1.3355,-1.3719,-1.3459,-1.3282,-3.2416,-3.0957,-2.9477,-2.7784,-2.596,-2.4912,-2.4431,-2.433,-2.3828,-2.3577,-2.3477,-2.2736,-2.1882,-2.1046,-2.0162,-1.9798,-1.9862,-2.0646,-2.1215,-2.1559,-2.2228,-2.2706,-2.3008,-2.2363,-2.2113,-2.2079,-2.1588,-2.1287,-2.117,-2.0726,-2.05,-2.0604,-2.0489,-2.0529,-2.063,-2.1247,-2.1579,-2.1635,-2.2514,-2.2994,-2.3014,-2.197,-2.1329,-2.1158,-2.0164,-1.9577,-1.9626,-1.8506,-1.7677,-1.7253,-1.6811,-1.6279,-1.5556,-1.5418,-1.5359,0.0,0.0,0.0,0.0,0.0,0.0,0.0,0.0,0.0,0.0,0.0,-1.5959,-1.6437,-1.6754,-1.6906,-1.6775,-1.6513,-1.6275,-1.5921,-1.541,-1.5059,-1.4991,-1.441,-1.424,-1.4703,-1.4318,-1.4054,-1.4457,-1.4519,-1.4731,-1.5324,-1.5652,-1.6078,-1.6609,-1.6529,-1.6374,-1.6374,-1.6374,-1.6374,-1.6374,-1.6374,-1.6374,-1.6374,-1.6374,-1.6374,-1.6374,-1.5594,-1.5001,-1.4942,-1.4282,-1.364,-1.364,-1.339,-1.3094,-1.3058,-1.2951,-1.2972,-1.3084,-1.3044,-1.2925,-3.3013,-3.1367,-3.0488,-2.9079,-2.7215,-2.4993,-2.4318,-2.4772,-2.3753,-2.3602,-2.3891,-2.2234,-2.1531,-2.1506,-2.0338,-1.9888,-2.0054,-2.0485,-2.0709,-2.0696,-2.0944,-2.1223,-2.1534,-2.1548,-2.1432,-2.1292,-2.1002,-2.1015,-2.1237,-1.9853,-1.9793,-2.0894,-2.0214,-2.0074,-2.034,-2.0934,-2.1287,-2.1387,-2.1263,-2.1637,-2.2557,-2.1488,-2.0752,-2.0395,-1.9738,-1.8934,-1.7871,-1.7398,-1.6917,-1.6255,-1.6241,-1.5867,-1.5039,-1.5418,-1.5263,0.0,-1.443,0.0,0.0,0.0,0.0,0.0,0.0,0.0,0.0,-1.5796,-1.6295,-1.7202,-1.6874,-1.6493,-1.626,-1.6093,-1.569,-1.4904,-1.4154,-1.3932,-1.441,-1.3923,-1.3838,-1.4818,-1.4515,-1.4076,-1.3725,-1.3999,-1.4231,-1.4378,-1.4446,-1.4871,-1.5914,-1.6144,-1.6192,-1.6192,-1.6202,-1.6192,-1.6374,-1.6374,-1.6374,-1.6316,-1.6202,-1.6259,-1.6077,-1.5118,-1.435,-1.4291,-1.3459,-1.2683,-1.2621,-1.2621,-1.2621,-1.2621,-1.2645,-1.2591,-1.2607,-1.2607,-1.2482,-3.2582,-3.0292,-2.9435,-2.7894,-2.6013,-2.4636,-2.4377,-2.4861,-2.457,-2.4305,-2.3879,-2.2221,-2.1744,-2.2008,-2.0514,-2.0309,-2.1121,-2.1206,-2.1224,-2.1286,-2.2109,-2.1835,-2.0729,-2.0967,-2.0811,-2.03,-2.0474,-2.0407,-2.0134,-2.02,-2.0151,-2.0055,-2.0282,-2.0294,-1.9963,0.0,0.0,0.0,-2.1033,-2.084,-2.1347,-2.0418,-1.987,-1.9753,-1.8924,0.0,-1.7824,-1.6776,-1.5998,-1.5665,-1.5093,0.0,0.0,0.0,0.0,0.0,0.0,0.0,0.0,0.0,0.0,0.0,-1.5334,-1.5148,-1.5258,-1.5946,-1.6634,-1.7202,-1.7191,-1.7047,-1.6877,-1.6684,-1.6332,-1.5555,-1.5157,-1.4942,-1.4529,-1.3855,-1.358,-1.3769,-1.3277,-1.2903,-1.2862,-1.2911,-1.3147,-1.3614,-1.3683,-1.3992,-1.4706,-1.5294,-1.542,-1.5001,-1.5362,-1.5836,-1.6316,-1.6374,-1.6134,-1.5778,-1.5594,-1.5391,-1.4963,-1.4255,-1.3674,-1.3657,-1.3094,-1.2613,-1.2613,-1.2621,-1.2605,-1.2621,-1.2482,-1.2367,-1.2367,-1.2359,-1.2227,-3.2279,0.0,-2.9145,-2.7982,0.0,-2.5764,-2.553,-2.5684,-2.451,-2.369,-2.3075,-2.1694,-2.123,-2.143,-2.0563,-2.045,-2.1041,-2.158,-2.167,-2.1417,-2.1874,-2.1431,-2.0295,-2.0156,-1.991,-1.9504,-1.9653,-1.9653,-1.9438,-1.9653,-1.9653,-1.9396,-1.9672,-1.9805,-1.9805,-2.0598,-2.1124,-2.1391,-2.0269,-1.9949,-2.0387,-1.9679,-1.9291,-1.9279,-1.8585,0.0,0.0,0.0,0.0,0.0,0.0,0.0,0.0,0.0,0.0,-1.4441,-1.443,-1.4482,-1.4722,-1.4744,-1.4843,-1.5094,-1.5105,-1.5105,-1.5105,-1.576,-1.6179,-1.6256,-1.6267,-1.5932,-1.5144,-1.5034,-1.4579,-1.3714,-1.3504,-1.3341,-1.3061,-1.2714,-1.2555,-1.263,-1.2338,-1.2027,-1.1894,-1.2102,-1.2368,-1.272,-1.273,-1.2949,-1.3502,-1.4341,-1.4824,-1.4588,-1.5001,-1.5526,-1.5836,-1.5894,-1.5726,-1.528,-1.4916,-1.4478,-1.4062,-1.3464,-1.3003,-1.2963,-1.2629,-1.2289,-1.2289,-1.2297,-1.2297,-1.2274,-1.2095,-1.1858,-1.1747,-1.1811,-1.1835,-3.1694,-2.9687,-2.9031,-2.8294,-2.7509,-2.6834,-2.6469,-2.6271,0.0,0.0,0.0,-2.1462,-2.1018,-2.1115,-2.086,-2.0861,-2.104,-2.1835,-2.1983,-2.1561,-2.1527,-2.1028,-2.0232,-1.9759,-1.9368,-1.904,-1.8987,-1.8987,-1.8987,-1.8987,-1.9047,-1.9119,-1.9119,-1.9444,-2.0057,-2.043,-2.0658,-2.0706,-1.9684,-1.9336,-1.9744,-1.9263,-1.8987,-1.8987,-1.8386,-1.7769,-1.7116,-1.6253,-1.5633,-1.5359,-1.5119,-1.4974,-1.4974,-1.4974,-1.4799,-1.4463,-1.443,-1.443,-1.443,-1.443,-1.443,-1.443,-1.4755,-1.505,-1.5214,-1.5557,-1.562,-1.5226,-1.5164,-1.4588,-1.3403,-1.325,-1.2813,-1.1768,-1.1656,-1.1664,-1.1551,-1.1487,-1.1648,-1.1752,-1.1656,-1.1423,-1.1318,-1.1656,-1.1866,-1.1945,-1.1971,-1.2004,-1.2421,-1.3408,-1.4186,-1.44,-1.4587,-1.4897,-1.5003,-1.5012,-1.4916,-1.4419,-1.397,-1.3561,-1.3122,-1.2639,-1.2381,-1.2329,-1.2086,-1.195,-1.1924,-1.1924,-1.1924,-1.1924,-1.171,-1.1359,-1.1158,-1.1238,-1.1264,-3.0359,-2.8459,-2.814,-2.7569,-2.6871,-2.6238,-2.573,-2.5227,-2.4846,-2.4308,-2.37,-2.2585,-2.2271,-2.2656,-2.1722,-2.18,-2.2623,-2.2362,-2.2184,-2.2123,-2.2463,-2.1827,-2.0422,-2.0597,-2.0207,-1.9223,-1.9052,-1.8987,-1.8987,-1.8999,-1.9215,-1.9612,-1.9672,-2.0165,-2.1067,-2.0815,-2.0839,-2.1247,-2.0225,-1.9708,-1.9768,-1.9263,-1.8987,-1.8951,-1.8037,-1.741,-1.7093,-1.5869,-1.5074,-1.4797,-1.4622,-1.4482,-1.4482,-1.4493,-1.4449,-1.4384,-1.443,-1.443,-1.443,-1.443,-1.443,-1.443,-1.4439,-1.4832,-1.56,-1.5753,-1.562,-1.5226,-1.4966,-1.4578,-1.3941,-1.3591,-1.3077,-1.2393,-1.2308,-1.215,-1.1503,-1.1447,-1.1495,-1.1503,-1.1543,-1.1463,-1.1424,-1.164,-1.1728,-1.1664,-1.1728,-1.1817,-1.184,-1.2349,-1.3143,-1.3731,-1.3593,-1.3498,-1.3691,-1.3699,-1.3543,-1.2901,-1.2782,-1.2479,-1.1958,-1.175,-1.1647,-1.1656,-1.1591,-1.1574,-1.1598,-1.1559,-1.1582,-1.1582,-1.1462,-1.1208,-1.1013,-1.0856,-1.0589,-3.0205,-2.8388,-2.8193,-2.768,-2.6899,-2.6515,-2.6218,-2.5948,-2.5603,-2.4706,-2.3527,-2.2709,-2.2253,-2.2142,-2.1918,-2.2088,-2.2544,-2.2591,-2.2477,-2.2184,-2.2123,-2.1479,-2.0459,-2.0207,-1.9811,-1.9223,-1.9052,-1.8987,-1.9011,-1.9275,-1.9528,-1.9793,-2.0081,-2.0622,-2.1332,-2.1175,-2.1308,-2.1777,-2.0478,-1.978,-1.9756,-1.9263,-1.8987,-1.8987,-1.7965,-1.7326,-1.7093,-1.58,-1.4971,-1.4697,-1.4512,-1.443,-1.443,-1.443,-1.443,-1.443,-1.443,-1.443,-1.443,-1.443,-1.443,-1.443,-1.443,-1.4464,-1.4714,-1.4904,-1.4784,-1.4171,-1.3862,-1.3398,-1.265,-1.2287,-1.1922,-1.1456,-1.1403,-1.1305,-1.1038,-1.0931,-1.0939,-1.0931,-1.0993,-1.0939,-1.0985,-1.1062,-1.1212,-1.124,-1.1487,-1.1551,-1.132,-1.1638,-1.2157,-1.2501,-1.2685,-1.2785,-1.2877,-1.2913,-1.267,-1.2223,-1.1864,-1.1592,-1.1256,-1.1098,-1.1106,-1.1392,-1.1352,-1.14,-1.1638,-1.1455,-1.1352,-1.1431,-1.1099,-1.0862,-1.0643,-1.034,-1.0068,-2.9894,-2.8159,-2.8159,-2.7705,-2.7003,-2.6899,-2.6846,-2.6727,-2.6286,-2.5208,-2.3796,-2.2967,-2.2377,-2.2034,-2.224,-2.237,-2.2417,-2.2706,-2.2692,-2.2324,-2.1921,-2.1334,-2.066,-2.0169,-1.9823,-1.9473,-1.9356,-1.9291,-1.9287,-1.9679,-1.9908,-2.0009,-2.0526,-2.1007,-2.1392,-2.1524,-2.1789,-2.2089,-2.0851,-2.0081,-1.9961,-1.9444,-1.9119,-1.8939,-1.8085,-1.7397,-1.7081,-1.5915,-1.5085,-1.4708,-1.4512,-1.443,-1.443,-1.443,-1.443,-1.443,-1.443,-1.443,-1.443,-1.443,-1.443,-1.443,-1.4326,-1.414,-1.3868,-1.3941,-1.3789,-1.317,-1.2764,-1.2166,-1.1504,-1.104,-1.0718,-1.0514,-1.0522,-1.0553,-1.053,-1.0522,-1.0522,-1.0522,-1.0522,-1.0538,-1.0522,-1.0522,-1.0597,-1.086,-1.1098,-1.1138,-1.0963,-1.1114,-1.1241,-1.1391,-1.1754,-1.202,-1.2049,-1.199,-1.1871,-1.1616,-1.1239,-1.0982,-1.0844,-1.0637,-1.0653,-1.1082,-1.1042,-1.1058,-1.1487,-1.1257,-1.1018,-1.1106,-1.0836,-1.0518,-1.0415,-1.0133,-0.9859,-2.8758,-2.7586,-2.752,-2.7307,-2.6989,-2.6974,-2.6841,-2.6736,-2.6712,-2.6269,-2.5322,-2.4267,-2.3681,-2.3605,-2.3043,-2.2797,-2.2783,-2.2888,-2.2843,-2.2797,-2.2797,-2.2249,-2.1382,-2.1541,-2.1251,-2.0372,-2.0093,-2.0029,-2.0016,-2.0027,-2.0181,-2.055,-2.1067,-2.1356,-2.1464,-2.1885,-2.2137,-2.2185,-2.1572,-2.1019,-2.0538,-1.9985,-1.948,-1.8987,-1.8434,-1.7816,-1.714,-1.6299,-1.5485,-1.4753,-1.4512,-1.443,-1.443,-1.443,-1.443,-1.443,-1.443,-1.443,-1.443,-1.443,-1.443,-1.4373,-1.4046,-1.3858,-1.3763,-1.3266,-1.2929,-1.2657,-1.2008,-1.151,-1.1267,-1.082,-1.0573,-1.0514,-1.0522,-1.0522,-1.0522,-1.0522,-1.0522,-1.0522,-1.0522,-1.0522,-1.0522,-1.0522,-1.0538,-1.0609,-1.0629,-1.0721,-1.0605,-1.0621,-1.0713,-1.0677,-1.0926,-1.1043,-1.0866,-1.0677,-1.0821,-1.0705,-1.0629,-1.0581,-1.0589,-1.0558,-1.0593,-1.0905,-1.0629,-1.0653,-1.0732,-1.0534,-1.0581,-1.0732,-1.0681,-1.047,-1.047,-1.0213,-0.9955,-2.8736,-2.791,-2.761,-2.7113,-2.6505,-2.6023,-2.5733,-2.5633,-2.5647,-2.5487,-2.5104,-2.4287,-2.3918,-2.3847,-2.3223,-2.2888,-2.2888,-2.2888,-2.2888,-2.2843,-2.2615,-2.2109,-2.1465,-2.1479,-2.1104,-2.0409,-2.0245,-2.0181,-2.0233,-2.039,-2.0722,-2.1185,-2.1656,-2.1873,-2.1885,-2.2089,-2.2197,-2.2185,-2.168,-2.1127,-2.0598,-2.0057,-1.9672,-1.9396,-1.8638,-1.802,-1.7482,-1.6448,-1.5667,-1.518,-1.4678,-1.443,-1.443,-1.443,-1.443,-1.443,-1.443,-1.443,-1.443,-1.443,-1.443,-1.443,-1.401,-1.3716,-1.342,-1.2677,-1.2197,-1.2067,-1.166,-1.1309,-1.1074,-1.0726,-1.0522,-1.0522,-1.0522,-1.0522,-1.0522,-1.0522,-1.0522,-1.0522,-1.0522,-1.0522,-1.0522,-1.0522,-1.0522,-1.0522,-1.0522,-1.0522,-1.0522,-1.0522,-1.0522,-1.0538,-1.0605,-1.0621,-1.0545,-1.0522,-1.0522,-1.0522,-1.0522,-1.0502,-1.0693,-1.0617,-1.0625,-1.1001,-1.0693,-1.0677,-1.1098,-1.0745,-1.0561,-1.0597,-1.0558,-1.0522,-1.0522,-1.0213,-1.0007,-2.8933,-2.8185,-2.7522,-2.6752,-2.5963,-2.5345,-2.498,-2.4834,-2.4863,-2.4863,-2.4713,-2.4167,-2.3876,-2.3804,-2.3178,-2.2888,-2.2888,-2.2888,-2.2888,-2.2843,-2.2555,-2.2109,-2.1657,-2.167,-2.1382,-2.0944,-2.0845,-2.0753,-2.0694,-2.0766,-2.1168,-2.1812,-2.2066,-2.2197,-2.2197,-2.2197,-2.2197,-2.2137,-2.168,-2.1199,-2.0767,-2.0129,-1.9708,-1.9504,-1.8674,-1.8044,-1.7623,-1.6569,-1.5797,-1.5423,-1.4793,-1.4477,-1.4466,-1.4419,-1.443,-1.443,-1.443,-1.443,-1.443,-1.443,-1.4337,-1.4233,-1.3868,-1.3478,-1.3035,-1.2197,-1.166,-1.1578,-1.1318,-1.1065,-1.0913,-1.0667,-1.0522,-1.0522,-1.0522,-1.0522,-1.0522,-1.0522,-1.0522,-1.0522,-1.0522,-1.0522,-1.0522,-1.0522,-1.0522,-1.0522,-1.0522,-1.0522,-1.0522,-1.0522,-1.0522,-1.0522,-1.047,-1.053,-1.0522,-1.0522,-1.0522,-1.0522,-1.0522,-1.055,-1.0812,-1.0581,-1.0545,-1.0785,-1.0641,-1.0581,-1.0812,-1.0637,-1.0561,-1.0745,-1.0705,-1.0522,-1.0522,-1.0265,-1.0102,-2.9115,-2.7926,-2.6777,-2.597,-2.5441,-2.521,-2.5066,-2.4863,-2.4776,-2.4742,-2.466,-2.4123,-2.3876,-2.3804,-2.3149,-2.2888,-2.2888,-2.2888,-2.2888,-2.2888,-2.2843,-2.2601,-2.2217,-2.2601,-2.2555,-2.1983,-2.2019,-2.1979,-2.1815,-2.1331,-2.1467,-2.2299,-2.2273,-2.2197,-2.2197,-2.2197,-2.2185,-2.2089,-2.1608,-2.1332,-2.1175,-2.0273,-1.9516,-1.9071,-1.8506,-1.7924,-1.7248,-1.661,-1.594,-1.5177,-1.4822,-1.4651,-1.4662,-1.4466,-1.443,-1.443,-1.443,-1.443,-1.443,-1.4384,-1.4233,-1.3858,-1.3467,-1.3084,-1.2715,-1.1918,-1.1368,-1.1326,-1.0871,-1.0667,-1.082,-1.0616,-1.0522,-1.0522,-1.0522,-1.0522,-1.0522,-1.0522,-1.0522,-1.0522,-1.0522,-1.0522,-1.0522,-1.0522,-1.0522,-1.0522,-1.0522,-1.0522,-1.0522,-1.0522,-1.0522,-1.0522,-1.0522,-1.0522,-1.0522,-1.0522,-1.0522,-1.0522,-1.0522,-1.0478,-1.047,-1.053,-1.0569,-1.0593,-1.0553,-1.0545,-1.0502,-1.0502,-1.0538,-1.0593,-1.0609,-1.0522,-1.0522,-1.0368,-1.0265,-2.9111,-2.7876,-2.6569,-2.5713,-2.5168,-2.4715,-2.4268,-2.3922,-2.3831,-2.38,-2.3693,-2.3475,-2.3327,-2.3267,-2.3004,-2.2888,-2.2888,-2.2888,-2.2888,-2.2888,-2.2888,-2.2661,-2.2278,-2.2661,-2.2661,-2.2334,-2.2578,-2.2574,-2.2283,-2.2244,-2.2171,-2.2065,-2.2262,-2.2309,-2.2197,-2.2197,-2.2041,-2.1668,-2.1163,-2.073,-2.037,-1.966,-1.9167,-1.8999,-1.8819,-1.8418,-1.7802,-1.7179,-1.6419,-1.566,-1.5015,-1.4616,-1.4523,-1.443,-1.443,-1.443,-1.443,-1.443,-1.4384,-1.415,-1.3962,-1.3773,-1.3238,-1.2754,-1.2363,-1.1719,-1.1226,-1.1023,-1.0726,-1.0573,-1.0624,-1.0522,-1.0522,-1.0522,-1.0522,-1.0522,-1.0522,-1.0522,-1.0522,-1.0522,-1.0522,-1.0522,-1.0522,-1.0522,-1.0522,-1.0522,-1.0522,-1.0522,-1.0522,-1.0522,-1.0522,-1.0522,-1.0522,-1.0522,-1.0522,-1.0522,-1.0522,-1.0522,-1.0522,-1.0522,-1.0522,-1.0522,-1.0553,-1.0561,-1.0522,-1.0522,-1.0486,-1.0538,-1.0522,-1.0522,-1.0522,-1.0522,-1.0522,-1.0419,-1.0368,-2.844,-2.7408,-2.6252,-2.5475,-2.4987,-2.4498,-2.4021,-2.3566,-2.3523,-2.3363,-2.3201,-2.3157,-2.3112,-2.3023,-2.3008,-2.3023,-2.2947,-2.2933,-2.2888,-2.2888,-2.2888,-2.2706,-2.2523,-2.2752,-2.2867,-2.2833,-2.3195,-2.3335,-2.3152,-2.3044,-2.2821,-2.2527,-2.2554,-2.2432,-2.2359,-2.214,-2.1789,-2.1391,-2.0776,-2.0153,-1.9756,-1.9263,-1.8987,-1.8987,-1.8987,-1.865,-1.7977,-1.7313,-1.6598,-1.58,-1.5142,-1.4697,-1.4419,-1.443,-1.443,-1.443,-1.443,-1.443,-1.4326,-1.4046,-1.3773,-1.3621,-1.3065,-1.2578,-1.2157,-1.1619,-1.1276,-1.1023,-1.0718,-1.0522,-1.0522,-1.0522,-1.0522,-1.0522,-1.0522,-1.0522,-1.0522,-1.0522,-1.0522,-1.0522,-1.0522,-1.0522,-1.0522,-1.0522,-1.0522,-1.0522,-1.0522,-1.0522,-1.0522,-1.0522,-1.0522,-1.0522,-1.0522,-1.0522,-1.0522,-1.0522,-1.0522,-1.0522,-1.0522,-1.0522,-1.0522,-1.0522,-1.0522,-1.0522,-1.0522,-1.0522,-1.0522,-1.0522,-1.0522,-1.0522,-1.0522,-1.0522,-1.047,-1.047,-1.0419,-2.7087,-2.6626,-2.581,-2.5355,-2.4982,-2.4799,-2.4486,-2.4105,-2.3964,-2.3724,-2.3392,-2.3319,-2.3319,-2.3275,-2.3231,-2.3201,-2.3023,-2.2947,-2.2888,-2.2888,-2.2888,-2.2888,-2.2843,-2.2975,-2.338,-2.3898,-2.4042,-2.4385,-2.4713,-2.3807,-2.3441,-2.3579,-2.3027,-2.2787,-2.2678,-2.2031,-2.1583,-2.1304,-2.0402,-1.9805,-1.9708,-1.9239,-1.8987,-1.8987,-1.8987,-1.8518,-1.7508,-1.6931,-1.6359,-1.561,-1.5267,-1.488,-1.4512,-1.4419,-1.443,-1.443,-1.443,-1.4384,-1.4337,-1.401,-1.3573,-1.3228,-1.2852,-1.248,-1.2076,-1.1578,-1.1276,-1.1175,-1.082,-1.0522,-1.0522,-1.0522,-1.0522,-1.0522,-1.0522,-1.0522,-1.0522,-1.0522,-1.0522,-1.0522,-1.0522,-1.0522,-1.0522,-1.0522,-1.0522,-1.0522,-1.0522,-1.0522,-1.0522,-1.0522,-1.0522,-1.0522,-1.0522,-1.0522,-1.0522,-1.0522,-1.0522,-1.0522,-1.0522,-1.0522,-1.0522,-1.0522,-1.0522,-1.0522,-1.0522,-1.0522,-1.0522,-1.0522,-1.0522,-1.0522,-1.0522,-1.0522,-1.047,-1.047,-1.047,-2.7247,-2.6998,-2.6286,-2.5738,-2.5313,-2.5275,-2.5044,-2.4679,-2.4608,-2.4282,-2.3894,-2.3867,-2.3581,-2.3246,-2.3157,-2.3068,-2.2947,-2.2933,-2.2888,-2.2888,-2.2888,-2.2902,-2.296,-2.3337,-2.4167,-2.5067,-2.5221,-2.5397,-2.5472,-2.5135,-2.4857,-2.4399,-2.3682,-2.3292,-2.305,-2.2065,-2.1307,-2.0824,-2.0197,-1.9624,-1.9275,-1.9083,-1.8999,-1.8987,-1.8987,-1.8494,-1.7484,-1.7255,-1.6633,-1.5572,-1.5424,-1.5153,-1.4697,-1.4605,-1.4512,-1.443,-1.443,-1.4244,-1.3952,-1.361,-1.3286,-1.291,-1.2529,-1.2175,-1.1877,-1.1528,-1.1226,-1.1074,-1.0718,-1.0522,-1.0522,-1.0522,-1.0522,-1.0522,-1.0522,-1.0522,-1.0522,-1.0522,-1.0522,-1.0522,-1.0522,-1.0522,-1.0522,-1.0522,-1.0522,-1.0522,-1.0522,-1.0522,-1.0522,-1.0522,-1.0522,-1.0522,-1.0522,-1.0522,-1.0522,-1.0522,-1.0522,-1.0522,-1.0522,-1.0522,-1.0522,-1.0522,-1.0522,-1.0522,-1.0522,-1.0522,-1.0522,-1.0522,-1.0522,-1.0522,-1.0522,-1.0522,-1.0522,-1.0522,-1.0522,-2.7173,-2.7052,-2.6457,-2.6043,-2.5775,-2.5775,-2.5519,-2.516,-2.5121,-2.4863,-2.4436,-2.4245,-2.3952,-2.3581,-2.3363,-2.3246,-2.3112,-2.3053,-2.3037,-2.3036,-2.3223,-2.3134,-2.3091,-2.3847,-2.4747,-2.5676,-2.6039,-2.6202,-2.6218,-2.6002,-2.5646,-2.5106,-2.4226,-2.3707,-2.3373,-2.2058,-2.1031,-2.0662,-1.9897,-1.9324,-1.9071,-1.8987,-1.8987,-1.8987,-1.8987,-1.8554,-1.7772,-1.7532,-1.6824,-1.5714,-1.5334,-1.5017,-1.4743,-1.4616,-1.4512,-1.4419,-1.4384,-1.428,-1.3999,-1.3563,-1.3122,-1.2852,-1.2412,-1.2067,-1.1828,-1.1528,-1.1226,-1.1074,-1.0718,-1.0522,-1.0522,-1.0522,-1.0522,-1.0522,-1.0522,-1.0522,-1.0522,-1.0522,-1.0522,-1.0522,-1.0522,-1.0522,-1.0522,-1.0522,-1.0522,-1.0522,-1.0522,-1.0522,-1.0522,-1.0522,-1.0522,-1.0522,-1.0522,-1.0522,-1.0522,-1.0522,-1.0522,-1.0522,-1.0522,-1.0522,-1.0522,-1.0522,-1.0522,-1.0522,-1.0522,-1.0522,-1.0522,-1.0522,-1.0522,-1.0522,-1.0522,-1.0522,-1.0522,-1.0522,-1.0522,-2.6858,-2.6758,-2.6382,-2.6239,-2.6168,-2.6168,-2.5901,-2.5594,-2.5556,-2.5291,-2.4902,-2.4614,-2.4369,-2.4204,-2.3809,-2.3581,-2.3509,-2.3319,-2.3201,-2.3317,-2.3635,-2.3734,-2.3424,-2.425,-2.5154,-2.5908,-2.646,-2.6736,-2.6659,-2.6172,-2.5892,-2.5602,-2.4518,-2.3906,-2.339,-2.1914,-2.1049,-2.0747,-1.9768,-1.9182,-1.9093,-1.9093,-1.9052,-1.904,-1.8975,-1.871,-1.8157,-1.758,-1.6752,-1.5666,-1.5153,-1.4926,-1.4754,-1.4558,-1.4466,-1.443,-1.443,-1.4373,-1.4186,-1.361,-1.317,-1.3035,-1.2461,-1.2076,-1.1977,-1.1619,-1.1276,-1.1226,-1.0828,-1.0522,-1.0522,-1.0522,-1.0522,-1.0522,-1.0522,-1.0522,-1.0522,-1.0522,-1.0522,-1.0522,-1.0522,-1.0522,-1.0522,-1.0522,-1.0522,-1.0522,-1.0522,-1.0522,-1.0522,-1.0522,-1.0522,-1.0522,-1.0522,-1.0522,-1.0522,-1.0522,-1.0522,-1.0522,-1.0522,-1.0522,-1.0522,-1.0522,-1.0522,-1.0522,-1.0522,-1.0522,-1.0522,-1.0522,-1.0522,-1.0522,-1.0522,-1.0522,-1.0522,-1.0522,-1.0522,-2.7144,-2.6872,-2.6725,-2.6504,-2.6277,-2.6239,-2.6132,-2.6043,-2.599,-2.5738,-2.5406,-2.5253,-2.4926,-2.4567,-2.4173,-2.3894,-2.3767,-2.348,-2.3275,-2.3422,-2.4391,-2.4677,-2.4413,-2.4704,-2.5458,-2.6402,-2.6634,-2.6779,-2.6736,-2.6116,-2.5626,-2.5216,-2.4285,-2.3377,-2.2562,-2.1746,-2.1118,-2.0699,-2.0191,-1.9668,-1.946,-1.9408,-1.9303,-1.9052,-1.8987,-1.871,-1.8169,-1.7315,-1.65,-1.5832,-1.5614,-1.5334,-1.5017,-1.4926,-1.4743,-1.4477,-1.4384,-1.4233,-1.3952,-1.3467,-1.3132,-1.2813,-1.2421,-1.2076,-1.2076,-1.1619,-1.1326,-1.1226,-1.082,-1.0522,-1.0522,-1.0522,-1.0522,-1.0522,-1.0522,-1.0522,-1.0522,-1.0522,-1.0522,-1.0522,-1.0522,-1.0522,-1.0522,-1.0522,-1.0522,-1.0522,-1.0522,-1.0522,-1.0522,-1.0522,-1.0522,-1.0522,-1.0522,-1.0522,-1.0522,-1.0522,-1.0522,-1.0522,-1.0522,-1.0522,-1.0522,-1.0522,-1.0522,-1.0522,-1.0522,-1.0522,-1.0522,-1.0522,-1.0522,-1.0522,-1.0522,-1.0522,-1.0522,-1.0522,-1.0522,-2.7572,-2.733,-2.697,-2.6724,-2.6539,-2.633,-2.6258,-2.6239,-2.6203,-2.6079,-2.5811,-2.5594,-2.5335,-2.5005,-2.4623,-2.442,-2.4241,-2.3852,-2.3638,-2.3774,-2.4445,-2.511,-2.5427,-2.5319,-2.5531,-2.662,-2.6489,-2.6373,-2.6242,-2.5705,-2.5265,-2.4818,-2.3963,-2.3151,-2.265,-2.1459,-2.0849,-2.0487,-2.0078,-1.9681,-1.942,-1.9356,-1.9251,-1.904,-1.8975,-1.8674,-1.7905,-1.7267,-1.663,-1.5984,-1.5691,-1.5558,-1.5277,-1.5017,-1.4789,-1.4523,-1.443,-1.4233,-1.3821,-1.342,-1.3035,-1.2725,-1.2332,-1.2126,-1.2026,-1.1628,-1.1276,-1.1226,-1.0769,-1.0573,-1.0522,-1.0522,-1.0522,-1.0522,-1.0522,-1.0522,-1.0522,-1.0522,-1.0522,-1.0522,-1.0522,-1.0522,-1.0522,-1.0522,-1.0522,-1.0522,-1.0522,-1.0522,-1.0522,-1.0522,-1.0522,-1.0522,-1.0522,-1.0522,-1.0522,-1.0522,-1.0522,-1.0522,-1.0522,-1.0522,-1.0522,-1.0522,-1.0522,-1.0522,-1.0522,-1.0522,-1.0522,-1.0522,-1.0522,-1.0522,-1.0522,-1.0522,-1.0522,-1.0522,-1.0522,-2.8037,-2.7936,-2.7299,-2.6985,-2.6905,-2.6539,-2.6383,-2.6365,-2.6258,-2.6203,-2.6115,-2.5758,-2.5631,-2.554,-2.5121,-2.4926,-2.4887,-2.4297,-2.4185,-2.4111,-2.4358,-2.4938,-2.6126,-2.5515,-2.5683,-2.6387,-2.6025,-2.5792,-2.5575,-2.5052,-2.4728,-2.4359,-2.3518,-2.3027,-2.2525,-2.1448,-2.0699,-2.0423,-2.0067,-1.9617,-1.942,-1.9251,-1.9146,-1.904,-1.8987,-1.8542,-1.7845,-1.7376,-1.6883,-1.5924,-1.5638,-1.5468,-1.5379,-1.4937,-1.4708,-1.4616,-1.4477,-1.4244,-1.3821,-1.342,-1.3035,-1.2725,-1.2332,-1.2076,-1.1927,-1.1569,-1.1267,-1.1217,-1.0769,-1.0573,-1.0522,-1.0522,-1.0522,-1.0522,-1.0522,-1.0478,-1.0569,-1.0545,-1.0522,-1.0522,-1.0522,-1.0522,-1.0522,-1.0522,-1.0522,-1.0522,-1.0522,-1.0522,-1.0522,-1.0522,-1.0522,-1.0522,-1.0522,-1.0522,-1.0522,-1.0522,-1.0522,-1.0522,-1.0522,-1.0522,-1.0522,-1.0522,-1.0522,-1.0522,-1.0522,-1.0522,-1.0522,-1.0522,-1.0522,-1.0522,-1.0522,-1.0522,-1.0522,-1.0522,-1.0522,-2.8344,-2.8057,-2.7869,-2.7619,-2.7313,-2.6952,-2.6774,-2.674,-2.6418,-2.6295,-2.6241,-2.6099,-2.6043,-2.599,-2.5572,-2.5389,-2.5275,-2.4655,-2.4353,-2.4387,-2.3895,-2.4414,-2.5467,-2.5511,-2.5821,-2.5988,-2.5865,-2.5517,-2.5009,-2.4394,-2.3889,-2.3467,-2.3183,-2.2569,-2.1863,-2.1951,-2.1623,-2.1042,-2.0746,-2.0258,-1.9668,-1.946,-1.9251,-1.904,-1.8987,-1.8662,-1.8097,-1.764,-1.7111,-1.6441,-1.5828,-1.5424,-1.5244,-1.4926,-1.4697,-1.4569,-1.4477,-1.4233,-1.381,-1.342,-1.3025,-1.2676,-1.2332,-1.2026,-1.1778,-1.1528,-1.1226,-1.1023,-1.0726,-1.0522,-1.0561,-1.053,-1.0534,-1.0566,-1.0609,-1.0681,-1.0764,-1.0629,-1.0538,-1.0545,-1.053,-1.0522,-1.0522,-1.0522,-1.0522,-1.0522,-1.0522,-1.0522,-1.0522,-1.0522,-1.0522,-1.0522,-1.0522,-1.0522,-1.0522,-1.0522,-1.0522,-1.0522,-1.0522,-1.0522,-1.0522,-1.0522,-1.0522,-1.0522,-1.0522,-1.0522,-1.0522,-1.0522,-1.0522,-1.0522,-1.0522,-1.0522,-1.0522,-1.0522,-1.0522,-2.8492,-2.8326,-2.812,-2.7964,-2.7747,-2.7326,-2.7189,-2.7095,-2.674,-2.6573,-2.6504,-2.6347,-2.6239,-2.622,-2.5954,-2.5811,-2.561,-2.4958,-2.4414,-2.422,-2.397,-2.4327,-2.4769,-2.5368,-2.5575,-2.5334,-2.4994,-2.4689,-2.4297,-2.3771,-2.3302,-2.3008,-2.2712,-2.2366,-2.1766,-2.203,-2.1527,-2.0957,-2.0795,-2.0409,-1.9708,-1.946,-1.9316,-1.904,-1.8975,-1.8746,-1.8205,-1.7688,-1.7123,-1.6596,-1.5911,-1.5525,-1.5424,-1.5198,-1.4971,-1.4789,-1.4605,-1.4186,-1.3658,-1.3314,-1.2977,-1.2471,-1.2234,-1.2204,-1.2022,-1.1793,-1.148,-1.1285,-1.1003,-1.0716,-1.0753,-1.083,-1.0854,-1.1001,-1.107,-1.1158,-1.116,-1.0788,-1.0609,-1.0613,-1.0581,-1.0553,-1.0522,-1.0522,-1.0522,-1.0522,-1.0522,-1.0522,-1.0522,-1.0522,-1.0522,-1.0522,-1.0522,-1.0522,-1.0522,-1.0522,-1.0522,-1.0522,-1.0522,-1.0522,-1.0522,-1.0522,-1.0522,-1.0522,-1.0522,-1.0522,-1.0522,-1.0522,-1.0522,-1.0522,-1.0522,-1.0522,-1.0522,-1.0462,-1.047,-2.8637,-2.8587,-2.8299,-2.8201,-2.8129,-2.7759,-2.7584,-2.7525,-2.7158,-2.6952,-2.6856,-2.6539,-2.64,-2.6293,-2.6239,-2.6187,-2.5832,-2.5115,-2.4265,-2.3973,-2.3938,-2.4075,-2.4357,-2.4712,-2.4823,-2.4534,-2.4334,-2.4043,-2.3691,-2.3252,-2.3018,-2.2841,-2.2537,-2.2417,-2.2217,-2.186,-2.1575,-2.114,-2.0957,-2.0459,-1.9772,-1.946,-1.9316,-1.9052,-1.8987,-1.8819,-1.8374,-1.7893,-1.7376,-1.6823,-1.617,-1.5932,-1.5894,-1.5537,-1.5289,-1.5017,-1.4651,-1.4082,-1.3409,-1.3122,-1.2793,-1.2184,-1.2218,-1.2269,-1.2295,-1.2126,-1.1921,-1.1609,-1.1287,-1.1023,-1.1104,-1.1162,-1.1264,-1.1431,-1.1664,-1.1712,-1.1519,-1.1003,-1.0875,-1.086,-1.0772,-1.0705,-1.0577,-1.0522,-1.0522,-1.0522,-1.0522,-1.0522,-1.0522,-1.0522,-1.0522,-1.0522,-1.0522,-1.0522,-1.0522,-1.0522,-1.0522,-1.0522,-1.0522,-1.0522,-1.0522,-1.0522,-1.0522,-1.0522,-1.0522,-1.0522,-1.0522,-1.0522,-1.0522,-1.0522,-1.0522,-1.0522,-1.047,-1.0462,-1.0462,-2.8761,-2.8587,-2.8562,-2.8518,-2.8466,-2.8129,-2.8002,-2.7918,-2.7572,-2.7374,-2.7313,-2.6952,-2.6757,-2.6641,-2.64,-2.6066,-2.557,-2.4792,-2.4241,-2.3978,-2.3716,-2.343,-2.3865,-2.3971,-2.3881,-2.3747,-2.3849,-2.3802,-2.3374,-2.3081,-2.3081,-2.2902,-2.2855,-2.2824,-2.285,-2.2661,-2.239,-2.1863,-2.1588,-2.1006,-2.0233,-1.9772,-1.946,-1.9093,-1.8987,-1.8915,-1.8758,-1.8362,-1.8025,-1.7905,-1.7387,-1.7123,-1.6741,-1.5742,-1.5085,-1.4845,-1.4384,-1.3847,-1.3314,-1.2949,-1.2569,-1.2299,-1.2402,-1.2286,-1.2247,-1.2324,-1.2307,-1.18,-1.1584,-1.1447,-1.1448,-1.1535,-1.1503,-1.1575,-1.1647,-1.1735,-1.1781,-1.1598,-1.1201,-1.1098,-1.0955,-1.0817,-1.0641,-1.0522,-1.0522,-1.0522,-1.0522,-1.0522,-1.0522,-1.0522,-1.0522,-1.0522,-1.0522,-1.0522,-1.0522,-1.0522,-1.0522,-1.0522,-1.0522,-1.0522,-1.0522,-1.0522,-1.0522,-1.0522,-1.0522,-1.0522,-1.0522,-1.0522,-1.0522,-1.0522,-1.0522,-1.0522,-1.0462,-1.0462,-1.0411,-2.8943,-2.885,-2.8761,-2.8687,-2.8619,-2.8482,-2.836,-2.8299,-2.7974,-2.7805,-2.766,-2.7374,-2.7049,-2.6856,-2.6691,-2.6229,-2.5538,-2.5062,-2.468,-2.4458,-2.3912,-2.3618,-2.3809,-2.3696,-2.3523,-2.3569,-2.3748,-2.3718,-2.3231,-2.3216,-2.3288,-2.3549,-2.3533,-2.3647,-2.3789,-2.3598,-2.3193,-2.2679,-2.2028,-2.1301,-2.0398,-1.9935,-1.9368,-1.9146,-1.8987,-1.8987,-1.8891,-1.8482,-1.8205,-1.8073,-1.77,-1.7472,-1.7039,-1.6374,-1.5522,-1.5337,-1.4551,-1.38,-1.3372,-1.3017,-1.2615,-1.248,-1.2632,-1.2819,-1.2841,-1.2969,-1.2777,-1.2341,-1.201,-1.1995,-1.2061,-1.2033,-1.2086,-1.2043,-1.2027,-1.2099,-1.2194,-1.2107,-1.1741,-1.1296,-1.1066,-1.0836,-1.0593,-1.0522,-1.0522,-1.0522,-1.0522,-1.0522,-1.0522,-1.0522,-1.0522,-1.0522,-1.0522,-1.0522,-1.0522,-1.0522,-1.0522,-1.0522,-1.0522,-1.0522,-1.0522,-1.0522,-1.0522,-1.0522,-1.0522,-1.0522,-1.0522,-1.0522,-1.0522,-1.0522,-1.0522,-1.0522,-1.0462,-1.0462,-1.036,-2.8762,-2.8842,-2.8695,-2.8664,-2.8718,-2.8737,-2.8687,-2.8569,-2.8334,-2.8201,-2.8065,-2.7776,-2.7404,-2.7049,-2.6807,-2.647,-2.5832,-2.5558,-2.5046,-2.4757,-2.4326,-2.4163,-2.3963,-2.3906,-2.3696,-2.3566,-2.3596,-2.3523,-2.3319,-2.3275,-2.3568,-2.3756,-2.3944,-2.4177,-2.436,-2.3775,-2.3512,-2.2958,-2.2275,-2.1399,-2.0604,-1.9772,-1.917,-1.9052,-1.904,-1.9004,-1.8734,-1.8422,-1.8121,-1.7929,-1.7652,-1.7412,-1.7279,-1.6705,-1.6338,-1.615,-1.5,-1.4125,-1.3563,-1.3017,-1.2691,-1.2614,-1.2788,-1.314,-1.3387,-1.335,-1.3248,-1.3049,-1.2753,-1.2604,-1.2519,-1.255,-1.2557,-1.2573,-1.2565,-1.2605,-1.2533,-1.2374,-1.203,-1.1631,-1.1233,-1.0875,-1.0558,-1.0522,-1.0522,-1.0522,-1.0522,-1.0522,-1.0522,-1.0522,-1.0522,-1.0522,-1.0522,-1.0522,-1.0522,-1.0522,-1.0522,-1.0522,-1.0522,-1.0522,-1.0522,-1.0522,-1.0522,-1.0522,-1.0522,-1.0522,-1.0522,-1.0522,-1.0522,-1.0522,-1.0522,-1.0522,-1.0462,-1.047,-1.0368,-2.7661,-2.8043,-2.8003,-2.8315,-2.8713,-2.8749,-2.8743,-2.8687,-2.8644,-2.8594,-2.8466,-2.8174,-2.7805,-2.7344,-2.6723,-2.6469,-2.6095,-2.532,-2.4814,-2.458,-2.4313,-2.3959,-2.3588,-2.403,-2.3864,-2.3681,-2.3595,-2.348,-2.3348,-2.3319,-2.3568,-2.3885,-2.3708,-2.347,-2.4345,-2.3833,-2.3002,-2.2965,-2.2744,-2.2085,-2.105,-1.9913,-1.938,-1.9235,-1.9146,-1.8911,-1.847,-1.8229,-1.8037,-1.7592,-1.7484,-1.7412,-1.7279,-1.6717,-1.6479,-1.6091,-1.5185,-1.4046,-1.3662,-1.3145,-1.2862,-1.2915,-1.3092,-1.325,-1.3488,-1.3564,-1.3602,-1.3859,-1.3365,-1.2987,-1.297,-1.2765,-1.2691,-1.2683,-1.2683,-1.2691,-1.2605,-1.2494,-1.2164,-1.176,-1.1343,-1.0921,-1.0534,-1.0494,-1.0522,-1.0522,-1.0522,-1.0522,-1.0522,-1.0522,-1.0522,-1.0522,-1.0522,-1.0522,-1.0522,-1.0522,-1.0522,-1.0522,-1.0522,-1.0522,-1.0522,-1.0522,-1.0522,-1.0522,-1.0522,-1.0522,-1.0522,-1.0522,-1.0522,-1.047,-1.047,-1.047,-1.0522,-1.0419,-1.0316,-2.7056,-2.7419,-2.7321,-2.7635,-2.8127,-2.8182,-2.8408,-2.8707,-2.8761,-2.8737,-2.8687,-2.8525,-2.8147,-2.7507,-2.6499,-2.595,-2.5715,-2.4946,-2.4448,-2.4512,-2.4381,-2.4159,-2.3842,-2.4064,-2.4074,-2.3724,-2.3595,-2.3523,-2.3451,-2.3555,-2.3822,-2.454,-2.4417,-2.4571,-2.4684,-2.4345,-2.387,-2.3376,-2.2595,-2.1623,-2.0738,-1.9914,-1.9316,-1.9223,-1.917,-1.8803,-1.8365,-1.8181,-1.7941,-1.7532,-1.7412,-1.7412,-1.7243,-1.686,-1.6525,-1.6455,-1.5565,-1.4766,-1.4268,-1.358,-1.3332,-1.3403,-1.3589,-1.3736,-1.388,-1.4005,-1.4042,-1.4222,-1.383,-1.3588,-1.3467,-1.3277,-1.3042,-1.2928,-1.292,-1.2805,-1.2671,-1.2441,-1.2207,-1.1801,-1.139,-1.0958,-1.0593,-1.0553,-1.0522,-1.0522,-1.0522,-1.0522,-1.0522,-1.0522,-1.0522,-1.0522,-1.0522,-1.0522,-1.0522,-1.0522,-1.0522,-1.0522,-1.0522,-1.0522,-1.0522,-1.0522,-1.0522,-1.0522,-1.0522,-1.0522,-1.0522,-1.047,-1.0462,-1.0419,-1.0368,-1.0419,-1.0419,-1.0257,-1.0154,-2.6453,-2.6911,-2.7083,-2.7542,-2.8066,-2.8054,-2.8333,-2.8797,-2.8834,-2.881,-2.8761,-2.8626,-2.8273,-2.7624,-2.6458,-2.5805,-2.5624,-2.4873,-2.4441,-2.4478,-2.4746,-2.4743,-2.4489,-2.4453,-2.4446,-2.3794,-2.3852,-2.3696,-2.3581,-2.3642,-2.4104,-2.5082,-2.4734,-2.4963,-2.516,-2.4786,-2.4187,-2.3425,-2.2336,-2.1551,-2.0924,-2.0156,-1.9772,-1.9512,-1.9242,-1.883,-1.8222,-1.8077,-1.7823,-1.7158,-1.6761,-1.6688,-1.6797,-1.6378,-1.6176,-1.617,-1.5751,-1.5392,-1.4758,-1.4152,-1.3946,-1.3989,-1.4144,-1.4148,-1.4378,-1.4515,-1.4515,-1.4446,-1.4139,-1.401,-1.395,-1.3631,-1.339,-1.3277,-1.3268,-1.3033,-1.2761,-1.2512,-1.22,-1.1736,-1.1317,-1.0938,-1.0653,-1.0545,-1.0522,-1.0522,-1.0522,-1.0522,-1.0522,-1.0522,-1.0522,-1.0522,-1.0522,-1.0522,-1.0522,-1.0522,-1.0522,-1.0522,-1.0522,-1.0522,-1.0522,-1.0522,-1.0522,-1.0522,-1.0522,-1.0522,-1.0522,-1.0462,-1.0462,-1.047,-1.0419,-1.0316,-1.0265,-1.0102,-1.0051,-2.5707,-2.6445,-2.7683,-2.8521,-2.9084,-2.8975,-2.886,-2.8814,-2.8868,-2.8821,-2.8658,-2.8453,-2.8182,-2.7771,-2.6807,-2.6105,-2.5997,-2.5669,-2.4968,-2.4972,-2.5547,-2.5342,-2.504,-2.4991,-2.5121,-2.4405,-2.423,-2.3952,-2.3696,-2.361,-2.3911,-2.425,-2.4486,-2.4395,-2.4361,-2.4297,-2.3839,-2.3148,-2.2362,-2.2007,-2.1541,-2.0904,-2.0231,-2.0042,-1.9634,-1.9031,-1.7897,-1.7763,-1.7372,-1.6492,-1.6049,-1.5944,-1.6199,-1.5832,-1.5708,-1.5885,-1.6089,-1.5684,-1.5021,-1.4582,-1.4221,-1.4214,-1.4264,-1.4341,-1.4488,-1.4515,-1.4515,-1.4455,-1.4258,-1.4079,-1.395,-1.3761,-1.364,-1.3571,-1.358,-1.3398,-1.3015,-1.2455,-1.2099,-1.167,-1.1291,-1.099,-1.0902,-1.0845,-1.0573,-1.0522,-1.0522,-1.0522,-1.0522,-1.0522,-1.0522,-1.0522,-1.0522,-1.0522,-1.0522,-1.0522,-1.0522,-1.0522,-1.0522,-1.0522,-1.0522,-1.0522,-1.0522,-1.0522,-1.0522,-1.0522,-1.047,-1.047,-1.047,-1.047,-1.047,-1.0316,-1.0213,-1.011,-1.011,-2.6527,-2.7313,-2.8188,-2.857,-2.8631,-2.8493,-2.8384,-2.8378,-2.8755,-2.8636,-2.8158,-2.7791,-2.7579,-2.7352,-2.7004,-2.6411,-2.6021,-2.4988,-2.465,-2.4608,-2.4922,-2.5029,-2.4957,-2.5268,-2.5443,-2.4728,-2.4517,-2.4204,-2.3782,-2.3739,-2.3699,-2.3896,-2.4119,-2.434,-2.4264,-2.3818,-2.333,-2.3018,-2.2463,-2.2077,-2.1506,-2.062,-1.9793,-1.9396,-1.8796,-1.8129,-1.7429,-1.7331,-1.6851,-1.6303,-1.588,-1.5862,-1.5915,-1.5591,-1.5552,-1.576,-1.6021,-1.5631,-1.5256,-1.5058,-1.517,-1.4592,-1.4455,-1.4347,-1.4579,-1.4565,-1.4515,-1.4455,-1.4387,-1.4258,-1.4258,-1.4198,-1.4079,-1.395,-1.383,-1.3709,-1.3356,-1.2817,-1.2349,-1.2064,-1.1609,-1.1192,-1.115,-1.1141,-1.0828,-1.0573,-1.0522,-1.0522,-1.0522,-1.0522,-1.0522,-1.0522,-1.0522,-1.0522,-1.0522,-1.0522,-1.0522,-1.0522,-1.0522,-1.0522,-1.0522,-1.0522,-1.0522,-1.0522,-1.0522,-1.0522,-1.047,-1.0427,-1.0419,-1.0419,-1.0368,-1.0265,-1.0162,-1.011,-1.0058,-2.6706,-2.752,-2.8198,-2.8582,-2.8703,-2.8614,-2.85,-2.8466,-2.8898,-2.875,-2.8082,-2.7845,-2.7689,-2.7547,-2.7014,-2.671,-2.6068,-2.5086,-2.4567,-2.4526,-2.4628,-2.4725,-2.5096,-2.5423,-2.5537,-2.5026,-2.4784,-2.4542,-2.412,-2.3925,-2.3885,-2.3846,-2.382,-2.3911,-2.4015,-2.3629,-2.3171,-2.2992,-2.2555,-2.2077,-2.1554,-2.0412,-1.9607,-1.9092,-1.852,-1.7793,-1.7384,-1.7198,-1.6913,-1.6411,-1.6016,-1.5917,-1.5879,-1.5816,-1.566,-1.5721,-1.5695,-1.5488,-1.5159,-1.5192,-1.5417,-1.4906,-1.4559,-1.4529,-1.4573,-1.4616,-1.4515,-1.4556,-1.4497,-1.4506,-1.4497,-1.4446,-1.4387,-1.4198,-1.4258,-1.413,-1.3859,-1.338,-1.2889,-1.2487,-1.1978,-1.1524,-1.1447,-1.1404,-1.1032,-1.0726,-1.0573,-1.0522,-1.0522,-1.0522,-1.0522,-1.0522,-1.0522,-1.0522,-1.0522,-1.0522,-1.0522,-1.0522,-1.0522,-1.0522,-1.0522,-1.0522,-1.0522,-1.0522,-1.0522,-1.0522,-1.047,-1.047,-1.0368,-1.0316,-1.0265,-1.0162,-1.0058,-1.0007,-0.9844,-2.5966,-2.6776,-2.7576,-2.8644,-2.9635,-2.9725,-2.9457,-2.8969,-2.9001,-2.895,-2.8732,-2.8718,-2.8672,-2.8427,-2.7522,-2.7103,-2.6515,-2.5379,-2.4704,-2.4667,-2.4632,-2.4963,-2.5407,-2.5665,-2.5861,-2.5859,-2.5406,-2.4942,-2.4517,-2.4177,-2.4024,-2.3743,-2.348,-2.326,-2.358,-2.3568,-2.3334,-2.3068,-2.2558,-2.2243,-2.1611,-2.0422,-1.9653,-1.9059,-1.832,-1.7522,-1.7072,-1.6948,-1.6635,-1.6143,-1.5645,-1.5622,-1.5948,-1.5472,-1.5404,-1.5792,-1.5857,-1.5427,-1.4566,-1.4639,-1.4827,-1.4926,-1.4628,-1.4625,-1.4669,-1.4616,-1.4565,-1.4656,-1.4616,-1.4547,-1.4616,-1.4556,-1.4506,-1.4446,-1.4455,-1.4428,-1.4096,-1.3812,-1.3279,-1.2911,-1.241,-1.193,-1.1809,-1.1627,-1.1192,-1.0879,-1.0624,-1.0522,-1.0522,-1.0522,-1.0522,-1.0522,-1.0522,-1.0522,-1.0522,-1.0522,-1.0522,-1.0522,-1.0522,-1.0522,-1.0522,-1.0522,-1.0522,-1.0522,-1.0522,-1.0522,-1.0522,-1.047,-1.0368,-1.0265,-1.0162,-1.0058,-0.9955,-0.9895,-0.9792,-2.5948,-2.6727,-2.7007,-2.7691,-2.8668,-2.9608,-2.9257,-2.8041,-2.7417,-2.7568,-2.8326,-2.8368,-2.8319,-2.8213,-2.8351,-2.7852,-2.6982,-2.5993,-2.526,-2.4919,-2.4663,-2.5169,-2.5618,-2.5963,-2.6236,-2.609,-2.5668,-2.5176,-2.4735,-2.4385,-2.4109,-2.3857,-2.3288,-2.3009,-2.3113,-2.324,-2.3437,-2.3231,-2.2673,-2.2002,-2.1262,-1.998,-1.895,-1.8377,-1.7631,-1.698,-1.6502,-1.6489,-1.6195,-1.5743,-1.5219,-1.5385,-1.5768,-1.5379,-1.5557,-1.5891,-1.6068,-1.587,-1.541,-1.5426,-1.5275,-1.5027,-1.4802,-1.4801,-1.4953,-1.4902,-1.4843,-1.4715,-1.4666,-1.4666,-1.4556,-1.4506,-1.4506,-1.4455,-1.4515,-1.4515,-1.4269,-1.3968,-1.3621,-1.3403,-1.2987,-1.2366,-1.2019,-1.1831,-1.1429,-1.1184,-1.093,-1.0675,-1.0573,-1.0522,-1.0522,-1.0522,-1.0522,-1.0522,-1.0522,-1.0522,-1.0522,-1.0522,-1.0522,-1.0522,-1.0522,-1.0522,-1.0522,-1.0522,-1.0522,-1.0522,-1.047,-1.047,-1.0265,-1.0162,-1.011,-1.0058,-0.9955,-0.9844,-0.974,-2.5809,-2.6293,-2.6599,-2.6997,-2.7634,-2.8806,-2.8668,-2.768,-2.7017,-2.7382,-2.8367,-2.8484,-2.8458,-2.8584,-2.8676,-2.8638,-2.7518,-2.6244,-2.5438,-2.5004,-2.4242,-2.4452,-2.5012,-2.5834,-2.5878,-2.5932,-2.5881,-2.5475,-2.4716,-2.4545,-2.4174,-2.3692,-2.3259,-2.2819,-2.2727,-2.2724,-2.2969,-2.2738,-2.2204,-2.137,-2.0553,-1.9535,-1.8452,-1.7844,-1.7165,-1.6448,-1.6027,-1.5797,-1.5746,-1.5329,-1.5249,-1.5393,-1.5662,-1.5793,-1.5844,-1.6102,-1.5751,-1.5521,-1.5207,-1.5059,-1.4869,-1.4861,-1.478,-1.4917,-1.5148,-1.502,-1.497,-1.4911,-1.4834,-1.4784,-1.4734,-1.4684,-1.4556,-1.4556,-1.4506,-1.4506,-1.4451,-1.4157,-1.4066,-1.3818,-1.3332,-1.2736,-1.2186,-1.195,-1.1637,-1.1436,-1.1285,-1.093,-1.0675,-1.0624,-1.0573,-1.0522,-1.0522,-1.0522,-1.0522,-1.0522,-1.0522,-1.0522,-1.047,-1.0411,-1.0522,-1.0522,-1.0522,-1.047,-1.047,-1.047,-1.0462,-1.0411,-1.0316,-1.0213,-1.0154,-1.0051,-0.9955,-0.9844,-0.9732,-2.5515,-2.5626,-2.6347,-2.6627,-2.6812,-2.7509,-2.8056,-2.8525,-2.8289,-2.8558,-2.9191,-2.9026,-2.8704,-2.8805,-2.8627,-2.8069,-2.747,-2.6018,-2.5314,-2.4652,-2.3848,-2.3798,-2.4019,-2.4663,-2.5272,-2.5709,-2.5648,-2.5151,-2.4551,-2.4306,-2.3912,-2.3286,-2.2885,-2.2485,-2.2154,-2.1886,-2.2184,-2.2178,-2.1695,-2.0988,-2.03,-1.9058,-1.8246,-1.7629,-1.7008,-1.6296,-1.5972,-1.5906,-1.585,-1.5784,-1.5865,-1.6123,-1.625,-1.6238,-1.6207,-1.5913,-1.5164,-1.4971,-1.4563,-1.4551,-1.4576,-1.4739,-1.4943,-1.5119,-1.5177,-1.508,-1.4983,-1.505,-1.502,-1.5088,-1.5088,-1.4834,-1.4638,-1.4597,-1.4606,-1.4547,-1.4497,-1.4405,-1.4387,-1.4066,-1.3488,-1.2892,-1.2269,-1.1936,-1.1828,-1.1787,-1.1586,-1.1276,-1.1023,-1.082,-1.0718,-1.0522,-1.0522,-1.0522,-1.047,-1.047,-1.0522,-1.0522,-1.036,-1.03,-1.036,-1.0308,-1.0154,-1.0102,-1.0368,-1.047,-1.0462,-1.0462,-1.047,-1.036,-1.0257,-1.0102,-0.9955,-0.9784,-0.9673,-2.5612,-2.5586,-2.5793,-2.5848,-2.5881,-2.6099,-2.7258,-2.8783,-2.8165,-2.8404,-2.9622,-2.8203,-2.7734,-2.7546,-2.6242,-2.5812,-2.5322,-2.4808,-2.4347,-2.3875,-2.3714,-2.3781,-2.4071,-2.4448,-2.494,-2.4982,-2.4888,-2.4746,-2.4165,-2.3926,-2.3112,-2.2185,-2.2229,-2.1914,-2.1563,-2.1044,-2.1508,-2.1689,-2.1186,-2.0696,-1.9962,-1.8742,-1.8027,-1.7357,-1.6532,-1.5839,-1.5632,-1.5222,-1.5158,-1.5347,-1.4928,-1.5028,-1.589,-1.5874,-1.5852,-1.5957,-1.5773,-1.5705,-1.492,-1.4942,-1.4976,-1.4693,-1.474,-1.4968,-1.5107,-1.51,-1.4994,-1.509,-1.5196,-1.5264,-1.5147,-1.502,-1.4815,-1.4756,-1.4715,-1.4725,-1.4675,-1.4666,-1.4601,-1.3985,-1.3424,-1.2819,-1.2223,-1.2026,-1.1977,-1.1986,-1.1886,-1.1578,-1.1276,-1.1074,-1.071,-1.0462,-1.036,-1.0308,-1.0411,-1.0368,-1.047,-1.047,-1.0198,-0.9984,-0.9932,-0.988,-0.9681,-0.9784,-1.0095,-1.0308,-1.0462,-1.0462,-1.0522,-1.047,-1.0316,-1.0162,-0.9955,-0.9784,-0.9673,-2.564,-2.5607,-2.5566,-2.5532,-2.554,-2.5511,-2.6467,-2.7508,-2.7259,-2.7766,-2.855,-2.7278,-2.6596,-2.6376,-2.5244,-2.4578,-2.4414,-2.3932,-2.3603,-2.3817,-2.3565,-2.3523,-2.3772,-2.4274,-2.4464,-2.4459,-2.4449,-2.4408,-2.376,-2.3078,-2.2321,-2.2243,-2.1858,-2.1568,-2.1326,-2.093,-2.0848,-2.0998,-2.0847,-2.0444,-1.9657,-1.8734,-1.7963,-1.7235,-1.6242,-1.5633,-1.5234,-1.4723,-1.4815,-1.5095,-1.4727,-1.5233,-1.6014,-1.607,-1.6011,-1.61,-1.5936,-1.5846,-1.5415,-1.507,-1.5046,-1.4852,-1.4661,-1.4849,-1.5038,-1.515,-1.5204,-1.5264,-1.5332,-1.5381,-1.5264,-1.5088,-1.501,-1.4874,-1.4883,-1.4961,-1.4911,-1.4852,-1.4371,-1.3774,-1.3194,-1.2669,-1.2278,-1.2149,-1.2076,-1.2076,-1.1977,-1.1728,-1.1477,-1.1226,-1.071,-1.019,-1.0138,-1.0087,-1.0198,-1.0205,-1.0102,-0.9999,-0.9732,-0.9569,-0.951,-0.951,-0.9517,-0.9673,-0.9873,-1.0138,-1.0462,-1.047,-1.047,-1.0419,-1.0316,-1.011,-0.9955,-0.9895,-0.9784,-2.5605,-2.5624,-2.5609,-2.5593,-2.5586,-2.5531,-2.5518,-2.5471,-2.5977,-2.6587,-2.6957,-2.6186,-2.5659,-2.5244,-2.4094,-2.3626,-2.3336,-2.29,-2.2887,-2.3482,-2.2725,-2.262,-2.3218,-2.3699,-2.3816,-2.4066,-2.4154,-2.3904,-2.3177,-2.2585,-2.2391,-2.2643,-2.1886,-2.1475,-2.1283,-2.0621,-2.0382,-2.0345,-2.0174,-1.9778,-1.9726,-1.914,-1.8517,-1.8005,-1.6973,-1.5982,-1.5462,-1.522,-1.5222,-1.5428,-1.5606,-1.6026,-1.6414,-1.6532,-1.6484,-1.6182,-1.5917,-1.5692,-1.5357,-1.4963,-1.4836,-1.4777,-1.4842,-1.4877,-1.4992,-1.5184,-1.5246,-1.5438,-1.5546,-1.5556,-1.5498,-1.5381,-1.5254,-1.5177,-1.5128,-1.5156,-1.5176,-1.4868,-1.4195,-1.3588,-1.2989,-1.2499,-1.2204,-1.2076,-1.2076,-1.2076,-1.1977,-1.1778,-1.1528,-1.1276,-1.0812,-1.0131,-0.9976,-0.9984,-0.9991,-0.9991,-0.9732,-0.9524,-0.942,-0.9413,-0.9562,-0.9517,-0.9368,-0.9621,-0.9873,-1.0198,-1.047,-1.047,-1.0419,-1.0316,-1.0213,-1.0007,-0.9903,-0.9962,-0.9933,-2.5687,-2.5673,-2.5625,-2.5603,-2.5604,-2.56,-2.5179,-2.4594,-2.4682,-2.5456,-2.6194,-2.5057,-2.4206,-2.3922,-2.2154,-2.155,-2.1768,-2.1804,-2.1824,-2.2151,-2.1881,-2.205,-2.2532,-2.2807,-2.3,-2.3252,-2.3345,-2.3309,-2.2688,-2.2274,-2.1894,-2.1665,-2.1213,-2.1051,-2.0905,-2.0208,-1.9844,-1.9764,-1.9403,-1.9487,-1.9791,-1.9051,-1.83,-1.7419,-1.6326,-1.5582,-1.5017,-1.4502,-1.5086,-1.566,-1.5453,-1.5953,-1.6731,-1.6795,-1.6595,-1.6182,-1.582,-1.5584,-1.5165,-1.4755,-1.4516,-1.4461,-1.4555,-1.4779,-1.4964,-1.5127,-1.5381,-1.5666,-1.5788,-1.5788,-1.573,-1.5624,-1.5556,-1.543,-1.5362,-1.5342,-1.5371,-1.4716,-1.3987,-1.3471,-1.287,-1.2471,-1.2227,-1.2076,-1.2076,-1.1977,-1.1828,-1.1669,-1.1418,-1.1167,-1.0922,-1.0344,-0.9976,-0.9873,-0.988,-0.9836,-0.9629,-0.9629,-0.9629,-0.9621,-0.9614,-0.9517,-0.9465,-0.9666,-0.9917,-1.0198,-1.0368,-1.0375,-1.0324,-1.0265,-1.0213,-1.0058,-0.9977,-0.9993,-1.0023,-2.5693,-2.5698,-2.5661,-2.5662,-2.5568,-2.521,-2.4732,-2.4277,-2.3853,-2.4135,-2.4675,-2.3458,-2.2672,-2.2467,-2.0637,-2.0031,-2.054,-2.047,-2.0952,-2.1295,-2.1401,-2.1606,-2.1823,-2.1992,-2.1979,-2.2233,-2.2623,-2.2583,-2.2304,-2.1858,-2.1507,-2.1013,-2.0689,-2.0251,-2.0079,-1.9604,-1.9322,-1.9231,-1.8761,-1.8998,-1.9508,-1.8604,-1.787,-1.6896,-1.6039,-1.5326,-1.485,-1.4358,-1.4787,-1.5723,-1.5957,-1.6278,-1.6828,-1.6918,-1.6778,-1.6552,-1.6238,-1.5844,-1.5311,-1.4869,-1.4496,-1.4584,-1.4733,-1.5163,-1.5584,-1.5818,-1.5818,-1.6066,-1.5951,-1.5951,-1.5856,-1.574,-1.5662,-1.5584,-1.5546,-1.5566,-1.5342,-1.4802,-1.4382,-1.4134,-1.3431,-1.2749,-1.2494,-1.2289,-1.2221,-1.2076,-1.1927,-1.1678,-1.1368,-1.1116,-1.0812,-1.0557,-1.019,-0.9718,-0.9569,-0.9577,-0.9577,-0.9681,-0.9836,-0.9621,-0.9465,-0.951,-0.9562,-0.9769,-0.9976,-1.0198,-1.0308,-1.0316,-1.0265,-1.0162,-1.0162,-1.0102,-1.0089,-1.0045,-1.015,-2.5486,-2.5531,-2.5631,-2.56,-2.5427,-2.47,-2.4152,-2.3826,-2.317,-2.276,-2.2664,-2.1835,-2.1366,-2.1072,-2.0437,-2.0148,-2.0028,-2.0092,-2.0458,-2.0639,-2.0658,-2.1013,-2.1256,-2.1352,-2.1399,-2.1545,-2.1886,-2.22,-2.2317,-2.1685,-2.1046,-2.0565,-1.9915,-1.9216,-1.9151,-1.9014,-1.8913,-1.8763,-1.8518,-1.8403,-1.8205,-1.7849,-1.7528,-1.6833,-1.6022,-1.5284,-1.4904,-1.4762,-1.4812,-1.5557,-1.6428,-1.6725,-1.6892,-1.6983,-1.7044,-1.6905,-1.6778,-1.6436,-1.6032,-1.549,-1.5269,-1.5244,-1.5387,-1.5667,-1.6063,-1.6282,-1.6342,-1.6343,-1.6285,-1.6161,-1.6009,-1.5914,-1.5836,-1.57,-1.572,-1.5672,-1.5321,-1.4935,-1.4714,-1.455,-1.3847,-1.3049,-1.2702,-1.2488,-1.2289,-1.2144,-1.1977,-1.1728,-1.1477,-1.1167,-1.0863,-1.0608,-1.0344,-0.988,-0.9577,-0.9629,-0.9784,-0.9836,-0.9991,-0.9621,-0.9413,-0.9725,-0.9932,-0.9932,-1.0146,-1.0308,-1.0308,-1.0316,-1.0213,-1.0058,-0.9947,-0.9947,-0.9918,-0.9971,-1.023,-2.4569,-2.4618,-2.5313,-2.5225,-2.462,-2.4414,-2.3605,-2.2396,-2.2137,-2.1655,-2.122,-2.0934,-2.0868,-2.1413,-2.0497,-2.0089,-2.0038,-1.9985,-1.9952,-2.0134,-2.0226,-2.0535,-2.0756,-2.0807,-2.1023,-2.1223,-2.1314,-2.1324,-2.1688,-2.1213,-2.0685,-2.0204,-1.9992,-1.9525,-1.9295,-1.8995,-1.8431,-1.8243,-1.7876,-1.763,-1.7732,-1.7577,-1.7563,-1.7025,-1.6478,-1.5676,-1.5128,-1.501,-1.5372,-1.6039,-1.6797,-1.705,-1.7128,-1.7221,-1.7325,-1.724,-1.7073,-1.665,-1.6151,-1.5756,-1.5486,-1.5112,-1.5329,-1.5858,-1.6286,-1.6688,-1.6749,-1.6786,-1.6729,-1.6528,-1.6436,-1.6249,-1.6181,-1.5941,-1.5826,-1.571,-1.5458,-1.5059,-1.4749,-1.4392,-1.3859,-1.3266,-1.2875,-1.2581,-1.2262,-1.2126,-1.1927,-1.1728,-1.1619,-1.1267,-1.0913,-1.071,-1.0506,-1.0462,-1.0257,-1.0154,-1.0205,-1.0205,-1.0154,-0.9991,-0.9991,-1.0249,-1.036,-1.0249,-1.03,-1.0411,-1.0419,-1.0265,-1.0162,-0.9999,-0.9784,-0.9681,-0.9747,-0.9836,-1.008]},{"header":{"parameterUnit":"m.s-1","parameterCategory":1,"la1":31.0,"la2":29.5877,"lo1":-88.7671,"lo2":-86.6584,"dy":0.0162,"dx":0.0185,"nx":115,"ny":88,"refTime":"2023-05-12T12:00:00:Z","depth":0,"parameterNumber":3,"parameterNumberName":"V-component_of_WINDS"},"data":[0.0,0.0,0.0,0.0,0.0,0.0,0.0,0.0,0.0,0.0,0.0,0.0,0.0,0.0,0.0,0.0,0.0,0.0,0.0,0.0,0.0,0.0,0.0,0.0,0.0,0.0,0.0,0.0,0.0,0.0,0.0,0.0,0.0,0.0,0.0,0.0,0.0,0.0,0.0,0.0,0.0,0.0,0.0,0.0,0.0,0.0,0.0,0.0,0.0,0.0,0.0,0.0,0.0,0.0,0.0,0.0,0.0,0.0,0.0,0.0,0.0,0.0,0.0,0.0,0.0,0.0,0.0,0.0,0.0,0.0,0.0,0.0,0.0,0.0,0.0,0.0,0.0,0.0,0.0,0.0,0.0,0.0,0.0,0.0,0.0,0.0,0.0,0.0,0.0,0.0,0.0,0.0,0.0,0.0,0.0,0.0,0.0,0.0,0.0,0.0,0.0,0.0,0.0,0.0,0.0,0.0,0.0,0.0,0.0,0.0,0.0,0.0,0.0,0.0,0.0,0.0,0.0,0.0,0.0,0.0,0.0,0.0,0.0,0.0,0.0,0.0,0.0,0.0,0.0,0.0,0.0,0.0,0.0,0.0,0.0,0.0,0.0,0.0,0.0,0.0,0.0,0.0,0.0,0.0,0.0,0.0,0.0,0.0,0.0,0.0,0.0,0.0,0.0,0.0,0.0,0.0,0.0,0.0,0.0,0.0,0.0,0.0,0.0,0.0,0.0,0.0,0.0,0.0,0.0,0.0,0.0,0.0,0.0,0.0,0.0,0.0,0.0,0.0,0.0,0.0,0.0,0.0,0.0,0.0,0.0,0.0,0.0,0.0,0.0,0.0,0.0,0.0,0.0,0.0,0.0,0.0,0.0,0.0,0.0,0.0,0.0,0.0,0.0,0.0,0.0,0.0,0.0,0.0,0.0,0.0,0.0,0.0,0.0,0.0,0.0,0.0,0.0,0.0,0.0,0.0,0.0,0.0,0.0,0.0,0.0,0.0,0.0,0.0,0.0,0.0,0.0,0.0,0.0,0.0,0.0,0.0,0.0,0.0,0.0,0.0,0.0,0.0,0.0,0.0,0.0,0.0,0.0,0.0,0.0,0.0,0.0,0.0,0.0,0.0,0.0,0.0,0.0,0.0,0.0,0.0,0.0,0.0,0.0,0.0,0.0,0.0,0.0,0.0,0.0,0.0,0.0,0.0,0.0,0.0,0.0,0.0,0.0,0.0,0.0,0.0,0.0,0.0,0.0,0.0,0.0,0.0,0.0,0.0,0.0,0.0,0.0,0.0,0.0,0.0,0.0,0.0,0.0,0.0,0.0,0.0,0.0,0.0,0.0,0.0,0.0,0.0,0.0,0.0,0.0,0.0,0.0,0.0,0.0,0.0,0.0,0.0,0.0,0.0,0.0,0.0,0.0,0.0,0.0,0.0,0.0,0.0,0.0,0.0,0.0,0.0,0.0,0.0,0.0,0.0,0.0,0.0,0.0,0.0,0.0,0.0,0.0,0.0,0.0,0.0,0.0,0.0,0.0,0.0,0.0,0.0,0.0,0.0,0.0,0.0,0.0,0.0,0.0,0.0,0.0,0.0,0.0,0.0,0.0,0.0,0.0,0.0,0.0,0.0,0.0,0.0,0.0,0.0,0.0,0.0,0.0,0.0,0.0,0.0,0.0,0.0,0.0,0.0,0.0,0.0,0.0,0.0,0.0,0.0,0.0,0.0,0.0,0.0,0.0,0.0,0.0,0.0,0.0,0.0,0.0,0.0,0.0,0.0,0.0,0.0,0.0,0.0,0.0,0.0,0.0,0.0,0.0,0.0,0.0,0.0,0.0,0.0,0.0,0.0,0.0,0.0,0.0,0.0,0.0,0.0,0.0,0.0,0.0,0.0,0.0,0.0,0.0,0.0,0.0,0.0,0.0,0.0,0.0,0.0,0.0,0.0,0.0,0.0,0.0,0.0,0.0,0.0,0.0,0.0,0.0,0.0,0.0,0.0,0.0,0.0,0.0,0.0,0.0,0.0,0.0,0.0,0.0,0.0,0.0,0.0,0.0,0.0,0.0,0.0,0.0,0.0,0.0,0.0,0.0,0.0,0.0,0.0,0.0,0.0,0.0,0.0,0.0,0.0,0.0,0.0,0.0,0.0,0.0,0.0,0.0,0.0,0.0,0.0,0.0,0.0,0.0,0.0,0.0,0.0,0.0,0.0,0.0,0.0,0.0,0.0,0.0,0.0,0.0,0.0,0.0,0.0,0.0,0.0,0.0,0.0,0.0,0.0,0.0,0.0,0.0,0.0,0.0,0.0,0.0,0.0,0.0,0.0,0.0,0.0,0.0,0.0,0.0,0.0,0.0,0.0,0.0,0.0,0.0,0.0,0.0,0.0,0.0,0.0,0.0,0.0,0.0,0.0,0.0,0.0,0.0,0.0,0.0,0.0,0.0,0.0,0.0,0.0,0.0,0.0,0.0,0.0,0.0,0.0,0.0,0.0,0.0,0.0,0.0,0.0,0.0,0.0,0.0,0.0,0.0,0.0,0.0,0.0,0.0,0.0,0.0,0.0,0.0,0.0,0.0,0.0,0.0,0.0,0.0,0.0,0.0,0.0,0.0,0.0,0.0,0.0,0.0,0.0,0.0,0.0,0.0,0.0,0.0,0.0,0.0,0.0,0.0,0.0,0.0,0.0,0.0,0.0,0.0,0.0,0.0,0.0,0.0,0.0,0.0,0.0,0.0,0.0,0.0,0.0,0.0,0.0,0.0,0.0,0.0,0.0,0.0,0.0,0.0,0.0,0.0,0.0,0.0,0.0,0.0,0.0,0.0,0.0,0.0,0.0,0.0,0.0,0.0,0.0,0.0,0.0,0.0,0.0,0.0,0.0,0.0,0.0,0.0,0.0,0.0,0.0,0.0,0.0,0.0,0.0,0.0,0.0,0.0,0.0,0.0,0.0,0.0,0.0,0.0,0.0,0.0,0.0,0.0,0.0,0.0,0.0,0.0,0.0,0.0,0.0,0.0,0.0,0.0,0.0,0.0,0.0,0.0,0.0,0.0,0.0,0.0,0.0,0.0,0.0,0.0,0.0,0.0,0.0,0.0,0.0,0.0,0.0,0.0,0.0,0.0,0.0,0.0,0.0,0.0,0.0,0.0,0.0,0.0,0.0,0.0,0.0,0.0,0.0,0.0,0.0,0.0,0.0,0.0,0.0,0.0,0.0,0.0,0.0,0.0,0.0,0.0,0.0,0.0,0.0,0.0,0.0,0.0,0.0,0.0,0.0,0.0,0.0,0.0,0.0,0.0,0.0,0.0,0.0,0.0,0.0,0.0,0.0,0.0,0.0,0.0,0.0,0.0,0.0,0.0,0.0,0.0,0.0,0.0,0.0,0.0,0.0,0.0,0.0,0.0,0.0,0.0,0.0,0.0,0.0,0.0,0.0,0.0,0.0,0.0,0.0,0.0,0.0,0.0,0.0,0.0,0.0,0.0,0.0,0.0,0.0,0.0,0.0,0.0,0.0,0.0,0.0,0.0,0.0,0.0,0.0,0.0,0.0,0.0,0.0,0.0,0.0,0.0,0.0,0.0,0.0,0.0,0.0,0.0,0.0,0.0,0.0,0.0,0.0,0.0,0.0,0.0,0.0,0.0,0.0,0.0,0.0,0.0,0.0,0.0,0.0,0.0,0.0,0.0,0.0,0.0,0.0,0.0,0.0,0.0,0.0,0.0,0.0,0.0,0.0,0.0,0.0,0.0,0.0,0.0,0.0,0.0,0.0,0.0,0.0,0.0,0.0,0.0,0.0,0.0,0.0,0.0,0.0,0.0,0.0,0.0,0.0,0.0,0.0,0.0,0.0,0.0,0.0,0.0,0.0,0.0,0.0,0.0,0.0,0.0,0.0,0.0,0.0,0.0,0.0,0.0,0.0,0.0,0.0,0.0,0.0,0.0,0.0,0.0,0.0,0.0,0.0,0.0,0.0,0.0,0.0,0.0,0.0,0.0,0.0,0.0,0.0,0.0,0.0,0.0,0.0,0.0,0.0,0.0,0.0,0.0,0.0,0.0,0.0,0.0,0.0,0.0,0.0,0.0,0.0,0.0,0.0,0.0,0.0,0.0,0.0,0.0,0.0,0.0,0.0,0.0,0.0,0.0,0.0,0.0,0.0,0.0,0.0,0.0,0.0,0.0,0.0,0.0,0.0,0.0,0.0,0.0,0.0,0.0,0.0,0.0,0.0,0.0,0.0,0.0,0.0,0.0,0.0,0.0,0.0,-1.8887,0.0,0.0,0.0,0.0,0.0,0.0,0.0,0.0,0.0,0.0,0.0,0.0,0.0,0.0,0.0,0.0,0.0,0.0,0.0,0.0,0.0,0.0,0.0,0.0,0.0,0.0,0.0,0.0,0.0,0.0,0.0,0.0,0.0,0.0,0.0,0.0,0.0,0.0,0.0,0.0,0.0,0.0,0.0,0.0,0.0,0.0,0.0,0.0,0.0,0.0,0.0,0.0,0.0,0.0,0.0,0.0,0.0,0.0,0.0,0.0,0.0,0.0,0.0,0.0,0.0,0.0,0.0,0.0,0.0,0.0,0.0,0.0,0.0,0.0,0.0,0.0,0.0,0.0,0.0,0.0,0.0,0.0,0.0,0.0,0.0,0.0,0.0,0.0,0.0,0.0,0.0,0.0,0.0,0.0,0.0,0.0,0.0,0.0,0.0,0.0,0.0,0.0,0.0,0.0,0.0,0.0,0.0,0.0,0.0,0.0,-2.1259,-2.1086,-2.1023,-2.0273,-1.8829,0.0,0.0,0.0,0.0,0.0,0.0,0.0,0.0,0.0,0.0,0.0,0.0,0.0,0.0,0.0,0.0,0.0,0.0,0.0,0.0,0.0,0.0,0.0,0.0,0.0,0.0,0.0,0.0,0.0,0.0,0.0,0.0,0.0,0.0,0.0,0.0,0.0,0.0,0.0,0.0,0.0,0.0,0.0,0.0,0.0,0.0,0.0,0.0,0.0,0.0,0.0,0.0,0.0,0.0,0.0,0.0,0.0,0.0,0.0,0.0,0.0,0.0,0.0,0.0,0.0,0.0,0.0,0.0,0.0,0.0,0.0,0.0,0.0,0.0,0.0,0.0,0.0,0.0,0.0,0.0,0.0,0.0,0.0,0.0,0.0,0.0,0.0,0.0,0.0,0.0,0.0,0.0,0.0,0.0,0.0,0.0,0.0,0.0,0.0,0.0,0.0,0.0,0.0,0.0,0.0,0.0,0.0,0.0,0.0,0.0,0.0,0.0,-2.1487,-2.0805,-1.9688,0.0,0.0,0.0,0.0,0.0,0.0,0.0,0.0,0.0,0.0,0.0,0.0,0.0,0.0,0.0,0.0,0.0,0.0,0.0,0.0,0.0,0.0,0.0,0.0,0.0,0.0,0.0,0.0,0.0,0.0,0.0,0.0,0.0,0.0,0.0,0.0,0.0,0.0,0.0,0.0,0.0,0.0,0.0,0.0,0.0,0.0,0.0,0.0,0.0,0.0,0.0,0.0,0.0,0.0,0.0,0.0,0.0,0.0,0.0,0.0,0.0,0.0,0.0,0.0,0.0,0.0,0.0,0.0,0.0,0.0,0.0,0.0,0.0,0.0,0.0,0.0,0.0,0.0,0.0,0.0,0.0,0.0,0.0,0.0,0.0,0.0,0.0,0.0,0.0,0.0,0.0,0.0,0.0,0.0,0.0,0.0,0.0,0.0,0.0,0.0,0.0,0.0,0.0,0.0,0.0,0.0,0.0,0.0,0.0,0.0,-2.1639,-2.2745,-2.2828,0.0,-2.204,0.0,0.0,0.0,0.0,0.0,0.0,0.0,0.0,0.0,0.0,0.0,0.0,0.0,0.0,0.0,0.0,0.0,0.0,0.0,0.0,0.0,0.0,0.0,0.0,0.0,0.0,0.0,0.0,0.0,0.0,0.0,0.0,0.0,0.0,0.0,0.0,0.0,0.0,0.0,0.0,0.0,0.0,0.0,0.0,0.0,0.0,0.0,0.0,0.0,0.0,0.0,0.0,0.0,0.0,0.0,0.0,0.0,0.0,0.0,0.0,0.0,0.0,0.0,0.0,0.0,0.0,0.0,0.0,0.0,0.0,0.0,0.0,0.0,0.0,0.0,0.0,0.0,0.0,0.0,0.0,0.0,0.0,0.0,0.0,0.0,0.0,0.0,0.0,0.0,0.0,0.0,0.0,0.0,0.0,0.0,0.0,0.0,0.0,0.0,0.0,0.0,0.0,0.0,0.0,0.0,0.0,0.0,0.0,0.0,0.0,-2.1667,-2.304,-2.2258,-2.1645,0.0,0.0,0.0,0.0,0.0,0.0,0.0,0.0,0.0,0.0,0.0,0.0,0.0,0.0,0.0,0.0,0.0,0.0,0.0,0.0,0.0,0.0,0.0,0.0,0.0,0.0,0.0,0.0,0.0,0.0,0.0,0.0,0.0,0.0,0.0,0.0,0.0,0.0,0.0,0.0,0.0,0.0,0.0,0.0,0.0,0.0,0.0,0.0,0.0,0.0,0.0,0.0,0.0,0.0,0.0,0.0,0.0,0.0,0.0,0.0,0.0,0.0,0.0,0.0,0.0,0.0,0.0,0.0,0.0,0.0,0.0,0.0,0.0,0.0,0.0,0.0,0.0,0.0,0.0,0.0,0.0,0.0,0.0,0.0,0.0,0.0,0.0,0.0,0.0,0.0,0.0,0.0,0.0,0.0,0.0,0.0,0.0,0.0,0.0,0.0,0.0,0.0,0.0,0.0,0.0,0.0,0.0,0.0,0.0,0.0,-2.1812,-2.1966,-2.3227,-2.1607,-2.0711,-2.0799,0.0,0.0,0.0,0.0,0.0,0.0,0.0,0.0,0.0,0.0,0.0,0.0,0.0,0.0,0.0,0.0,0.0,0.0,0.0,0.0,0.0,0.0,0.0,0.0,0.0,0.0,0.0,0.0,0.0,0.0,0.0,0.0,0.0,0.0,0.0,0.0,0.0,0.0,0.0,0.0,0.0,0.0,0.0,0.0,0.0,0.0,0.0,0.0,0.0,0.0,0.0,0.0,0.0,0.0,0.0,0.0,0.0,0.0,0.0,0.0,0.0,0.0,0.0,0.0,0.0,0.0,0.0,0.0,0.0,0.0,0.0,0.0,0.0,0.0,0.0,0.0,0.0,0.0,0.0,0.0,0.0,0.0,0.0,0.0,0.0,0.0,0.0,0.0,0.0,0.0,0.0,0.0,0.0,0.0,0.0,0.0,0.0,0.0,0.0,0.0,0.0,0.0,0.0,0.0,0.0,0.0,0.0,0.0,-2.4941,-2.298,-2.254,-2.3809,-2.1408,-2.0479,0.0,0.0,0.0,0.0,0.0,0.0,0.0,0.0,0.0,0.0,0.0,0.0,0.0,0.0,0.0,0.0,0.0,0.0,0.0,0.0,0.0,0.0,0.0,0.0,0.0,0.0,0.0,0.0,0.0,0.0,0.0,0.0,0.0,0.0,0.0,0.0,0.0,0.0,0.0,0.0,0.0,0.0,0.0,0.0,0.0,0.0,0.0,0.0,0.0,0.0,0.0,0.0,0.0,0.0,0.0,0.0,0.0,0.0,0.0,0.0,0.0,0.0,0.0,0.0,0.0,0.0,0.0,0.0,0.0,0.0,0.0,0.0,0.0,0.0,0.0,0.0,0.0,0.0,0.0,0.0,0.0,0.0,0.0,0.0,0.0,0.0,0.0,0.0,0.0,0.0,0.0,0.0,0.0,0.0,0.0,0.0,0.0,0.0,0.0,0.0,0.0,0.0,0.0,0.0,0.0,0.0,0.0,0.0,0.0,-2.0864,-2.1347,-2.1877,-2.2492,-2.0791,-2.0053,0.0,0.0,0.0,0.0,0.0,0.0,0.0,0.0,0.0,0.0,0.0,0.0,0.0,0.0,0.0,0.0,0.0,0.0,0.0,0.0,0.0,0.0,0.0,0.0,0.0,0.0,0.0,0.0,0.0,0.0,0.0,0.0,0.0,0.0,0.0,0.0,0.0,0.0,0.0,0.0,0.0,0.0,0.0,0.0,0.0,0.0,0.0,0.0,0.0,0.0,0.0,0.0,0.0,0.0,0.0,0.0,0.0,0.0,0.0,0.0,0.0,0.0,0.0,0.0,0.0,0.0,0.0,0.0,0.0,0.0,0.0,0.0,0.0,0.0,0.0,0.0,0.0,0.0,0.0,0.0,0.0,0.0,0.0,0.0,0.0,0.0,0.0,0.0,0.0,0.0,0.0,0.0,0.0,0.0,0.0,0.0,0.0,0.0,0.0,0.0,0.0,0.0,0.0,0.0,0.0,0.0,0.0,0.0,0.0,-1.8997,0.0,-2.2027,-2.1556,-2.0127,-1.9217,0.0,0.0,0.0,0.0,0.0,0.0,0.0,0.0,0.0,0.0,0.0,0.0,0.0,0.0,0.0,0.0,0.0,0.0,0.0,0.0,0.0,0.0,0.0,0.0,0.0,0.0,0.0,0.0,0.0,0.0,0.0,0.0,0.0,0.0,0.0,0.0,0.0,0.0,0.0,0.0,0.0,0.0,0.0,0.0,0.0,0.0,0.0,0.0,0.0,0.0,0.0,0.0,0.0,0.0,0.0,0.0,0.0,0.0,0.0,0.0,0.0,0.0,0.0,0.0,0.0,0.0,0.0,0.0,0.0,0.0,0.0,0.0,0.0,0.0,0.0,0.0,0.0,0.0,0.0,0.0,0.0,0.0,0.0,0.0,0.0,0.0,0.0,0.0,0.0,0.0,0.0,0.0,0.0,0.0,0.0,0.0,0.0,0.0,0.0,0.0,0.0,0.0,0.0,0.0,0.0,0.0,0.0,0.0,-1.7196,-2.0126,-2.247,-2.2829,-2.1164,-1.9491,-1.7946,0.0,0.0,0.0,0.0,0.0,0.0,0.0,0.0,0.0,0.0,0.0,0.0,0.0,0.0,0.0,0.0,0.0,0.0,0.0,0.0,0.0,0.0,0.0,0.0,0.0,0.0,0.0,0.0,0.0,0.0,0.0,0.0,0.0,0.0,0.0,0.0,0.0,0.0,0.0,0.0,0.0,0.0,0.0,0.0,0.0,0.0,0.0,0.0,0.0,0.0,0.0,0.0,0.0,0.0,0.0,0.0,0.0,0.0,0.0,0.0,0.0,0.0,0.0,0.0,0.0,0.0,0.0,0.0,0.0,0.0,0.0,0.0,0.0,0.0,0.0,0.0,0.0,0.0,0.0,0.0,0.0,0.0,0.0,0.0,0.0,0.0,0.0,0.0,0.0,0.0,0.0,0.0,0.0,0.0,0.0,0.0,0.0,0.0,0.0,0.0,0.0,0.0,0.0,0.0,0.0,0.0,0.0,0.0,0.0,-1.7784,-1.9625,-2.1434,-2.2911,-1.9181,-1.7914,0.0,0.0,0.0,0.0,0.0,0.0,0.0,0.0,0.0,0.0,0.0,0.0,0.0,0.0,0.0,0.0,0.0,0.0,0.0,0.0,0.0,0.0,0.0,0.0,0.0,0.0,0.0,0.0,0.0,0.0,0.0,0.0,0.0,0.0,0.0,0.0,0.0,0.0,0.0,0.0,0.0,0.0,0.0,0.0,0.0,0.0,0.0,0.0,0.0,0.0,0.0,0.0,0.0,0.0,0.0,0.0,0.0,0.0,0.0,0.0,0.0,0.0,0.0,0.0,0.0,0.0,0.0,0.0,0.0,0.0,0.0,0.0,0.0,0.0,0.0,0.0,0.0,0.0,0.0,0.0,0.0,0.0,0.0,0.0,0.0,0.0,0.0,0.0,0.0,0.0,0.0,0.0,0.0,0.0,0.0,0.0,0.0,0.0,0.0,0.0,0.0,0.0,0.0,0.0,0.0,0.0,0.0,0.0,0.0,-1.7467,-1.9293,-2.1062,-2.2662,-1.9044,-1.7739,-1.914,0.0,0.0,0.0,0.0,0.0,0.0,0.0,0.0,0.0,0.0,0.0,0.0,0.0,0.0,0.0,0.0,0.0,0.0,0.0,0.0,0.0,0.0,0.0,0.0,0.0,0.0,0.0,0.0,0.0,0.0,0.0,0.0,0.0,0.0,0.0,0.0,0.0,0.0,0.0,0.0,0.0,0.0,0.0,0.0,0.0,0.0,0.0,0.0,0.0,0.0,0.0,0.0,0.0,0.0,0.0,0.0,0.0,0.0,0.0,0.0,0.0,0.0,0.0,0.0,0.0,0.0,0.0,0.0,0.0,0.0,0.0,0.0,0.0,0.0,0.0,0.0,0.0,0.0,0.0,0.0,0.0,0.0,0.0,0.0,0.0,0.0,0.0,0.0,0.0,0.0,0.0,0.0,0.0,0.0,0.0,0.0,0.0,0.0,0.0,0.0,0.0,0.0,0.0,0.0,0.0,0.0,0.0,0.0,-1.885,-2.1166,-2.1866,-2.0801,-1.9194,-1.7625,0.0,0.0,0.0,0.0,0.0,0.0,0.0,0.0,0.0,0.0,0.0,0.0,0.0,0.0,0.0,0.0,0.0,0.0,0.0,0.0,0.0,0.0,0.0,0.0,0.0,0.0,0.0,0.0,0.0,0.0,0.0,0.0,0.0,0.0,0.0,0.0,0.0,0.0,0.0,0.0,0.0,0.0,0.0,0.0,0.0,0.0,0.0,0.0,0.0,0.0,0.0,0.0,0.0,0.0,0.0,0.0,0.0,0.0,0.0,0.0,0.0,0.0,0.0,0.0,0.0,0.0,0.0,0.0,0.0,0.0,0.0,0.0,0.0,0.0,0.0,0.0,0.0,0.0,0.0,0.0,0.0,0.0,0.0,0.0,0.0,0.0,0.0,0.0,0.0,0.0,0.0,0.0,0.0,0.0,0.0,0.0,0.0,0.0,0.0,0.0,0.0,0.0,0.0,0.0,0.0,0.0,0.0,0.0,0.0,-2.0619,-2.2158,-2.3248,-2.3827,-2.0671,-1.9099,0.0,0.0,0.0,0.0,0.0,0.0,0.0,0.0,0.0,0.0,0.0,0.0,0.0,0.0,0.0,0.0,0.0,0.0,0.0,0.0,0.0,0.0,0.0,0.0,0.0,0.0,0.0,0.0,0.0,0.0,0.0,0.0,0.0,0.0,0.0,0.0,0.0,0.0,0.0,0.0,0.0,0.0,0.0,0.0,0.0,0.0,0.0,0.0,0.0,0.0,0.0,0.0,0.0,0.0,0.0,0.0,0.0,0.0,0.0,0.0,0.0,0.0,0.0,0.0,0.0,0.0,0.0,0.0,0.0,0.0,0.0,0.0,0.0,0.0,0.0,0.0,0.0,0.0,0.0,0.0,0.0,0.0,0.0,0.0,0.0,0.0,0.0,0.0,0.0,0.0,0.0,0.0,0.0,0.0,0.0,0.0,0.0,0.0,0.0,0.0,0.0,0.0,0.0,0.0,0.0,0.0,0.0,0.0,-2.0756,-2.2451,-2.4356,-2.5721,-2.6382,-2.3034,-2.0699,0.0,0.0,0.0,0.0,0.0,0.0,0.0,0.0,0.0,0.0,0.0,0.0,0.0,0.0,0.0,0.0,0.0,0.0,0.0,0.0,0.0,0.0,0.0,0.0,0.0,0.0,0.0,0.0,0.0,0.0,0.0,0.0,0.0,0.0,0.0,0.0,0.0,0.0,0.0,0.0,0.0,0.0,0.0,0.0,0.0,0.0,0.0,0.0,0.0,0.0,0.0,0.0,0.0,0.0,0.0,0.0,0.0,0.0,0.0,0.0,0.0,0.0,0.0,0.0,0.0,0.0,0.0,0.0,0.0,0.0,0.0,0.0,0.0,0.0,0.0,0.0,0.0,0.0,0.0,0.0,0.0,0.0,0.0,0.0,0.0,0.0,0.0,0.0,0.0,0.0,0.0,0.0,0.0,0.0,0.0,0.0,0.0,0.0,0.0,0.0,0.0,0.0,0.0,0.0,0.0,0.0,0.0,0.0,-2.2899,-2.3963,-2.693,-2.8317,-2.7839,-2.5415,-2.2313,0.0,0.0,0.0,0.0,0.0,0.0,0.0,0.0,0.0,0.0,0.0,0.0,0.0,0.0,0.0,0.0,0.0,0.0,0.0,0.0,0.0,0.0,0.0,0.0,0.0,0.0,0.0,0.0,0.0,0.0,0.0,0.0,0.0,0.0,0.0,0.0,0.0,0.0,0.0,0.0,0.0,0.0,0.0,0.0,0.0,0.0,0.0,0.0,0.0,0.0,0.0,0.0,0.0,0.0,0.0,0.0,0.0,0.0,0.0,0.0,0.0,0.0,0.0,0.0,0.0,0.0,0.0,0.0,0.0,0.0,0.0,0.0,0.0,0.0,0.0,0.0,0.0,0.0,0.0,0.0,0.0,0.0,0.0,0.0,0.0,0.0,0.0,0.0,0.0,0.0,0.0,0.0,0.0,0.0,0.0,0.0,0.0,0.0,0.0,0.0,0.0,0.0,0.0,0.0,0.0,0.0,0.0,0.0,-2.2891,-2.3986,-2.6356,-2.7473,-2.7357,-2.4796,-2.2617,0.0,0.0,0.0,0.0,0.0,0.0,0.0,0.0,0.0,0.0,0.0,0.0,0.0,0.0,0.0,0.0,0.0,0.0,0.0,0.0,0.0,0.0,0.0,0.0,0.0,0.0,0.0,0.0,0.0,0.0,0.0,0.0,0.0,0.0,0.0,0.0,0.0,0.0,0.0,0.0,0.0,0.0,0.0,0.0,0.0,0.0,0.0,0.0,-2.4553,0.0,0.0,0.0,0.0,0.0,0.0,0.0,0.0,0.0,0.0,0.0,0.0,0.0,0.0,0.0,0.0,0.0,0.0,0.0,0.0,0.0,0.0,0.0,0.0,0.0,0.0,0.0,0.0,0.0,0.0,0.0,0.0,0.0,0.0,0.0,0.0,0.0,0.0,0.0,0.0,0.0,0.0,0.0,0.0,0.0,0.0,0.0,0.0,0.0,0.0,0.0,0.0,0.0,0.0,0.0,0.0,0.0,0.0,0.0,-2.4132,-2.5749,-2.7637,-2.8711,-2.8856,-2.6335,-2.3831,0.0,0.0,0.0,0.0,0.0,0.0,0.0,0.0,0.0,0.0,0.0,0.0,0.0,0.0,0.0,0.0,0.0,0.0,0.0,0.0,0.0,0.0,0.0,0.0,0.0,0.0,0.0,0.0,0.0,0.0,0.0,0.0,0.0,0.0,0.0,0.0,0.0,0.0,0.0,0.0,0.0,0.0,0.0,0.0,0.0,0.0,0.0,0.0,0.0,0.0,0.0,0.0,0.0,0.0,0.0,0.0,0.0,0.0,0.0,0.0,0.0,0.0,0.0,0.0,0.0,0.0,0.0,0.0,0.0,0.0,0.0,0.0,0.0,0.0,0.0,0.0,0.0,0.0,0.0,0.0,0.0,0.0,0.0,0.0,0.0,0.0,0.0,0.0,0.0,0.0,0.0,0.0,0.0,0.0,0.0,0.0,0.0,0.0,0.0,0.0,0.0,0.0,0.0,0.0,0.0,0.0,0.0,-2.3051,-2.548,-2.7669,-2.9268,-3.0302,-3.0699,-2.8354,-2.525,-2.1543,0.0,0.0,0.0,0.0,0.0,0.0,0.0,0.0,0.0,0.0,0.0,0.0,0.0,0.0,0.0,0.0,0.0,0.0,0.0,0.0,0.0,0.0,0.0,0.0,0.0,0.0,0.0,0.0,0.0,0.0,0.0,0.0,0.0,0.0,0.0,0.0,0.0,0.0,-2.6505,-2.645,0.0,0.0,0.0,0.0,0.0,0.0,0.0,0.0,-2.4837,0.0,0.0,0.0,0.0,0.0,0.0,0.0,0.0,0.0,0.0,0.0,0.0,0.0,0.0,0.0,0.0,0.0,0.0,0.0,0.0,0.0,0.0,0.0,0.0,0.0,0.0,0.0,0.0,0.0,0.0,0.0,0.0,0.0,0.0,0.0,0.0,0.0,0.0,0.0,0.0,0.0,0.0,0.0,0.0,0.0,0.0,0.0,0.0,0.0,0.0,0.0,0.0,0.0,0.0,0.0,0.0,-2.3051,-2.3628,-2.5131,-2.7669,-2.9268,-3.0122,-3.017,-2.851,-2.6226,-2.3523,0.0,0.0,0.0,0.0,0.0,0.0,0.0,0.0,0.0,0.0,0.0,0.0,0.0,0.0,0.0,0.0,0.0,0.0,0.0,0.0,0.0,0.0,0.0,0.0,0.0,0.0,0.0,0.0,0.0,0.0,0.0,0.0,0.0,0.0,0.0,0.0,0.0,0.0,0.0,-2.6043,-2.5696,0.0,0.0,0.0,0.0,0.0,0.0,0.0,0.0,-2.4867,0.0,0.0,0.0,0.0,0.0,0.0,0.0,0.0,0.0,0.0,0.0,0.0,0.0,0.0,0.0,0.0,0.0,0.0,0.0,0.0,0.0,0.0,0.0,0.0,0.0,0.0,0.0,0.0,0.0,0.0,0.0,0.0,0.0,0.0,0.0,0.0,0.0,0.0,0.0,0.0,0.0,0.0,0.0,0.0,0.0,0.0,0.0,0.0,0.0,0.0,0.0,0.0,0.0,0.0,0.0,-2.3236,-2.4157,-2.5721,-2.8053,-2.9148,-2.9544,-2.9244,-2.7717,-2.5648,0.0,0.0,0.0,0.0,0.0,0.0,0.0,0.0,0.0,0.0,0.0,0.0,0.0,0.0,0.0,0.0,0.0,0.0,0.0,0.0,0.0,0.0,0.0,0.0,0.0,0.0,0.0,0.0,0.0,0.0,0.0,0.0,0.0,0.0,0.0,0.0,0.0,0.0,0.0,0.0,-2.6558,-2.611,-2.5543,0.0,0.0,0.0,0.0,0.0,0.0,-2.4582,-2.4313,0.0,0.0,0.0,0.0,0.0,0.0,0.0,0.0,0.0,0.0,0.0,0.0,0.0,0.0,0.0,0.0,0.0,0.0,0.0,0.0,0.0,0.0,0.0,0.0,0.0,0.0,0.0,0.0,0.0,0.0,0.0,0.0,0.0,0.0,0.0,0.0,0.0,0.0,0.0,0.0,0.0,0.0,0.0,0.0,0.0,0.0,0.0,0.0,0.0,0.0,0.0,0.0,0.0,0.0,0.0,-2.3086,-2.4478,-2.619,-2.8258,-2.8871,-2.8979,-2.8643,-2.6899,-2.496,0.0,0.0,0.0,0.0,0.0,0.0,0.0,0.0,0.0,0.0,0.0,0.0,0.0,0.0,0.0,0.0,0.0,0.0,0.0,0.0,0.0,0.0,0.0,0.0,0.0,0.0,0.0,0.0,0.0,0.0,0.0,0.0,0.0,0.0,0.0,0.0,0.0,0.0,0.0,0.0,0.0,-2.6491,-2.5759,-2.5895,0.0,0.0,0.0,0.0,-2.4567,-2.4388,0.0,0.0,0.0,0.0,0.0,0.0,0.0,0.0,0.0,0.0,0.0,0.0,0.0,0.0,0.0,0.0,0.0,0.0,0.0,0.0,0.0,0.0,0.0,0.0,0.0,0.0,0.0,0.0,0.0,0.0,0.0,0.0,0.0,0.0,0.0,0.0,0.0,0.0,0.0,0.0,0.0,0.0,0.0,0.0,0.0,0.0,0.0,0.0,0.0,0.0,0.0,0.0,0.0,0.0,0.0,0.0,-2.3604,-2.4317,-2.5648,-2.7705,-2.8318,-2.8799,-2.916,-2.6731,-2.5244,0.0,0.0,0.0,0.0,0.0,0.0,0.0,0.0,0.0,0.0,0.0,0.0,0.0,0.0,0.0,0.0,0.0,0.0,0.0,0.0,0.0,0.0,0.0,0.0,0.0,0.0,0.0,0.0,0.0,0.0,0.0,0.0,0.0,0.0,0.0,0.0,0.0,0.0,0.0,0.0,0.0,-2.587,-2.4678,-2.5166,-2.5167,0.0,0.0,-2.5181,-2.4657,-2.554,0.0,0.0,0.0,0.0,0.0,0.0,0.0,0.0,0.0,0.0,0.0,0.0,0.0,0.0,0.0,0.0,0.0,0.0,0.0,0.0,0.0,0.0,0.0,0.0,0.0,0.0,0.0,0.0,0.0,0.0,0.0,0.0,0.0,0.0,0.0,0.0,0.0,0.0,0.0,0.0,0.0,0.0,0.0,0.0,0.0,0.0,0.0,0.0,0.0,0.0,0.0,0.0,0.0,0.0,0.0,-2.1406,-2.3231,-2.4845,-2.6339,-2.7841,-2.8074,-2.8374,-2.8724,-2.5958,-2.4486,0.0,0.0,0.0,0.0,0.0,0.0,0.0,0.0,0.0,0.0,0.0,0.0,0.0,0.0,0.0,0.0,0.0,0.0,0.0,0.0,0.0,0.0,0.0,0.0,0.0,0.0,0.0,0.0,0.0,0.0,0.0,0.0,0.0,0.0,0.0,0.0,0.0,0.0,0.0,0.0,0.0,0.0,-2.4506,-2.5349,0.0,0.0,0.0,-2.4822,-2.4148,0.0,0.0,0.0,0.0,0.0,0.0,0.0,0.0,0.0,0.0,0.0,0.0,0.0,0.0,0.0,0.0,0.0,0.0,0.0,0.0,0.0,0.0,0.0,0.0,0.0,0.0,0.0,0.0,0.0,0.0,0.0,0.0,0.0,0.0,0.0,0.0,0.0,0.0,0.0,0.0,0.0,0.0,0.0,0.0,0.0,0.0,0.0,0.0,0.0,0.0,0.0,0.0,0.0,0.0,0.0,0.0,0.0,-2.3098,-2.52,-2.6891,-2.8058,-2.8062,-2.8221,-2.8447,-2.5486,0.0,0.0,0.0,0.0,0.0,0.0,0.0,0.0,0.0,0.0,0.0,0.0,0.0,0.0,0.0,0.0,0.0,0.0,0.0,0.0,0.0,0.0,0.0,0.0,0.0,0.0,0.0,-2.2013,0.0,0.0,0.0,0.0,0.0,0.0,0.0,0.0,0.0,0.0,0.0,0.0,0.0,0.0,-2.6197,-2.4597,-2.5651,-2.6004,0.0,0.0,-2.4448,-2.3939,-2.4433,-2.4582,0.0,0.0,0.0,0.0,0.0,0.0,0.0,0.0,0.0,0.0,0.0,0.0,0.0,0.0,0.0,0.0,0.0,0.0,0.0,0.0,0.0,0.0,0.0,0.0,0.0,0.0,0.0,0.0,0.0,0.0,0.0,0.0,0.0,0.0,0.0,0.0,0.0,0.0,0.0,0.0,0.0,0.0,0.0,0.0,0.0,0.0,0.0,0.0,0.0,0.0,0.0,0.0,0.0,0.0,0.0,-2.3754,-2.5043,-2.6505,-2.817,-2.8248,-2.8565,-2.8982,-2.5788,-2.4484,0.0,0.0,0.0,0.0,0.0,0.0,0.0,0.0,0.0,0.0,0.0,0.0,0.0,0.0,0.0,0.0,0.0,0.0,0.0,0.0,0.0,0.0,0.0,0.0,0.0,0.0,0.0,0.0,0.0,0.0,0.0,0.0,0.0,0.0,0.0,0.0,0.0,0.0,0.0,0.0,0.0,-2.652,-2.4822,-2.5719,-2.6318,0.0,0.0,-2.4567,-2.4567,-2.5106,-2.5091,-2.3819,0.0,0.0,0.0,0.0,0.0,0.0,0.0,0.0,0.0,0.0,0.0,0.0,0.0,0.0,0.0,0.0,0.0,0.0,0.0,0.0,0.0,0.0,0.0,0.0,0.0,0.0,0.0,0.0,0.0,0.0,0.0,0.0,0.0,0.0,0.0,0.0,0.0,0.0,0.0,0.0,0.0,0.0,0.0,0.0,0.0,0.0,0.0,0.0,0.0,0.0,0.0,0.0,0.0,-2.152,-2.2761,-2.5157,-2.6816,-2.7811,-2.8198,-2.877,-2.9356,-2.6203,-2.4946,0.0,0.0,0.0,0.0,0.0,0.0,0.0,0.0,0.0,0.0,0.0,0.0,0.0,0.0,0.0,0.0,0.0,0.0,0.0,0.0,0.0,0.0,0.0,0.0,0.0,0.0,0.0,0.0,-2.3404,-2.3388,-2.2957,0.0,0.0,0.0,0.0,0.0,0.0,0.0,0.0,0.0,0.0,-2.6698,-2.5625,-2.6014,0.0,0.0,-2.5017,-2.4433,-2.4059,-2.4567,-2.4792,-2.4146,-2.4081,0.0,0.0,0.0,0.0,0.0,0.0,0.0,0.0,0.0,0.0,0.0,0.0,0.0,0.0,0.0,0.0,0.0,0.0,0.0,0.0,0.0,0.0,0.0,0.0,0.0,0.0,0.0,0.0,0.0,0.0,0.0,0.0,0.0,0.0,0.0,0.0,0.0,0.0,0.0,0.0,0.0,0.0,0.0,0.0,0.0,0.0,0.0,0.0,0.0,0.0,0.0,0.0,-2.1463,-2.2392,-2.5145,-2.6998,-2.7899,-2.8373,-2.8864,-2.947,-2.671,-2.537,0.0,0.0,0.0,0.0,0.0,0.0,0.0,0.0,0.0,0.0,0.0,0.0,0.0,0.0,0.0,0.0,0.0,0.0,0.0,0.0,0.0,0.0,0.0,0.0,0.0,0.0,0.0,0.0,-2.4,-2.3802,-2.3272,0.0,0.0,0.0,0.0,0.0,0.0,0.0,0.0,0.0,0.0,-2.6661,-2.6081,-2.6135,-2.6094,-2.57,-2.5011,-2.44,-2.4157,-2.4309,-2.4498,-2.4488,0.0,0.0,0.0,0.0,0.0,0.0,0.0,0.0,0.0,0.0,0.0,0.0,0.0,0.0,0.0,0.0,0.0,0.0,0.0,0.0,0.0,0.0,0.0,0.0,0.0,0.0,0.0,0.0,0.0,0.0,-1.969,0.0,0.0,0.0,0.0,0.0,0.0,0.0,0.0,0.0,0.0,0.0,0.0,0.0,0.0,0.0,0.0,0.0,0.0,0.0,0.0,0.0,0.0,-2.1313,-2.3049,-2.4952,-2.6807,-2.8531,-2.8689,-2.8984,-2.949,-2.72,-2.5934,-2.604,0.0,0.0,0.0,0.0,0.0,0.0,0.0,0.0,0.0,0.0,0.0,0.0,0.0,0.0,0.0,0.0,0.0,0.0,0.0,0.0,0.0,0.0,0.0,0.0,0.0,0.0,-2.3967,-2.3984,-2.3984,0.0,0.0,0.0,0.0,0.0,0.0,0.0,0.0,0.0,0.0,-2.5807,-2.6397,-2.6018,-2.592,-2.6005,-2.6147,-2.5106,-2.4506,-2.5106,-2.4706,-2.4426,0.0,0.0,0.0,0.0,0.0,0.0,0.0,0.0,0.0,0.0,0.0,0.0,0.0,0.0,0.0,0.0,0.0,0.0,0.0,0.0,0.0,0.0,0.0,0.0,0.0,0.0,0.0,-2.1395,-2.0408,0.0,0.0,0.0,0.0,0.0,0.0,0.0,0.0,0.0,0.0,0.0,-1.9758,-2.0368,0.0,0.0,0.0,0.0,0.0,0.0,0.0,0.0,0.0,0.0,0.0,0.0,-2.1285,-2.3055,-2.4545,-2.5992,-2.7397,-2.786,-2.8183,-2.8366,-2.6778,-2.5226,-2.3723,0.0,0.0,0.0,0.0,0.0,0.0,0.0,0.0,0.0,0.0,0.0,0.0,0.0,0.0,0.0,0.0,0.0,0.0,0.0,0.0,0.0,0.0,0.0,0.0,0.0,-2.3687,0.0,0.0,0.0,0.0,0.0,0.0,0.0,0.0,0.0,0.0,0.0,-2.5818,-2.5758,-2.6498,-2.7011,-2.6869,-2.6548,-2.6375,0.0,0.0,0.0,0.0,0.0,0.0,0.0,0.0,0.0,0.0,0.0,0.0,0.0,0.0,-2.5844,-2.599,-2.5809,-2.5716,-2.5946,0.0,0.0,0.0,0.0,0.0,0.0,0.0,0.0,0.0,0.0,0.0,0.0,0.0,0.0,-2.2203,0.0,-2.1156,0.0,0.0,0.0,0.0,0.0,0.0,0.0,0.0,-2.0381,-2.0401,-2.0254,-2.085,-2.1291,0.0,-2.158,-2.1379,0.0,0.0,0.0,0.0,0.0,0.0,0.0,0.0,-2.1383,-2.2774,-2.4221,-2.557,-2.6764,-2.7214,-2.7439,-2.7411,-2.6231,-2.4653,-2.2767,-2.1962,-2.1026,0.0,0.0,0.0,0.0,0.0,0.0,0.0,0.0,0.0,0.0,0.0,0.0,0.0,0.0,0.0,0.0,0.0,0.0,0.0,0.0,0.0,0.0,0.0,-2.3835,0.0,0.0,0.0,0.0,0.0,0.0,0.0,0.0,0.0,-2.6203,-2.6203,-2.6303,-2.6535,-2.6766,-2.6998,-2.7284,0.0,0.0,0.0,0.0,0.0,0.0,0.0,-2.5541,-2.5733,-2.5551,-2.5551,-2.6096,-2.6203,-2.6303,-2.6551,0.0,0.0,-2.627,-2.6509,-2.6801,-2.6855,-2.7128,-2.7487,-2.7708,-2.7658,-2.7658,0.0,0.0,0.0,0.0,0.0,0.0,0.0,0.0,-2.2832,-2.2828,0.0,-2.2054,0.0,0.0,0.0,0.0,0.0,-2.0781,0.0,0.0,-2.0413,-2.0489,-2.0057,-2.0997,-2.1385,-2.1202,-2.2428,-2.2616,-2.1799,-2.0271,0.0,0.0,0.0,0.0,0.0,0.0,-2.1626,-2.2311,-2.4118,-2.5556,-2.6708,-2.675,-2.675,-2.6722,-2.5556,-2.4371,-2.3126,-2.2147,-2.1026,-1.9769,-1.9349,0.0,0.0,0.0,0.0,0.0,0.0,0.0,0.0,0.0,0.0,0.0,0.0,0.0,0.0,0.0,0.0,0.0,0.0,0.0,0.0,-2.4115,0.0,0.0,0.0,0.0,0.0,0.0,0.0,0.0,0.0,0.0,-2.6253,-2.6253,-2.6518,-2.7251,0.0,0.0,0.0,0.0,-2.629,-2.6519,-2.6578,-2.6562,-2.6562,-2.6578,-2.6466,-2.6231,0.0,0.0,-2.6203,-2.6203,-2.6435,-2.7135,-2.7201,-2.7052,-2.6319,-2.7142,-2.7894,-2.7911,-2.8648,-2.93,-2.9213,-2.9196,-2.9349,-2.6048,0.0,0.0,0.0,0.0,-2.5031,-2.5196,-2.5435,-2.4971,-2.4522,-2.4029,-2.334,0.0,0.0,0.0,0.0,0.0,0.0,-2.2062,-2.1931,-2.2092,-2.2221,-2.2243,-2.2711,-2.3071,-2.3217,-2.2963,-2.2783,-2.2678,-2.138,-2.1046,-2.1636,0.0,0.0,0.0,0.0,-2.2048,-2.3491,-2.454,-2.5359,-2.6146,-2.5725,-2.55,-2.5486,-2.4546,-2.3835,-2.3285,-2.2374,-2.1253,-1.9893,-1.9728,0.0,0.0,0.0,0.0,0.0,0.0,0.0,0.0,0.0,0.0,0.0,0.0,0.0,0.0,0.0,0.0,0.0,0.0,0.0,-2.3289,-2.4699,-2.5048,0.0,0.0,0.0,0.0,0.0,0.0,0.0,0.0,0.0,-2.6919,-2.6965,-2.7284,0.0,0.0,-2.7048,-2.7284,-2.6667,-2.6214,-2.6323,-2.6319,0.0,-2.6303,-2.6303,-2.629,-2.6217,-2.6203,-2.6203,-2.6203,-2.6203,-2.627,-2.6501,-2.6518,-2.6435,-2.6372,-2.7528,-2.8537,-2.8623,-2.8682,-2.8968,-2.9567,-2.9258,-2.8999,-2.8201,-2.7046,-2.6579,-2.6378,-2.6363,-2.6108,-2.6213,-2.6542,-2.5884,-2.5525,-2.536,-2.4687,-2.3819,-2.2832,-2.2323,0.0,0.0,0.0,-2.2666,-2.2656,-2.2469,-2.2613,-2.2991,-2.3058,-2.3406,-2.3916,-2.3252,-2.3091,-2.3484,-2.2537,-2.2252,-2.2493,0.0,0.0,-2.2142,-2.2229,-2.2946,-2.4312,-2.4915,-2.5526,-2.6122,-2.5156,-2.4845,-2.5185,-2.4218,-2.3702,-2.364,-2.3039,-2.2024,-2.068,-2.0372,-2.007,0.0,0.0,0.0,0.0,0.0,0.0,0.0,0.0,0.0,0.0,0.0,-2.1633,-2.1341,0.0,0.0,0.0,-2.2637,-2.3189,-2.3481,-2.4677,0.0,0.0,0.0,0.0,0.0,0.0,0.0,-2.6504,-2.6486,-2.6684,-2.7254,-2.7317,-2.7599,-2.8312,-2.7495,-2.6949,-2.7284,0.0,-2.6319,-2.6601,-2.6634,-2.6634,-2.6634,-2.6634,-2.6551,-2.6253,-2.6203,-2.6203,-2.6203,-2.631,-2.6499,-2.6785,-2.6957,-2.7111,-2.7414,-2.8492,-2.9145,-2.8819,-2.9003,-2.9429,-2.9976,-2.9632,-2.9505,-3.0106,-3.0277,-2.8565,-2.7829,-2.773,-2.7081,-2.6797,-2.6707,-2.6108,-2.6153,-2.6617,-2.6033,-2.5345,-2.4507,-2.331,0.0,-2.2048,-2.2584,-2.2586,-2.2152,-2.191,-2.2145,-2.2696,-2.2483,-2.2857,-2.3742,-2.3442,-2.354,-2.4056,-2.3543,-2.3252,-2.3068,-2.2084,-2.1756,-2.2278,-2.3292,-2.4115,-2.4737,-2.5351,-2.5891,-2.627,-2.4844,-2.4504,-2.5271,-2.4298,-2.3865,-2.4158,-2.3835,-2.3073,-2.1783,-2.1091,-2.0737,-2.0742,0.0,0.0,0.0,0.0,0.0,0.0,0.0,0.0,0.0,0.0,0.0,0.0,0.0,0.0,0.0,-2.2199,0.0,-2.3592,-2.44,0.0,0.0,0.0,-2.6286,-2.5328,-2.6135,-2.664,-2.6293,0.0,0.0,-2.7291,-2.7324,-2.7557,-2.8268,-2.7184,-2.6535,-2.7201,-2.6667,-2.6435,-2.7015,-2.7201,-2.7201,-2.7031,-2.7065,-2.6866,-2.6283,-2.6203,-2.6203,-2.6203,-2.6469,-2.6962,-2.7468,-2.7964,-2.8352,-2.9059,-2.9344,-2.9519,-2.8499,-2.9413,-3.0315,-3.0185,-3.0267,-3.035,-3.0622,-3.0717,-3.0007,-2.9484,-2.9154,-2.8936,-2.8592,-2.8128,-2.7949,-2.7679,-2.737,-2.7171,-2.6183,-2.4537,-2.3759,-2.3327,-2.3155,-2.2563,-2.2475,-2.272,-2.1924,-2.2108,-2.2994,-2.2784,-2.328,-2.4305,-2.3846,-2.3807,-2.4206,-2.3836,-2.347,-2.3301,-2.3493,-2.3223,-2.2675,-2.4163,-2.4949,-2.511,-2.5872,-2.5735,-2.4694,-2.4077,-2.3894,-2.412,-2.3909,-2.3911,-2.4189,-2.3631,-2.2823,-2.1753,-2.1296,-2.0875,-2.0373,-2.0545,0.0,0.0,0.0,0.0,0.0,0.0,0.0,0.0,0.0,-2.2086,-2.1326,0.0,-2.3367,0.0,-2.411,-2.492,-2.5082,-2.5428,0.0,0.0,-2.5936,-2.6332,-2.6337,-2.6788,-2.7053,-2.6973,-2.7181,-2.752,-2.7998,-2.7571,-2.7402,-2.787,-2.7414,-2.7118,-2.7284,-2.6684,-2.627,-2.6435,-2.6485,-2.6452,-2.6485,-2.6468,-2.6419,-2.6253,-2.6203,-2.6203,-2.622,-2.6486,-2.6742,-2.6962,-2.7229,-2.7526,-2.7764,-2.8001,-2.8198,-2.801,-2.8824,-2.9822,-3.0279,-3.0053,-2.9833,-3.0361,-3.0554,-3.0127,-2.9665,-2.9214,-2.9169,-2.9116,-2.8996,-2.8397,-2.8098,-2.7979,-2.7096,-2.6078,-2.497,-2.4029,-2.3595,-2.3566,-2.283,-2.2651,-2.2918,-2.2325,-2.2509,-2.3312,-2.3259,-2.3817,-2.4955,-2.4294,-2.4273,-2.4787,-2.4268,-2.3896,-2.3703,-2.4418,-2.4358,-2.3732,-2.4877,-2.5491,-2.5444,-2.5899,-2.5762,-2.5006,-2.4293,-2.4002,-2.4126,-2.3925,-2.3855,-2.3915,-2.3686,-2.3142,-2.2384,-2.2108,-2.1702,-2.1216,-2.1221,-2.1335,0.0,0.0,0.0,0.0,0.0,0.0,0.0,0.0,0.0,0.0,0.0,-2.3772,-2.4369,-2.4839,-2.5301,-2.5832,-2.6046,-2.6173,-2.6367,-2.6691,-2.6891,-2.6906,-2.7244,-2.7355,-2.722,-2.7359,-2.7583,-2.7771,-2.7451,-2.7272,-2.7503,-2.7386,-2.716,-2.6839,-2.6452,-2.6203,-2.6203,-2.6203,-2.6203,-2.6203,-2.6203,-2.6203,-2.6203,-2.6203,-2.6203,-2.6203,-2.6607,-2.6923,-2.6956,-2.7289,-2.7659,-2.7659,-2.776,-2.7922,-2.8003,-2.8418,-2.8966,-2.9387,-2.9126,-2.903,-2.9595,-2.9766,-2.9442,-2.8953,-2.8429,-2.8374,-2.8725,-2.9262,-2.8308,-2.8128,-2.8472,-2.6497,-2.5659,-2.563,-2.4238,-2.3596,-2.3584,-2.3053,-2.2799,-2.2785,-2.2558,-2.2858,-2.3501,-2.3515,-2.4224,-2.5375,-2.47,-2.4714,-2.5422,-2.4737,-2.4334,-2.4356,-2.5074,-2.5236,-2.4895,-2.5621,-2.5938,-2.583,-2.5679,-2.5672,-2.5835,-2.472,-2.4297,-2.4522,-2.4051,-2.3697,-2.3608,-2.362,-2.3391,-2.3,-2.277,-2.2556,-2.2297,-2.1917,-2.1596,0.0,-2.1294,0.0,0.0,0.0,0.0,0.0,0.0,0.0,0.0,-2.3529,-2.4159,-2.5503,-2.5017,-2.5036,-2.6021,-2.6262,-2.6505,-2.6888,-2.7334,-2.7491,-2.7244,-2.7474,-2.7604,-2.7291,-2.7299,-2.733,-2.7377,-2.7326,-2.7338,-2.7327,-2.7313,-2.7107,-2.6485,-2.6345,-2.6293,-2.6293,-2.631,-2.6293,-2.6203,-2.6203,-2.6203,-2.6239,-2.631,-2.6274,-2.6364,-2.6858,-2.7276,-2.7307,-2.7748,-2.8154,-2.8182,-2.8182,-2.8182,-2.8182,-2.8235,-2.8281,-2.8316,-2.8316,-2.8201,-2.908,-2.8372,-2.8056,-2.7652,-2.7173,-2.7122,-2.7433,-2.81,-2.8896,-2.8966,-2.8457,-2.6482,-2.5914,-2.6228,-2.4448,-2.3674,-2.3768,-2.274,-2.2267,-2.2235,-2.1444,-2.1835,-2.3123,-2.2881,-2.3626,-2.518,-2.4837,-2.4866,-2.5312,-2.4834,-2.4773,-2.5101,-2.5843,-2.5859,-2.5323,0.0,0.0,0.0,-2.5515,-2.4837,-2.4557,-2.4119,-2.3891,-2.3963,-2.3579,0.0,-2.3546,-2.2671,-2.2223,-2.2269,-2.1858,0.0,0.0,0.0,0.0,0.0,0.0,0.0,0.0,0.0,0.0,0.0,-2.2734,-2.2458,-2.262,-2.364,-2.4661,-2.5503,-2.5486,-2.5512,-2.5742,-2.5937,-2.6137,-2.6539,-2.6791,-2.6956,-2.7181,-2.7487,-2.7689,-2.7617,-2.7836,-2.7989,-2.7901,-2.8007,-2.7876,-2.7607,-2.7595,-2.7461,-2.7085,-2.6758,-2.6708,-2.6923,-2.6742,-2.6486,-2.6239,-2.6203,-2.6329,-2.6521,-2.6607,-2.6657,-2.6855,-2.7238,-2.7577,-2.7542,-2.7922,-2.8164,-2.8164,-2.8182,-2.8146,-2.8182,-2.8201,-2.8273,-2.8273,-2.8255,-2.8121,-2.8184,0.0,-2.6707,-2.6323,0.0,-2.6217,-2.6553,-2.6947,-2.8071,-2.8233,-2.75,-2.5854,-2.53,-2.554,-2.397,-2.3319,-2.3368,-2.225,-2.186,-2.2081,-2.1684,-2.2095,-2.3143,-2.329,-2.3833,-2.474,-2.4597,-2.4597,-2.4768,-2.4597,-2.4597,-2.4825,-2.5179,-2.5349,-2.5349,-2.6364,-2.6796,-2.6533,-2.5255,-2.4635,-2.4731,-2.4301,-2.4036,-2.4021,-2.3575,0.0,0.0,0.0,0.0,0.0,0.0,0.0,0.0,0.0,0.0,-2.131,-2.1294,-2.1471,-2.1827,-2.1859,-2.2005,-2.2377,-2.2394,-2.2394,-2.2394,-2.3365,-2.4213,-2.4677,-2.4694,-2.4888,-2.533,-2.5395,-2.5637,-2.6066,-2.6219,-2.6324,-2.6486,-2.6654,-2.6772,-2.678,-2.6916,-2.7014,-2.703,-2.7023,-2.7139,-2.7278,-2.6992,-2.6996,-2.7531,-2.7258,-2.7021,-2.7149,-2.6923,-2.6624,-2.6486,-2.6452,-2.6302,-2.6202,-2.6231,-2.6253,-2.6035,-2.6283,-2.6514,-2.6578,-2.7083,-2.7603,-2.7603,-2.762,-2.762,-2.7567,-2.7326,-2.711,-2.7179,-2.7492,-2.7546,-2.7189,-2.5807,-2.5459,-2.5143,-2.4878,-2.5576,-2.5898,-2.6043,0.0,0.0,0.0,-2.5129,-2.4609,-2.4397,-2.3269,-2.2766,-2.2761,-2.1835,-2.1602,-2.1941,-2.2002,-2.2452,-2.3172,-2.3653,-2.4024,-2.4261,-2.4302,-2.4302,-2.4302,-2.4302,-2.4379,-2.4471,-2.4471,-2.4887,-2.5672,-2.6149,-2.6441,-2.6503,-2.5195,-2.4748,-2.5272,-2.4656,-2.4302,-2.4302,-2.3533,-2.2948,-2.2611,-2.1965,-2.1716,-2.1935,-2.2101,-2.2199,-2.2199,-2.2199,-2.194,-2.1342,-2.1294,-2.1294,-2.1294,-2.1294,-2.1294,-2.1294,-2.1876,-2.2313,-2.2556,-2.3173,-2.36,-2.3786,-2.3803,-2.416,-2.4815,-2.4919,-2.5147,-2.5674,-2.5725,-2.5743,-2.5793,-2.58,-2.5857,-2.5788,-2.5875,-2.5808,-2.5875,-2.5875,-2.6037,-2.6516,-2.6268,-2.6189,-2.7415,-2.749,-2.7251,-2.694,-2.6727,-2.6601,-2.6384,-2.6266,-2.6097,-2.5615,-2.5729,-2.5639,-2.5207,-2.5212,-2.5384,-2.5561,-2.6215,-2.6684,-2.6782,-2.6782,-2.6782,-2.6782,-2.63,-2.5815,-2.5817,-2.6314,-2.6536,-2.6044,-2.463,-2.4787,-2.4606,-2.4302,-2.4899,-2.5396,-2.5896,-2.7115,-2.6761,-2.5194,-2.4974,-2.4626,-2.4085,-2.2791,-2.2281,-2.2427,-2.1689,-2.1423,-2.1458,-2.1131,-2.1732,-2.3083,-2.2875,-2.3246,-2.4166,-2.4276,-2.4302,-2.4302,-2.4317,-2.4594,-2.5102,-2.5179,-2.581,-2.6965,-2.6641,-2.6672,-2.7196,-2.5887,-2.5226,-2.5302,-2.4656,-2.4302,-2.4256,-2.3086,-2.2485,-2.258,-2.1544,-2.1036,-2.1231,-2.1375,-2.1471,-2.1471,-2.1487,-2.1422,-2.1325,-2.1294,-2.1294,-2.1294,-2.1294,-2.1294,-2.1294,-2.1406,-2.1989,-2.3237,-2.3464,-2.36,-2.3786,-2.3835,-2.4143,-2.4516,-2.4645,-2.4856,-2.5269,-2.5376,-2.5473,-2.5686,-2.5711,-2.5668,-2.5686,-2.5775,-2.5747,-2.5658,-2.5689,-2.5735,-2.5893,-2.5885,-2.593,-2.6284,-2.7255,-2.7401,-2.6519,-2.6393,-2.6068,-2.548,-2.5099,-2.5205,-2.5321,-2.5359,-2.5444,-2.5499,-2.5488,-2.5557,-2.5725,-2.5882,-2.5997,-2.605,-2.5961,-2.6015,-2.6015,-2.5897,-2.5625,-2.5028,-2.5117,-2.5252,-2.5684,-2.4353,-2.44,-2.4275,-2.4008,-2.4403,-2.4664,-2.4948,-2.5827,-2.5584,-2.447,-2.4035,-2.3552,-2.2929,-2.211,-2.1801,-2.1866,-2.1251,-2.1144,-2.1423,-2.1458,-2.2049,-2.3024,-2.3246,-2.361,-2.4166,-2.4276,-2.4302,-2.4333,-2.4671,-2.4995,-2.5333,-2.5703,-2.6395,-2.7303,-2.7103,-2.7272,-2.7873,-2.6211,-2.5318,-2.5287,-2.4656,-2.4302,-2.4302,-2.2994,-2.2377,-2.258,-2.145,-2.0893,-2.1087,-2.1214,-2.1294,-2.1294,-2.1294,-2.1294,-2.1294,-2.1294,-2.1294,-2.1294,-2.1294,-2.1294,-2.1294,-2.1294,-2.1647,-2.2442,-2.2411,-2.2443,-2.2789,-2.2956,-2.3207,-2.3667,-2.3858,-2.4042,-2.429,-2.4314,-2.4382,-2.4504,-2.4551,-2.4569,-2.4551,-2.4545,-2.4569,-2.4528,-2.4557,-2.4746,-2.5098,-2.5501,-2.5643,-2.5276,-2.6139,-2.6677,-2.6063,-2.5865,-2.5642,-2.5136,-2.5073,-2.5,-2.4787,-2.4874,-2.5002,-2.5134,-2.4926,-2.4944,-2.5586,-2.5497,-2.5604,-2.6139,-2.5729,-2.5497,-2.5676,-2.5075,-2.454,-2.4188,-2.4213,-2.4306,-2.5084,-2.405,-2.405,-2.3978,-2.3891,-2.4008,-2.4067,-2.4171,-2.462,-2.4449,-2.3796,-2.327,-2.2672,-2.1939,-2.1477,-2.1229,-2.118,-2.0898,-2.0885,-2.1277,-2.1636,-2.2189,-2.2844,-2.3304,-2.3625,-2.394,-2.4009,-2.4036,-2.4139,-2.4851,-2.5367,-2.561,-2.6272,-2.6888,-2.738,-2.755,-2.7888,-2.8273,-2.6688,-2.5703,-2.5549,-2.4887,-2.4471,-2.4241,-2.3148,-2.257,-2.2565,-2.1607,-2.1051,-2.1103,-2.1214,-2.1294,-2.1294,-2.1294,-2.1294,-2.1294,-2.1294,-2.1294,-2.1294,-2.1294,-2.1294,-2.1294,-2.134,-2.1464,-2.1664,-2.157,-2.1645,-2.2027,-2.2332,-2.2642,-2.3072,-2.3276,-2.3383,-2.3476,-2.3494,-2.3565,-2.3512,-2.3494,-2.3494,-2.3494,-2.3494,-2.3529,-2.3494,-2.3494,-2.3802,-2.4391,-2.4926,-2.5015,-2.4623,-2.4962,-2.5247,-2.5287,-2.5207,-2.5059,-2.498,-2.4857,-2.4611,-2.4083,-2.424,-2.4379,-2.4355,-2.3891,-2.3927,-2.489,-2.4801,-2.4837,-2.58,-2.5283,-2.4748,-2.4944,-2.4337,-2.3624,-2.3669,-2.3728,-2.3801,-2.3392,-2.3457,-2.3504,-2.3633,-2.3878,-2.3865,-2.3956,-2.4073,-2.4157,-2.3861,-2.3305,-2.323,-2.2571,-2.1536,-2.1022,-2.0799,-2.0785,-2.0699,-2.0749,-2.0799,-2.0799,-2.1299,-2.2142,-2.2016,-2.2296,-2.3127,-2.3319,-2.3348,-2.3436,-2.4622,-2.5599,-2.6303,-2.6965,-2.7334,-2.7473,-2.8011,-2.8334,-2.8396,-2.7611,-2.6903,-2.6287,-2.558,-2.4933,-2.4302,-2.3594,-2.301,-2.2643,-2.2028,-2.151,-2.1167,-2.1214,-2.1294,-2.1294,-2.1294,-2.1294,-2.1294,-2.1294,-2.1294,-2.1294,-2.1294,-2.1294,-2.1309,-2.1526,-2.1648,-2.1708,-2.1969,-2.2169,-2.2371,-2.2703,-2.296,-2.3102,-2.3336,-2.3471,-2.3476,-2.3494,-2.3494,-2.3494,-2.3494,-2.3494,-2.3494,-2.3494,-2.3494,-2.3494,-2.3494,-2.3529,-2.369,-2.3873,-2.3939,-2.382,-2.3856,-2.3922,-2.3981,-2.4254,-2.4373,-2.3981,-2.3702,-2.3744,-2.3625,-2.3595,-2.3766,-2.3784,-2.3713,-2.3654,-2.4349,-2.3873,-2.3927,-2.4105,-2.3659,-2.3766,-2.4105,-2.385,-2.3517,-2.3517,-2.3629,-2.3739,-2.2858,-2.2702,-2.3065,-2.3259,-2.3244,-2.3023,-2.2968,-2.308,-2.3093,-2.2949,-2.2703,-2.2353,-2.1917,-2.1472,-2.091,-2.0699,-2.0699,-2.0699,-2.0699,-2.0749,-2.0997,-2.1444,-2.2035,-2.2049,-2.2434,-2.3068,-2.3187,-2.3216,-2.3481,-2.4956,-2.6168,-2.6873,-2.7595,-2.7996,-2.8011,-2.8273,-2.8411,-2.8396,-2.775,-2.7042,-2.6364,-2.5672,-2.5179,-2.4825,-2.3856,-2.3273,-2.3094,-2.233,-2.1763,-2.1679,-2.1456,-2.1294,-2.1294,-2.1294,-2.1294,-2.1294,-2.1294,-2.1294,-2.1294,-2.1294,-2.1294,-2.1294,-2.1573,-2.1738,-2.1899,-2.2292,-2.2581,-2.2694,-2.2884,-2.306,-2.3217,-2.3401,-2.3494,-2.3494,-2.3494,-2.3494,-2.3494,-2.3494,-2.3494,-2.3494,-2.3494,-2.3494,-2.3494,-2.3494,-2.3494,-2.3494,-2.3494,-2.3494,-2.3494,-2.3494,-2.3494,-2.3529,-2.382,-2.3856,-2.3547,-2.3494,-2.3494,-2.3494,-2.3494,-2.3588,-2.4016,-2.3708,-2.3725,-2.4563,-2.4016,-2.3981,-2.4926,-2.3993,-2.3583,-2.3802,-2.3713,-2.3494,-2.3494,-2.3629,-2.3718,-2.2001,-2.1725,-2.2187,-2.2447,-2.247,-2.2227,-2.2198,-2.2361,-2.2387,-2.2387,-2.235,-2.176,-2.1498,-2.1433,-2.0961,-2.0699,-2.0699,-2.0699,-2.0699,-2.0749,-2.1033,-2.1444,-2.1846,-2.186,-2.2142,-2.2558,-2.2649,-2.3049,-2.3806,-2.5304,-2.6612,-2.7422,-2.8117,-2.8411,-2.8411,-2.8411,-2.8411,-2.8334,-2.775,-2.7134,-2.658,-2.5764,-2.5226,-2.4964,-2.3902,-2.3304,-2.3281,-2.229,-2.1742,-2.1722,-2.1424,-2.1262,-2.1246,-2.1277,-2.1294,-2.1294,-2.1294,-2.1294,-2.1294,-2.1294,-2.1356,-2.1402,-2.1664,-2.1886,-2.213,-2.2581,-2.2884,-2.297,-2.3077,-2.3199,-2.3271,-2.3407,-2.3494,-2.3494,-2.3494,-2.3494,-2.3494,-2.3494,-2.3494,-2.3494,-2.3494,-2.3494,-2.3494,-2.3494,-2.3494,-2.3494,-2.3494,-2.3494,-2.3494,-2.3494,-2.3494,-2.3494,-2.3517,-2.3512,-2.3494,-2.3494,-2.3494,-2.3494,-2.3494,-2.3695,-2.4284,-2.3766,-2.3547,-2.4082,-2.3761,-2.3766,-2.4284,-2.3891,-2.3583,-2.3993,-2.3904,-2.3494,-2.3494,-2.3607,-2.3656,-2.0292,-2.0476,-2.064,-2.1124,-2.1729,-2.1818,-2.1982,-2.2094,-2.2309,-2.2376,-2.2204,-2.1721,-2.1498,-2.1433,-2.0935,-2.0699,-2.0699,-2.0699,-2.0699,-2.0699,-2.0749,-2.0983,-2.1361,-2.0983,-2.1033,-2.1602,-2.1732,-2.276,-2.4875,-2.5648,-2.6748,-2.8033,-2.8253,-2.8411,-2.8411,-2.8411,-2.8396,-2.8273,-2.7657,-2.7303,-2.7103,-2.5949,-2.4979,-2.441,-2.3686,-2.3149,-2.2683,-2.1942,-2.1346,-2.0889,-2.107,-2.1119,-2.1135,-2.1246,-2.1294,-2.1294,-2.1294,-2.1294,-2.1294,-2.1325,-2.1402,-2.1648,-2.1869,-2.2101,-2.236,-2.2773,-2.3052,-2.3095,-2.3313,-2.3407,-2.3336,-2.343,-2.3494,-2.3494,-2.3494,-2.3494,-2.3494,-2.3494,-2.3494,-2.3494,-2.3494,-2.3494,-2.3494,-2.3494,-2.3494,-2.3494,-2.3494,-2.3494,-2.3494,-2.3494,-2.3494,-2.3494,-2.3494,-2.3494,-2.3494,-2.3494,-2.3494,-2.3494,-2.3494,-2.3534,-2.3517,-2.3512,-2.3601,-2.3654,-2.3565,-2.3547,-2.3588,-2.3588,-2.3529,-2.3654,-2.369,-2.3494,-2.3494,-2.3562,-2.3607,-2.0195,-2.0346,-1.975,-1.9909,-2.0563,-2.0283,-2.0454,-2.0887,-2.0991,-2.1056,-2.1147,-2.0952,-2.0912,-2.0949,-2.0804,-2.0699,-2.0699,-2.0699,-2.0699,-2.0699,-2.0699,-2.0947,-2.1326,-2.0947,-2.0947,-2.138,-2.1803,-2.2972,-2.4747,-2.5589,-2.6422,-2.737,-2.7987,-2.8299,-2.8411,-2.8411,-2.8211,-2.7734,-2.7088,-2.6534,-2.6072,-2.5164,-2.4533,-2.4317,-2.4087,-2.3681,-2.3095,-2.249,-2.1987,-2.1455,-2.1245,-2.1167,-2.123,-2.1294,-2.1294,-2.1294,-2.1294,-2.1294,-2.1325,-2.1481,-2.1603,-2.1724,-2.2032,-2.2315,-2.2535,-2.2876,-2.3144,-2.3241,-2.3401,-2.3471,-2.3448,-2.3494,-2.3494,-2.3494,-2.3494,-2.3494,-2.3494,-2.3494,-2.3494,-2.3494,-2.3494,-2.3494,-2.3494,-2.3494,-2.3494,-2.3494,-2.3494,-2.3494,-2.3494,-2.3494,-2.3494,-2.3494,-2.3494,-2.3494,-2.3494,-2.3494,-2.3494,-2.3494,-2.3494,-2.3494,-2.3494,-2.3494,-2.3565,-2.3583,-2.3494,-2.3494,-2.3552,-2.3529,-2.3494,-2.3494,-2.3494,-2.3494,-2.3494,-2.3539,-2.3562,-1.9273,-1.946,-1.8725,-1.8765,-1.9347,-1.9054,-1.9279,-1.9862,-1.9914,-2.0131,-2.0347,-2.0398,-2.0448,-2.0549,-2.0536,-2.0549,-2.0662,-2.0649,-2.0699,-2.0699,-2.0699,-2.0898,-2.1095,-2.0848,-2.0954,-2.1479,-2.2204,-2.3234,-2.4504,-2.5481,-2.6253,-2.6965,-2.7728,-2.8201,-2.8235,-2.8084,-2.7764,-2.7257,-2.6473,-2.5795,-2.5287,-2.4656,-2.4302,-2.4302,-2.4302,-2.3871,-2.3009,-2.2461,-2.1926,-2.145,-2.1131,-2.1087,-2.1277,-2.1294,-2.1294,-2.1294,-2.1294,-2.1294,-2.134,-2.1526,-2.1724,-2.1797,-2.218,-2.246,-2.2624,-2.2927,-2.3119,-2.3241,-2.3383,-2.3494,-2.3494,-2.3494,-2.3494,-2.3494,-2.3494,-2.3494,-2.3494,-2.3494,-2.3494,-2.3494,-2.3494,-2.3494,-2.3494,-2.3494,-2.3494,-2.3494,-2.3494,-2.3494,-2.3494,-2.3494,-2.3494,-2.3494,-2.3494,-2.3494,-2.3494,-2.3494,-2.3494,-2.3494,-2.3494,-2.3494,-2.3494,-2.3494,-2.3494,-2.3494,-2.3494,-2.3494,-2.3494,-2.3494,-2.3494,-2.3494,-2.3494,-2.3494,-2.3517,-2.3517,-2.3539,-1.7423,-1.7875,-1.7409,-1.759,-1.815,-1.8267,-1.862,-1.9174,-1.9319,-1.9643,-2.0067,-2.0182,-2.0182,-2.0233,-2.0283,-2.0347,-2.0549,-2.0662,-2.0699,-2.0699,-2.0699,-2.0699,-2.0749,-2.0777,-2.1144,-2.1707,-2.2616,-2.3446,-2.4285,-2.5308,-2.6148,-2.6887,-2.7565,-2.789,-2.8005,-2.7573,-2.7255,-2.6903,-2.5997,-2.5349,-2.5226,-2.4625,-2.4302,-2.4302,-2.4302,-2.3702,-2.2409,-2.1769,-2.1224,-2.0715,-2.0726,-2.0958,-2.1214,-2.1277,-2.1294,-2.1294,-2.1294,-2.1325,-2.1356,-2.1573,-2.1827,-2.2015,-2.226,-2.2515,-2.2712,-2.297,-2.3119,-2.3168,-2.3336,-2.3494,-2.3494,-2.3494,-2.3494,-2.3494,-2.3494,-2.3494,-2.3494,-2.3494,-2.3494,-2.3494,-2.3494,-2.3494,-2.3494,-2.3494,-2.3494,-2.3494,-2.3494,-2.3494,-2.3494,-2.3494,-2.3494,-2.3494,-2.3494,-2.3494,-2.3494,-2.3494,-2.3494,-2.3494,-2.3494,-2.3494,-2.3494,-2.3494,-2.3494,-2.3494,-2.3494,-2.3494,-2.3494,-2.3494,-2.3494,-2.3494,-2.3494,-2.3494,-2.3517,-2.3517,-2.3517,-1.7026,-1.72,-1.6827,-1.6955,-1.7479,-1.7534,-1.7863,-1.8429,-1.8459,-1.8886,-1.9436,-1.95,-1.9875,-2.0296,-2.0398,-2.0498,-2.0662,-2.0649,-2.0699,-2.0699,-2.0699,-2.0712,-2.0764,-2.1105,-2.176,-2.257,-2.301,-2.3683,-2.4598,-2.5135,-2.5628,-2.6279,-2.7004,-2.7393,-2.747,-2.737,-2.7149,-2.6535,-2.5736,-2.5118,-2.4671,-2.4425,-2.4317,-2.4302,-2.4302,-2.3671,-2.2378,-2.2086,-2.1481,-2.0571,-2.0561,-2.0761,-2.1087,-2.1151,-2.1214,-2.1294,-2.1294,-2.1419,-2.1587,-2.1781,-2.2003,-2.2248,-2.2487,-2.2659,-2.2816,-2.2995,-2.3144,-2.3217,-2.3383,-2.3494,-2.3494,-2.3494,-2.3494,-2.3494,-2.3494,-2.3494,-2.3494,-2.3494,-2.3494,-2.3494,-2.3494,-2.3494,-2.3494,-2.3494,-2.3494,-2.3494,-2.3494,-2.3494,-2.3494,-2.3494,-2.3494,-2.3494,-2.3494,-2.3494,-2.3494,-2.3494,-2.3494,-2.3494,-2.3494,-2.3494,-2.3494,-2.3494,-2.3494,-2.3494,-2.3494,-2.3494,-2.3494,-2.3494,-2.3494,-2.3494,-2.3494,-2.3494,-2.3494,-2.3494,-2.3494,-1.6247,-1.6335,-1.6372,-1.6591,-1.6899,-1.6899,-1.7213,-1.7699,-1.7754,-1.8147,-1.875,-1.9028,-1.9396,-1.9875,-2.0131,-2.0296,-2.0448,-2.0485,-2.0562,-2.0651,-2.091,-2.0922,-2.0882,-2.1472,-2.2283,-2.3119,-2.3446,-2.3905,-2.4664,-2.4892,-2.5203,-2.5659,-2.6093,-2.6329,-2.6418,-2.6288,-2.5971,-2.5515,-2.5127,-2.4733,-2.441,-2.4302,-2.4302,-2.4302,-2.4302,-2.3748,-2.2748,-2.244,-2.1728,-2.0758,-2.0628,-2.086,-2.1055,-2.1167,-2.1214,-2.1277,-2.1325,-2.1371,-2.1556,-2.1811,-2.2056,-2.226,-2.2508,-2.2694,-2.2842,-2.2995,-2.3144,-2.3217,-2.3383,-2.3494,-2.3494,-2.3494,-2.3494,-2.3494,-2.3494,-2.3494,-2.3494,-2.3494,-2.3494,-2.3494,-2.3494,-2.3494,-2.3494,-2.3494,-2.3494,-2.3494,-2.3494,-2.3494,-2.3494,-2.3494,-2.3494,-2.3494,-2.3494,-2.3494,-2.3494,-2.3494,-2.3494,-2.3494,-2.3494,-2.3494,-2.3494,-2.3494,-2.3494,-2.3494,-2.3494,-2.3494,-2.3494,-2.3494,-2.3494,-2.3494,-2.3494,-2.3494,-2.3494,-2.3494,-2.3494,-1.5118,-1.5294,-1.6009,-1.6316,-1.6431,-1.6431,-1.674,-1.7101,-1.7157,-1.7545,-1.8093,-1.8548,-1.8869,-1.9081,-1.954,-1.9875,-1.999,-2.0182,-2.0347,-2.0629,-2.1095,-2.1277,-2.1184,-2.193,-2.2648,-2.3328,-2.3825,-2.4073,-2.4216,-2.4513,-2.4894,-2.494,-2.495,-2.4972,-2.5083,-2.4553,-2.4428,-2.4507,-2.4303,-2.4223,-2.4219,-2.4219,-2.4276,-2.4261,-2.4287,-2.3948,-2.324,-2.2501,-2.1636,-2.0696,-2.0761,-2.0925,-2.1071,-2.1183,-2.1246,-2.1294,-2.1294,-2.1309,-2.1433,-2.1781,-2.2027,-2.213,-2.248,-2.2712,-2.2764,-2.2927,-2.3119,-2.3144,-2.3354,-2.3494,-2.3494,-2.3494,-2.3494,-2.3494,-2.3494,-2.3494,-2.3494,-2.3494,-2.3494,-2.3494,-2.3494,-2.3494,-2.3494,-2.3494,-2.3494,-2.3494,-2.3494,-2.3494,-2.3494,-2.3494,-2.3494,-2.3494,-2.3494,-2.3494,-2.3494,-2.3494,-2.3494,-2.3494,-2.3494,-2.3494,-2.3494,-2.3494,-2.3494,-2.3494,-2.3494,-2.3494,-2.3494,-2.3494,-2.3494,-2.3494,-2.3494,-2.3494,-2.3494,-2.3494,-2.3494,-1.4433,-1.4972,-1.5352,-1.5768,-1.6181,-1.6316,-1.6488,-1.6591,-1.6637,-1.6955,-1.7379,-1.76,-1.8027,-1.8513,-1.9056,-1.9436,-1.9592,-1.9965,-2.0233,-2.045,-2.139,-2.1833,-2.1982,-2.2243,-2.2923,-2.3772,-2.3981,-2.4112,-2.4073,-2.3826,-2.3897,-2.4244,-2.3969,-2.4207,-2.4731,-2.4258,-2.4187,-2.4343,-2.3851,-2.3754,-2.3925,-2.3967,-2.4051,-2.4276,-2.4302,-2.3948,-2.3255,-2.2163,-2.1214,-2.0447,-2.0441,-2.0628,-2.086,-2.0925,-2.1055,-2.1262,-2.1325,-2.1402,-2.1587,-2.1869,-2.2073,-2.2304,-2.2525,-2.2712,-2.2712,-2.2927,-2.3095,-2.3144,-2.3336,-2.3494,-2.3494,-2.3494,-2.3494,-2.3494,-2.3494,-2.3494,-2.3494,-2.3494,-2.3494,-2.3494,-2.3494,-2.3494,-2.3494,-2.3494,-2.3494,-2.3494,-2.3494,-2.3494,-2.3494,-2.3494,-2.3494,-2.3494,-2.3494,-2.3494,-2.3494,-2.3494,-2.3494,-2.3494,-2.3494,-2.3494,-2.3494,-2.3494,-2.3494,-2.3494,-2.3494,-2.3494,-2.3494,-2.3494,-2.3494,-2.3494,-2.3494,-2.3494,-2.3494,-2.3494,-2.3494,-1.3597,-1.4076,-1.4796,-1.5274,-1.5633,-1.6056,-1.6249,-1.6316,-1.6374,-1.6534,-1.6842,-1.7101,-1.7413,-1.7918,-1.8471,-1.8738,-1.8939,-1.9488,-1.9747,-1.9949,-2.097,-2.2021,-2.2695,-2.2698,-2.2988,-2.3968,-2.3851,-2.3746,-2.3629,-2.3145,-2.305,-2.3245,-2.304,-2.3252,-2.366,-2.3728,-2.367,-2.3881,-2.3717,-2.3769,-2.3982,-2.4009,-2.4094,-2.4261,-2.4287,-2.3902,-2.2917,-2.2101,-2.1285,-2.0551,-2.0357,-2.046,-2.0646,-2.086,-2.1023,-2.123,-2.1294,-2.1402,-2.1694,-2.1899,-2.213,-2.2377,-2.2596,-2.2685,-2.2738,-2.2944,-2.3119,-2.3144,-2.336,-2.3471,-2.3494,-2.3494,-2.3494,-2.3494,-2.3494,-2.3494,-2.3494,-2.3494,-2.3494,-2.3494,-2.3494,-2.3494,-2.3494,-2.3494,-2.3494,-2.3494,-2.3494,-2.3494,-2.3494,-2.3494,-2.3494,-2.3494,-2.3494,-2.3494,-2.3494,-2.3494,-2.3494,-2.3494,-2.3494,-2.3494,-2.3494,-2.3494,-2.3494,-2.3494,-2.3494,-2.3494,-2.3494,-2.3494,-2.3494,-2.3494,-2.3494,-2.3494,-2.3494,-2.3494,-2.3494,-1.2704,-1.2879,-1.4136,-1.4728,-1.4914,-1.5633,-1.5931,-1.5999,-1.6249,-1.6374,-1.6477,-1.6888,-1.7045,-1.7146,-1.7754,-1.8027,-1.8081,-1.8898,-1.9324,-1.9788,-2.062,-2.1774,-2.3114,-2.2773,-2.3024,-2.3759,-2.3433,-2.3223,-2.3027,-2.2557,-2.2363,-2.2419,-2.2318,-2.2237,-2.2525,-2.2701,-2.2888,-2.3186,-2.3495,-2.3797,-2.3982,-2.4094,-2.4177,-2.4261,-2.4302,-2.3733,-2.284,-2.224,-2.1707,-2.0474,-2.0472,-2.0527,-2.0595,-2.0941,-2.1103,-2.1167,-2.1262,-2.1419,-2.1694,-2.1899,-2.213,-2.2377,-2.2596,-2.2712,-2.279,-2.2952,-2.3102,-2.3126,-2.336,-2.3471,-2.3494,-2.3494,-2.3494,-2.3494,-2.3494,-2.3534,-2.3601,-2.3547,-2.3494,-2.3494,-2.3494,-2.3494,-2.3494,-2.3494,-2.3494,-2.3494,-2.3494,-2.3494,-2.3494,-2.3494,-2.3494,-2.3494,-2.3494,-2.3494,-2.3494,-2.3494,-2.3494,-2.3494,-2.3494,-2.3494,-2.3494,-2.3494,-2.3494,-2.3494,-2.3494,-2.3494,-2.3494,-2.3494,-2.3494,-2.3494,-2.3494,-2.3494,-2.3494,-2.3494,-2.3494,-1.2104,-1.2565,-1.307,-1.3545,-1.4067,-1.4787,-1.5148,-1.5206,-1.5874,-1.6114,-1.6239,-1.6467,-1.6591,-1.6637,-1.7168,-1.7368,-1.7534,-1.8494,-1.9458,-2.0373,-2.0139,-2.1036,-2.2236,-2.257,-2.3046,-2.3298,-2.3289,-2.2975,-2.2518,-2.2061,-2.1891,-2.2172,-2.1619,-2.1417,-2.2055,-2.1856,-2.1908,-2.2466,-2.274,-2.3201,-2.3754,-2.3925,-2.4094,-2.4261,-2.4302,-2.3887,-2.3163,-2.2578,-2.1901,-2.1234,-2.0721,-2.0561,-2.0695,-2.0925,-2.1087,-2.1199,-2.1262,-2.1402,-2.1678,-2.1899,-2.2113,-2.2405,-2.2596,-2.2738,-2.2868,-2.2995,-2.3144,-2.3241,-2.3401,-2.3494,-2.3583,-2.3512,-2.3659,-2.3731,-2.369,-2.385,-2.4177,-2.3873,-2.3529,-2.3547,-2.3512,-2.3494,-2.3494,-2.3494,-2.3494,-2.3494,-2.3494,-2.3494,-2.3494,-2.3494,-2.3494,-2.3494,-2.3494,-2.3494,-2.3494,-2.3494,-2.3494,-2.3494,-2.3494,-2.3494,-2.3494,-2.3494,-2.3494,-2.3494,-2.3494,-2.3494,-2.3494,-2.3494,-2.3494,-2.3494,-2.3494,-2.3494,-2.3494,-2.3494,-2.3494,-1.1802,-1.2097,-1.252,-1.2818,-1.3235,-1.3999,-1.4305,-1.4483,-1.5206,-1.5575,-1.5768,-1.6066,-1.6316,-1.6384,-1.6694,-1.6842,-1.7112,-1.805,-1.916,-2.0055,-2.0292,-2.0777,-2.1342,-2.2052,-2.2528,-2.2711,-2.2505,-2.223,-2.1877,-2.1498,-2.1259,-2.1549,-2.1179,-2.1318,-2.1766,-2.1554,-2.2002,-2.2572,-2.2694,-2.3068,-2.3696,-2.3925,-2.4067,-2.4261,-2.4287,-2.3994,-2.3302,-2.264,-2.2015,-2.1337,-2.0829,-2.0509,-2.0561,-2.0728,-2.0893,-2.1023,-2.1151,-2.1433,-2.1751,-2.194,-2.2141,-2.2497,-2.2649,-2.2953,-2.3093,-2.3145,-2.328,-2.3527,-2.3596,-2.3513,-2.4011,-2.4468,-2.4522,-2.4563,-2.4575,-2.4771,-2.492,-2.423,-2.369,-2.3838,-2.3766,-2.3565,-2.3494,-2.3494,-2.3494,-2.3494,-2.3494,-2.3494,-2.3494,-2.3494,-2.3494,-2.3494,-2.3494,-2.3494,-2.3494,-2.3494,-2.3494,-2.3494,-2.3494,-2.3494,-2.3494,-2.3494,-2.3494,-2.3494,-2.3494,-2.3494,-2.3494,-2.3494,-2.3494,-2.3494,-2.3494,-2.3494,-2.3494,-2.3499,-2.3517,-1.1498,-1.1622,-1.2158,-1.2336,-1.2451,-1.3166,-1.3528,-1.3648,-1.4364,-1.4787,-1.504,-1.5633,-1.5941,-1.6192,-1.6316,-1.6363,-1.6775,-1.7423,-1.8619,-1.9587,-1.9997,-2.0381,-2.0803,-2.1199,-2.1578,-2.1994,-2.1719,-2.1459,-2.1238,-2.0936,-2.0817,-2.0838,-2.1109,-2.118,-2.1361,-2.167,-2.1955,-2.2374,-2.2572,-2.3024,-2.3668,-2.3925,-2.4067,-2.4276,-2.4302,-2.4087,-2.3517,-2.2902,-2.224,-2.163,-2.1073,-2.0763,-2.062,-2.0525,-2.0662,-2.086,-2.1119,-2.1479,-2.1882,-2.2056,-2.2271,-2.2676,-2.2858,-2.3074,-2.3369,-2.3545,-2.3781,-2.3935,-2.4067,-2.4189,-2.4795,-2.5218,-2.56,-2.5676,-2.5743,-2.5849,-2.5722,-2.4712,-2.4427,-2.4391,-2.4195,-2.3904,-2.3618,-2.3494,-2.3494,-2.3494,-2.3494,-2.3494,-2.3494,-2.3494,-2.3494,-2.3494,-2.3494,-2.3494,-2.3494,-2.3494,-2.3494,-2.3494,-2.3494,-2.3494,-2.3494,-2.3494,-2.3494,-2.3494,-2.3494,-2.3494,-2.3494,-2.3494,-2.3494,-2.3494,-2.3494,-2.3494,-2.3517,-2.3499,-2.3499,-1.1185,-1.1622,-1.1685,-1.174,-1.1864,-1.2451,-1.2687,-1.287,-1.3597,-1.3948,-1.4067,-1.4787,-1.5216,-1.5459,-1.5941,-1.6446,-1.6925,-1.7441,-1.8102,-1.8988,-1.9377,-1.966,-2.0114,-2.0382,-2.0487,-2.0643,-2.0823,-2.0966,-2.0771,-2.0601,-2.0601,-2.0712,-2.0851,-2.0914,-2.103,-2.0947,-2.1434,-2.2055,-2.2161,-2.2526,-2.3378,-2.3668,-2.3925,-2.4219,-2.4302,-2.421,-2.401,-2.3502,-2.3071,-2.2917,-2.2355,-2.2015,-2.1719,-2.1274,-2.1051,-2.1102,-2.1325,-2.1631,-2.194,-2.2203,-2.2443,-2.277,-2.3202,-2.3352,-2.3527,-2.4058,-2.4417,-2.4601,-2.4984,-2.5412,-2.5561,-2.5908,-2.5836,-2.5847,-2.6007,-2.6203,-2.6461,-2.605,-2.5158,-2.4926,-2.4605,-2.4153,-2.3761,-2.3494,-2.3494,-2.3494,-2.3494,-2.3494,-2.3494,-2.3494,-2.3494,-2.3494,-2.3494,-2.3494,-2.3494,-2.3494,-2.3494,-2.3494,-2.3494,-2.3494,-2.3494,-2.3494,-2.3494,-2.3494,-2.3494,-2.3494,-2.3494,-2.3494,-2.3494,-2.3494,-2.3494,-2.3494,-2.3499,-2.3499,-2.3522,-1.0534,-1.0787,-1.1185,-1.1373,-1.149,-1.1725,-1.1965,-1.2158,-1.2749,-1.3114,-1.3416,-1.3948,-1.461,-1.504,-1.5332,-1.6073,-1.6903,-1.7224,-1.7767,-1.8431,-1.8851,-1.9125,-1.954,-1.9708,-1.9914,-2.0041,-2.0283,-2.0437,-2.0373,-2.036,-2.0603,-2.0926,-2.1004,-2.1199,-2.142,-2.1341,-2.1723,-2.2287,-2.2221,-2.2544,-2.3778,-2.3863,-2.4024,-2.4177,-2.4302,-2.4302,-2.4179,-2.3656,-2.3302,-2.3132,-2.2655,-2.2363,-2.2105,-2.1728,-2.1266,-2.1304,-2.1471,-2.1661,-2.1928,-2.2209,-2.2641,-2.3227,-2.3633,-2.4109,-2.4406,-2.4912,-2.5077,-2.5164,-2.5755,-2.6321,-2.6313,-2.6712,-2.6987,-2.7049,-2.7014,-2.7174,-2.7388,-2.7192,-2.6371,-2.5372,-2.4855,-2.4337,-2.3654,-2.3494,-2.3494,-2.3494,-2.3494,-2.3494,-2.3494,-2.3494,-2.3494,-2.3494,-2.3494,-2.3494,-2.3494,-2.3494,-2.3494,-2.3494,-2.3494,-2.3494,-2.3494,-2.3494,-2.3494,-2.3494,-2.3494,-2.3494,-2.3494,-2.3494,-2.3494,-2.3494,-2.3494,-2.3494,-2.3499,-2.3499,-2.3544,-0.9693,-1.0002,-1.0586,-1.1003,-1.124,-1.1247,-1.1373,-1.1615,-1.2027,-1.2336,-1.2642,-1.3174,-1.3888,-1.461,-1.5089,-1.5748,-1.6775,-1.6837,-1.7213,-1.7659,-1.8248,-1.8625,-1.8976,-1.9359,-1.9708,-1.9862,-1.9888,-1.9914,-2.0182,-2.0233,-2.0669,-2.1017,-2.1277,-2.1484,-2.1837,-2.1407,-2.2409,-2.256,-2.2471,-2.2747,-2.3807,-2.42,-2.4208,-2.4276,-2.4261,-2.4214,-2.3979,-2.3579,-2.3194,-2.2948,-2.2594,-2.2286,-2.2216,-2.1771,-2.1486,-2.1432,-2.1423,-2.1544,-2.1811,-2.2209,-2.2777,-2.3598,-2.3926,-2.4712,-2.531,-2.5374,-2.545,-2.5749,-2.644,-2.703,-2.7156,-2.7699,-2.8039,-2.8075,-2.8057,-2.8146,-2.7986,-2.7629,-2.6863,-2.5971,-2.5229,-2.4427,-2.3713,-2.3494,-2.3494,-2.3494,-2.3494,-2.3494,-2.3494,-2.3494,-2.3494,-2.3494,-2.3494,-2.3494,-2.3494,-2.3494,-2.3494,-2.3494,-2.3494,-2.3494,-2.3494,-2.3494,-2.3494,-2.3494,-2.3494,-2.3494,-2.3494,-2.3494,-2.3494,-2.3494,-2.3494,-2.3494,-2.3499,-2.3517,-2.3562,-0.8722,-0.9862,-0.9916,-1.0376,-1.1094,-1.1108,-1.1178,-1.1373,-1.1428,-1.1553,-1.1864,-1.2397,-1.3114,-1.4007,-1.5196,-1.5826,-1.5991,-1.6053,-1.6191,-1.6579,-1.7104,-1.7728,-1.8346,-1.8859,-1.9411,-1.9695,-1.9798,-1.9965,-2.0118,-2.0182,-2.0669,-2.1225,-2.116,-2.1132,-2.1824,-2.1459,-2.0893,-2.1136,-2.1116,-2.1609,-2.2672,-2.3626,-2.404,-2.4181,-2.4177,-2.3989,-2.364,-2.3332,-2.3086,-2.2517,-2.2378,-2.2286,-2.2216,-2.1786,-2.1476,-2.1354,-2.1388,-2.1526,-2.1864,-2.2428,-2.3084,-2.4035,-2.4494,-2.4919,-2.55,-2.6056,-2.641,-2.72,-2.7555,-2.7692,-2.7657,-2.801,-2.8172,-2.8154,-2.8154,-2.8172,-2.8146,-2.7575,-2.6846,-2.6106,-2.518,-2.4385,-2.3659,-2.357,-2.3494,-2.3494,-2.3494,-2.3494,-2.3494,-2.3494,-2.3494,-2.3494,-2.3494,-2.3494,-2.3494,-2.3494,-2.3494,-2.3494,-2.3494,-2.3494,-2.3494,-2.3494,-2.3494,-2.3494,-2.3494,-2.3494,-2.3494,-2.3494,-2.3494,-2.3517,-2.3517,-2.3517,-2.3494,-2.3539,-2.3585,-0.7313,-0.8711,-0.9075,-0.9786,-1.0656,-1.0677,-1.0905,-1.1163,-1.1185,-1.1247,-1.1373,-1.167,-1.2458,-1.364,-1.484,-1.5362,-1.5375,-1.5287,-1.5203,-1.5541,-1.6138,-1.6916,-1.7722,-1.8465,-1.915,-1.9643,-1.9798,-1.9914,-2.0029,-2.0118,-2.0526,-2.1427,-2.1508,-2.1835,-2.2031,-2.1824,-2.1969,-2.2183,-2.2399,-2.2588,-2.2931,-2.3523,-2.4067,-2.4166,-2.4208,-2.3851,-2.34,-2.3271,-2.2963,-2.244,-2.2286,-2.2286,-2.217,-2.1775,-2.1342,-2.1347,-2.1621,-2.1892,-2.2289,-2.3169,-2.4052,-2.4815,-2.5424,-2.5833,-2.6243,-2.6619,-2.6974,-2.7321,-2.7587,-2.7707,-2.7766,-2.7836,-2.7968,-2.8042,-2.8025,-2.8099,-2.7966,-2.7299,-2.6632,-2.5895,-2.5138,-2.4325,-2.3654,-2.3565,-2.3494,-2.3494,-2.3494,-2.3494,-2.3494,-2.3494,-2.3494,-2.3494,-2.3494,-2.3494,-2.3494,-2.3494,-2.3494,-2.3494,-2.3494,-2.3494,-2.3494,-2.3494,-2.3494,-2.3494,-2.3494,-2.3494,-2.3494,-2.3517,-2.3499,-2.3539,-2.3562,-2.3539,-2.3539,-2.3589,-2.3634,-0.6107,-0.74,-0.828,-0.9215,-1.0146,-1.035,-1.0664,-1.0982,-1.0996,-1.1059,-1.1185,-1.1421,-1.222,-1.3176,-1.4142,-1.46,-1.4719,-1.4651,-1.4613,-1.4854,-1.5463,-1.6299,-1.6989,-1.7848,-1.8673,-1.9527,-1.9488,-1.9708,-1.9875,-2.0015,-2.0406,-2.1517,-2.1501,-2.1892,-2.226,-2.2122,-2.197,-2.2132,-2.263,-2.271,-2.2735,-2.329,-2.3668,-2.3882,-2.3975,-2.3779,-2.3115,-2.2931,-2.2608,-2.1765,-2.1357,-2.1265,-2.1403,-2.0962,-2.0798,-2.1073,-2.1679,-2.2292,-2.2834,-2.367,-2.5029,-2.5764,-2.6323,-2.6609,-2.704,-2.7299,-2.7299,-2.7313,-2.7452,-2.7496,-2.7526,-2.7642,-2.776,-2.7836,-2.7818,-2.795,-2.784,-2.6986,-2.6313,-2.5753,-2.4978,-2.4141,-2.3649,-2.3547,-2.3494,-2.3494,-2.3494,-2.3494,-2.3494,-2.3494,-2.3494,-2.3494,-2.3494,-2.3494,-2.3494,-2.3494,-2.3494,-2.3494,-2.3494,-2.3494,-2.3494,-2.3494,-2.3494,-2.3494,-2.3494,-2.3494,-2.3494,-2.3499,-2.3499,-2.3517,-2.3539,-2.3585,-2.3607,-2.3656,-2.3678,-0.5406,-0.6227,-0.7612,-0.872,-0.9591,-1.0332,-1.0647,-1.0773,-1.0793,-1.0919,-1.1073,-1.164,-1.2035,-1.2583,-1.3293,-1.3807,-1.3968,-1.4523,-1.4488,-1.4636,-1.5275,-1.5835,-1.6417,-1.7016,-1.7754,-1.8727,-1.9016,-1.9396,-1.9708,-1.9811,-2.0332,-2.0987,-2.1192,-2.1207,-2.1364,-2.1496,-2.1277,-2.1398,-2.1689,-2.1911,-2.2016,-2.2515,-2.3069,-2.326,-2.3503,-2.3292,-2.22,-2.2132,-2.1645,-2.0548,-2.0177,-2.0135,-2.0457,-2.0174,-2.0196,-2.0702,-2.1843,-2.2399,-2.2802,-2.3912,-2.5009,-2.5908,-2.6547,-2.6971,-2.7247,-2.7299,-2.7299,-2.733,-2.739,-2.7483,-2.7526,-2.76,-2.7659,-2.7672,-2.7689,-2.7777,-2.7441,-2.6409,-2.58,-2.5461,-2.4775,-2.3839,-2.3513,-2.3389,-2.3471,-2.3494,-2.3494,-2.3494,-2.3494,-2.3494,-2.3494,-2.3494,-2.3494,-2.3494,-2.3494,-2.3494,-2.3494,-2.3494,-2.3494,-2.3494,-2.3494,-2.3494,-2.3494,-2.3494,-2.3494,-2.3494,-2.3517,-2.3517,-2.3517,-2.3517,-2.3517,-2.3585,-2.3629,-2.3674,-2.3674,-0.5096,-0.5743,-0.6832,-0.7923,-0.8959,-0.9327,-0.9773,-1.0259,-1.0537,-1.0635,-1.0739,-1.1299,-1.1707,-1.2035,-1.2521,-1.3168,-1.3546,-1.3286,-1.3664,-1.4136,-1.4607,-1.5188,-1.5823,-1.6567,-1.7324,-1.8298,-1.8643,-1.9081,-1.9604,-1.9656,-1.9886,-2.0319,-2.069,-2.0972,-2.1,-2.0888,-2.0732,-2.0817,-2.1131,-2.1506,-2.1885,-2.2112,-2.257,-2.2912,-2.26,-2.2288,-2.1523,-2.1402,-2.081,-2.0223,-1.9786,-1.9852,-2.0008,-1.9866,-1.9996,-2.0354,-2.1651,-2.2221,-2.2833,-2.4215,-2.5882,-2.6324,-2.6622,-2.6702,-2.7132,-2.725,-2.7299,-2.733,-2.7345,-2.739,-2.739,-2.7421,-2.7483,-2.7526,-2.7587,-2.7647,-2.7233,-2.6279,-2.5746,-2.5579,-2.4476,-2.3334,-2.3245,-2.3228,-2.3354,-2.3471,-2.3494,-2.3494,-2.3494,-2.3494,-2.3494,-2.3494,-2.3494,-2.3494,-2.3494,-2.3494,-2.3494,-2.3494,-2.3494,-2.3494,-2.3494,-2.3494,-2.3494,-2.3494,-2.3494,-2.3494,-2.3517,-2.3557,-2.3539,-2.3539,-2.3562,-2.3607,-2.3652,-2.3674,-2.3696,-0.4769,-0.51,-0.5801,-0.6862,-0.8028,-0.8408,-0.8986,-0.9594,-1.0021,-1.0322,-1.0499,-1.0898,-1.1187,-1.1481,-1.2027,-1.2597,-1.3068,-1.3059,-1.3408,-1.3806,-1.4219,-1.471,-1.5379,-1.5963,-1.6584,-1.7686,-1.8255,-1.8578,-1.9186,-1.946,-1.9602,-1.9833,-2.0076,-2.0242,-2.0511,-2.045,-2.041,-2.0612,-2.1033,-2.1506,-2.1838,-2.1985,-2.2161,-2.2453,-2.2169,-2.168,-2.1182,-2.0956,-2.0609,-2.0086,-1.9778,-1.9832,-1.9963,-2.0062,-2.0135,-2.0581,-2.1211,-2.1915,-2.2687,-2.4431,-2.6303,-2.6753,-2.6676,-2.6759,-2.698,-2.7201,-2.7299,-2.7233,-2.7264,-2.7282,-2.7264,-2.7313,-2.7345,-2.7421,-2.739,-2.7434,-2.72,-2.6545,-2.6135,-2.5745,-2.4559,-2.3498,-2.334,-2.3383,-2.3259,-2.3401,-2.3471,-2.3494,-2.3494,-2.3494,-2.3494,-2.3494,-2.3494,-2.3494,-2.3494,-2.3494,-2.3494,-2.3494,-2.3494,-2.3494,-2.3494,-2.3494,-2.3494,-2.3494,-2.3494,-2.3494,-2.3517,-2.3517,-2.3562,-2.3585,-2.3607,-2.3652,-2.3696,-2.3718,-2.3765,-0.4229,-0.4241,-0.4553,-0.5568,-0.691,-0.7687,-0.8377,-0.8926,-0.9214,-0.9686,-1.0316,-1.0524,-1.0649,-1.0912,-1.1541,-1.2067,-1.2505,-1.3001,-1.3483,-1.3673,-1.3936,-1.434,-1.4743,-1.5269,-1.5925,-1.6553,-1.7379,-1.8038,-1.8643,-1.9146,-1.9368,-1.9312,-1.9356,-1.9345,-1.9786,-1.9952,-2.0195,-2.0498,-2.0944,-2.1108,-2.1423,-2.152,-2.1542,-2.1733,-2.1545,-2.1068,-2.0527,-2.0377,-2.0002,-1.9497,-1.9148,-1.9292,-1.9782,-1.9538,-1.9716,-2.0304,-2.1139,-2.1528,-2.1697,-2.4243,-2.581,-2.6652,-2.6527,-2.6796,-2.7017,-2.7201,-2.725,-2.7135,-2.7201,-2.7215,-2.7201,-2.7233,-2.7282,-2.7313,-2.733,-2.7279,-2.7078,-2.6675,-2.6202,-2.5754,-2.489,-2.406,-2.3815,-2.3578,-2.3334,-2.333,-2.3448,-2.3494,-2.3494,-2.3494,-2.3494,-2.3494,-2.3494,-2.3494,-2.3494,-2.3494,-2.3494,-2.3494,-2.3494,-2.3494,-2.3494,-2.3494,-2.3494,-2.3494,-2.3494,-2.3494,-2.3494,-2.3517,-2.3562,-2.3607,-2.3652,-2.3696,-2.3739,-2.3743,-2.3786,-0.3704,-0.4173,-0.4277,-0.4696,-0.5443,-0.6496,-0.7227,-0.7711,-0.8186,-0.8758,-0.9272,-0.9699,-0.9959,-1.0199,-1.0671,-1.1253,-1.1662,-1.1914,-1.2457,-1.325,-1.36,-1.4096,-1.4494,-1.4914,-1.5454,-1.6224,-1.6989,-1.771,-1.8387,-1.8881,-1.9263,-1.9233,-1.8943,-1.8883,-1.9309,-1.9674,-2.0105,-2.0105,-2.0148,-2.025,-2.0803,-2.051,-2.0411,-2.0955,-2.0644,-2.0146,-1.9579,-1.9564,-1.9301,-1.8762,-1.8462,-1.883,-1.9299,-1.9162,-1.947,-1.9978,-2.0659,-2.1349,-2.2422,-2.4331,-2.5297,-2.5897,-2.6296,-2.6565,-2.6838,-2.7023,-2.7055,-2.7103,-2.7152,-2.7152,-2.7233,-2.7282,-2.7282,-2.733,-2.7299,-2.7299,-2.712,-2.655,-2.6026,-2.5611,-2.4947,-2.3883,-2.3337,-2.3345,-2.3175,-2.3186,-2.3307,-2.3424,-2.3471,-2.3494,-2.3494,-2.3494,-2.3494,-2.3494,-2.3494,-2.3494,-2.3494,-2.3494,-2.3494,-2.3494,-2.3494,-2.3494,-2.3494,-2.3494,-2.3494,-2.3494,-2.3517,-2.3517,-2.3607,-2.3652,-2.3674,-2.3696,-2.3739,-2.3765,-2.3807,-0.3112,-0.3637,-0.3975,-0.4216,-0.4439,-0.5339,-0.6224,-0.7094,-0.7747,-0.8437,-0.908,-0.96,-0.9799,-0.9912,-1.0296,-1.085,-1.1398,-1.1547,-1.2133,-1.2878,-1.3026,-1.3415,-1.3936,-1.4468,-1.4865,-1.5659,-1.6409,-1.7102,-1.7549,-1.8412,-1.8802,-1.8846,-1.8668,-1.8561,-1.8734,-1.8983,-1.9359,-1.942,-1.9558,-1.9668,-1.9935,-1.9879,-1.9701,-1.9992,-1.9834,-1.9343,-1.8932,-1.8743,-1.8683,-1.8268,-1.8335,-1.8673,-1.9084,-1.933,-1.9565,-1.9884,-2.0435,-2.1363,-2.2866,-2.41,-2.4993,-2.561,-2.5859,-2.6366,-2.6774,-2.6957,-2.7007,-2.704,-2.7038,-2.7087,-2.7137,-2.7186,-2.7233,-2.7233,-2.7282,-2.7282,-2.7178,-2.6626,-2.6454,-2.5988,-2.5074,-2.3953,-2.2919,-2.2955,-2.2962,-2.3063,-2.3137,-2.3307,-2.3424,-2.3448,-2.3471,-2.3494,-2.3494,-2.3494,-2.3494,-2.3494,-2.3494,-2.3494,-2.3517,-2.3522,-2.3494,-2.3494,-2.3494,-2.3517,-2.3517,-2.3517,-2.3499,-2.3522,-2.3585,-2.3629,-2.3634,-2.3678,-2.3739,-2.3765,-2.3789,-0.2569,-0.2637,-0.3527,-0.392,-0.4007,-0.4357,-0.5517,-0.7178,-0.7912,-0.8731,-0.9767,-0.9642,-0.9744,-0.9989,-1.049,-1.0916,-1.1308,-1.1381,-1.1939,-1.2493,-1.2348,-1.2654,-1.3109,-1.36,-1.4153,-1.4768,-1.5487,-1.61,-1.6482,-1.7417,-1.8019,-1.8193,-1.8041,-1.7885,-1.786,-1.7881,-1.8287,-1.8692,-1.8776,-1.8898,-1.9097,-1.9225,-1.9143,-1.9238,-1.914,-1.883,-1.8619,-1.8624,-1.8723,-1.8728,-1.8991,-1.9386,-1.9713,-1.9874,-1.9925,-2.0185,-2.0681,-2.1681,-2.275,-2.3862,-2.4622,-2.5274,-2.6013,-2.6588,-2.6825,-2.679,-2.6754,-2.6873,-2.6957,-2.6942,-2.6942,-2.7038,-2.71,-2.7166,-2.7184,-2.7215,-2.7264,-2.7092,-2.7057,-2.6454,-2.5367,-2.4247,-2.3074,-2.2808,-2.2842,-2.2885,-2.2987,-2.3119,-2.3241,-2.3336,-2.3383,-2.3494,-2.3494,-2.3494,-2.3517,-2.3517,-2.3494,-2.3494,-2.3544,-2.3549,-2.3544,-2.3567,-2.3634,-2.3656,-2.3562,-2.3517,-2.3499,-2.3499,-2.3517,-2.3544,-2.3589,-2.3656,-2.3739,-2.3768,-2.3792,-0.1286,-0.1733,-0.254,-0.2945,-0.3006,-0.361,-0.4439,-0.5465,-0.6502,-0.7412,-0.8076,-0.869,-0.8944,-0.9017,-0.9036,-0.9141,-0.9404,-0.971,-1.0272,-1.0817,-1.1438,-1.2052,-1.2597,-1.3136,-1.3541,-1.3991,-1.4587,-1.509,-1.5395,-1.6291,-1.6869,-1.687,-1.7134,-1.6967,-1.6846,-1.659,-1.7262,-1.7721,-1.7777,-1.799,-1.8053,-1.8099,-1.8185,-1.829,-1.8361,-1.814,-1.8062,-1.7744,-1.7748,-1.8049,-1.7712,-1.7909,-1.9021,-1.9086,-1.923,-2.015,-2.0836,-2.1616,-2.2541,-2.3342,-2.4083,-2.4575,-2.5024,-2.5796,-2.6167,-2.6419,-2.6367,-2.6672,-2.6859,-2.6842,-2.6909,-2.6957,-2.7004,-2.7036,-2.7103,-2.712,-2.7169,-2.7152,-2.7031,-2.6165,-2.5114,-2.4109,-2.2988,-2.2738,-2.2764,-2.2781,-2.2834,-2.297,-2.3119,-2.3217,-2.3365,-2.3499,-2.3544,-2.3567,-2.3522,-2.3562,-2.3517,-2.3517,-2.3594,-2.3664,-2.3685,-2.3707,-2.381,-2.3768,-2.3638,-2.3567,-2.3499,-2.3499,-2.3494,-2.3517,-2.3585,-2.3652,-2.3739,-2.3768,-2.3792,-0.0503,-0.095,-0.1732,-0.2178,-0.2516,-0.3132,-0.3661,-0.4234,-0.5422,-0.641,-0.7317,-0.7757,-0.8068,-0.8316,-0.8202,-0.8164,-0.8466,-0.877,-0.9357,-1.0171,-1.0553,-1.1157,-1.1852,-1.2502,-1.294,-1.328,-1.3622,-1.4092,-1.4418,-1.5275,-1.5995,-1.6534,-1.6396,-1.6327,-1.629,-1.6133,-1.6142,-1.6553,-1.6806,-1.6928,-1.7012,-1.7167,-1.7499,-1.7539,-1.7648,-1.7593,-1.7372,-1.6937,-1.7193,-1.7596,-1.7243,-1.7915,-1.8917,-1.9151,-1.9251,-2.0061,-2.0489,-2.1221,-2.2015,-2.2769,-2.3391,-2.3884,-2.4161,-2.496,-2.5529,-2.5848,-2.6201,-2.6572,-2.6691,-2.6775,-2.6842,-2.6942,-2.694,-2.6971,-2.6989,-2.699,-2.704,-2.7072,-2.6467,-2.5635,-2.4683,-2.3702,-2.3091,-2.285,-2.2712,-2.2712,-2.2764,-2.2893,-2.302,-2.3144,-2.3365,-2.3576,-2.3598,-2.362,-2.3594,-2.3611,-2.3656,-2.37,-2.3789,-2.3834,-2.3837,-2.3837,-2.3855,-2.3792,-2.3689,-2.3598,-2.3499,-2.3517,-2.3517,-2.3539,-2.3585,-2.3674,-2.3739,-2.3743,-2.3768,-0.0056,-0.0168,-0.0894,-0.1621,-0.2238,-0.2796,-0.3077,-0.3297,-0.4405,-0.5773,-0.6846,-0.7016,-0.7237,-0.7478,-0.7366,-0.762,-0.7752,-0.7941,-0.8443,-0.9607,-0.9646,-1.013,-1.0889,-1.1559,-1.1939,-1.2395,-1.2775,-1.3114,-1.372,-1.4458,-1.5317,-1.6451,-1.6195,-1.5963,-1.5893,-1.5539,-1.5499,-1.5611,-1.5832,-1.6016,-1.6479,-1.7008,-1.7572,-1.754,-1.7576,-1.7595,-1.7248,-1.7203,-1.7357,-1.767,-1.8032,-1.8599,-1.9218,-1.9528,-1.9645,-1.9894,-2.0281,-2.0824,-2.1529,-2.2183,-2.2736,-2.3308,-2.3867,-2.4396,-2.4828,-2.5397,-2.5882,-2.6472,-2.6657,-2.6674,-2.6708,-2.6775,-2.6825,-2.6825,-2.6875,-2.6926,-2.696,-2.6684,-2.5874,-2.5026,-2.4173,-2.3261,-2.2953,-2.2712,-2.2712,-2.2712,-2.2764,-2.2868,-2.2995,-2.3119,-2.3319,-2.358,-2.3646,-2.3664,-2.3682,-2.3682,-2.3789,-2.3873,-2.3915,-2.3896,-2.3816,-2.3855,-2.3935,-2.3813,-2.3689,-2.3594,-2.3517,-2.3517,-2.3539,-2.3585,-2.3629,-2.3718,-2.3761,-2.3757,-2.3981,0.0897,0.0728,-0.0112,-0.1062,-0.2015,-0.2296,-0.2591,-0.2911,-0.3304,-0.4203,-0.527,-0.5727,-0.6091,-0.641,-0.6353,-0.6537,-0.6759,-0.7032,-0.7408,-0.7953,-0.8345,-0.9134,-0.9797,-1.0334,-1.0847,-1.1404,-1.1831,-1.2199,-1.2968,-1.3516,-1.4015,-1.489,-1.4992,-1.5085,-1.5188,-1.4817,-1.4751,-1.4826,-1.4754,-1.5157,-1.5813,-1.5915,-1.619,-1.6173,-1.6184,-1.642,-1.6174,-1.6036,-1.6903,-1.7778,-1.7699,-1.8352,-1.9332,-1.9406,-1.9603,-1.9894,-2.0158,-2.0587,-2.1066,-2.1569,-2.2035,-2.2374,-2.2847,-2.3538,-2.4182,-2.4929,-2.5598,-2.6201,-2.6537,-2.6537,-2.6572,-2.6657,-2.6674,-2.6725,-2.6742,-2.6843,-2.6894,-2.6143,-2.5364,-2.4555,-2.3704,-2.3209,-2.2875,-2.2712,-2.2712,-2.2764,-2.2842,-2.2902,-2.3028,-2.3151,-2.3289,-2.3508,-2.3646,-2.3689,-2.3707,-2.3747,-2.3831,-2.3831,-2.3831,-2.3813,-2.3795,-2.3855,-2.3876,-2.3774,-2.3649,-2.3594,-2.3562,-2.358,-2.3603,-2.3607,-2.3629,-2.3696,-2.3793,-2.3829,-2.4198,0.1234,0.1122,0.0392,-0.028,-0.0949,-0.1487,-0.1892,-0.2177,-0.2507,-0.2963,-0.3633,-0.4401,-0.5026,-0.5394,-0.5385,-0.5461,-0.5745,-0.5918,-0.6356,-0.6765,-0.7317,-0.8132,-0.8707,-0.9222,-0.9843,-1.0367,-1.073,-1.1259,-1.2173,-1.2493,-1.2859,-1.3581,-1.3824,-1.3983,-1.4059,-1.3919,-1.391,-1.4036,-1.3819,-1.4187,-1.4969,-1.52,-1.5466,-1.5415,-1.5556,-1.5664,-1.558,-1.5533,-1.6279,-1.7539,-1.8036,-1.8561,-1.9273,-1.9376,-1.9472,-1.9639,-1.9874,-2.0189,-2.0597,-2.0942,-2.1391,-2.1826,-2.2687,-2.3687,-2.4462,-2.5192,-2.5812,-2.6347,-2.6417,-2.6417,-2.652,-2.6589,-2.6589,-2.659,-2.6657,-2.6691,-2.6573,-2.6162,-2.5681,-2.5238,-2.4355,-2.3481,-2.3131,-2.2752,-2.2745,-2.2712,-2.279,-2.2919,-2.3052,-2.3175,-2.3319,-2.3435,-2.3576,-2.3753,-2.3834,-2.3852,-2.3852,-2.381,-2.3747,-2.3813,-2.3876,-2.3837,-2.3816,-2.3732,-2.3646,-2.3594,-2.3567,-2.3585,-2.3607,-2.3652,-2.3652,-2.3656,-2.3768,-2.3956,-2.4504,0.1447,0.1338,0.0839,0.0503,0.0333,-0.0593,-0.116,-0.1405,-0.1824,-0.2041,-0.2232,-0.3215,-0.4008,-0.4479,-0.4812,-0.493,-0.5087,-0.5384,-0.5674,-0.5967,-0.6513,-0.7184,-0.7842,-0.8411,-0.8919,-0.9424,-0.9859,-1.0529,-1.131,-1.1469,-1.1786,-1.2418,-1.2687,-1.29,-1.2857,-1.2885,-1.2999,-1.3077,-1.3087,-1.3248,-1.3844,-1.4518,-1.4904,-1.5223,-1.5405,-1.5485,-1.5366,-1.5556,-1.5884,-1.6977,-1.8245,-1.8739,-1.9009,-1.9111,-1.9265,-1.9362,-1.9472,-1.9762,-2.0065,-2.0462,-2.1112,-2.1872,-2.3028,-2.3896,-2.4617,-2.5313,-2.59,-2.6154,-2.6189,-2.6243,-2.6382,-2.6485,-2.6486,-2.6521,-2.6555,-2.6606,-2.6404,-2.6131,-2.5875,-2.5586,-2.4726,-2.3785,-2.3395,-2.3,-2.2752,-2.272,-2.2764,-2.2893,-2.302,-2.3151,-2.3295,-2.3412,-2.3508,-2.3707,-2.3852,-2.3831,-2.3768,-2.3747,-2.3682,-2.3813,-2.3896,-2.3771,-2.3685,-2.3685,-2.3616,-2.3567,-2.3567,-2.3585,-2.3629,-2.3696,-2.3721,-2.3721,-2.3797,-2.4071,-2.4852,0.2204,0.21,0.1715,0.1212,0.0645,-0.0053,-0.0618,-0.1076,-0.1499,-0.1657,-0.1717,-0.2062,-0.2794,-0.3631,-0.4077,-0.4408,-0.4718,-0.4937,-0.5067,-0.5301,-0.5562,-0.618,-0.6844,-0.7419,-0.8017,-0.8629,-0.9268,-0.9774,-1.0287,-1.0461,-1.0768,-1.1489,-1.1776,-1.2023,-1.2352,-1.2277,-1.2141,-1.2247,-1.2058,-1.2004,-1.2474,-1.3185,-1.4095,-1.4349,-1.4387,-1.4491,-1.4672,-1.5207,-1.5918,-1.6902,-1.8012,-1.8444,-1.8611,-1.8711,-1.8907,-1.9064,-1.9213,-1.9581,-1.9945,-2.0258,-2.0928,-2.1583,-2.2619,-2.3511,-2.4259,-2.5094,-2.5546,-2.5848,-2.5885,-2.5944,-2.6049,-2.6258,-2.6277,-2.64,-2.6469,-2.6538,-2.6506,-2.6082,-2.5675,-2.5181,-2.4496,-2.3932,-2.359,-2.3172,-2.2701,-2.2685,-2.279,-2.2893,-2.2927,-2.3102,-2.3271,-2.3365,-2.3458,-2.3499,-2.3589,-2.3634,-2.3611,-2.3611,-2.3634,-2.3682,-2.3682,-2.3571,-2.3544,-2.3571,-2.3549,-2.3522,-2.3539,-2.3607,-2.3652,-2.37,-2.3768,-2.381,-2.3825,-2.4042,-2.4639]}]]